[[{"header":{"parameterUnit":"m.s-1","parameterCategory":1,"la1":31.0,"la2":29.5877,"lo1":-88.7671,"lo2":-86.6584,"dy":0.0162,"dx":0.0185,"nx":115,"ny":88,"refTime":"2026-04-22T12:00:00:Z","depth":0,"parameterNumber":2,"parameterNumberName":"U-component_of_WINDS"},"data":[0.0,0.0,0.0,0.0,0.0,0.0,0.0,0.0,0.0,0.0,0.0,0.0,0.0,0.0,0.0,0.0,0.0,0.0,0.0,0.0,0.0,0.0,0.0,0.0,0.0,0.0,0.0,0.0,0.0,0.0,0.0,0.0,0.0,0.0,0.0,0.0,0.0,0.0,0.0,0.0,0.0,0.0,0.0,0.0,0.0,0.0,0.0,0.0,0.0,0.0,0.0,0.0,0.0,0.0,0.0,0.0,0.0,0.0,0.0,0.0,0.0,0.0,0.0,0.0,0.0,0.0,0.0,0.0,0.0,0.0,0.0,0.0,0.0,0.0,0.0,0.0,0.0,0.0,0.0,0.0,0.0,0.0,0.0,0.0,0.0,0.0,0.0,0.0,0.0,0.0,0.0,0.0,0.0,0.0,0.0,0.0,0.0,0.0,0.0,0.0,0.0,0.0,0.0,0.0,0.0,0.0,0.0,0.0,0.0,0.0,0.0,0.0,0.0,0.0,0.0,0.0,0.0,0.0,0.0,0.0,0.0,0.0,0.0,0.0,0.0,0.0,0.0,0.0,0.0,0.0,0.0,0.0,0.0,0.0,0.0,0.0,0.0,0.0,0.0,0.0,0.0,0.0,0.0,0.0,0.0,0.0,0.0,0.0,0.0,0.0,0.0,0.0,0.0,0.0,0.0,0.0,0.0,0.0,0.0,0.0,0.0,0.0,0.0,0.0,0.0,0.0,0.0,0.0,0.0,0.0,0.0,0.0,0.0,0.0,0.0,0.0,0.0,0.0,0.0,0.0,0.0,0.0,0.0,0.0,0.0,0.0,0.0,0.0,0.0,0.0,0.0,0.0,0.0,0.0,0.0,0.0,0.0,0.0,0.0,0.0,0.0,0.0,0.0,0.0,0.0,0.0,0.0,0.0,0.0,0.0,0.0,0.0,0.0,0.0,0.0,0.0,0.0,0.0,0.0,0.0,0.0,0.0,0.0,0.0,0.0,0.0,0.0,0.0,0.0,0.0,0.0,0.0,0.0,0.0,0.0,0.0,0.0,0.0,0.0,0.0,0.0,0.0,0.0,0.0,0.0,0.0,0.0,0.0,0.0,0.0,0.0,0.0,0.0,0.0,0.0,0.0,0.0,0.0,0.0,0.0,0.0,0.0,0.0,0.0,0.0,0.0,0.0,0.0,0.0,0.0,0.0,0.0,0.0,0.0,0.0,0.0,0.0,0.0,0.0,0.0,0.0,0.0,0.0,0.0,0.0,0.0,0.0,0.0,0.0,0.0,0.0,0.0,0.0,0.0,0.0,0.0,0.0,0.0,0.0,0.0,0.0,0.0,0.0,0.0,0.0,0.0,0.0,0.0,0.0,0.0,0.0,0.0,0.0,0.0,0.0,0.0,0.0,0.0,0.0,0.0,0.0,0.0,0.0,0.0,0.0,0.0,0.0,0.0,0.0,0.0,0.0,0.0,0.0,0.0,0.0,0.0,0.0,0.0,0.0,0.0,0.0,0.0,0.0,0.0,0.0,0.0,0.0,0.0,0.0,0.0,0.0,0.0,0.0,0.0,0.0,0.0,0.0,0.0,0.0,0.0,0.0,0.0,0.0,0.0,0.0,0.0,0.0,0.0,0.0,0.0,0.0,0.0,0.0,0.0,0.0,0.0,0.0,0.0,0.0,0.0,0.0,0.0,0.0,0.0,0.0,0.0,0.0,0.0,0.0,0.0,0.0,0.0,0.0,0.0,0.0,0.0,0.0,0.0,0.0,0.0,0.0,0.0,0.0,0.0,0.0,0.0,0.0,0.0,0.0,0.0,0.0,0.0,0.0,0.0,0.0,0.0,0.0,0.0,0.0,0.0,0.0,0.0,0.0,0.0,0.0,0.0,0.0,0.0,0.0,0.0,0.0,0.0,0.0,0.0,0.0,0.0,0.0,0.0,0.0,0.0,0.0,0.0,0.0,0.0,0.0,0.0,0.0,0.0,0.0,0.0,0.0,0.0,0.0,0.0,0.0,0.0,0.0,0.0,0.0,0.0,0.0,0.0,0.0,0.0,0.0,0.0,0.0,0.0,0.0,0.0,0.0,0.0,0.0,0.0,0.0,0.0,0.0,0.0,0.0,0.0,0.0,0.0,0.0,0.0,0.0,0.0,0.0,0.0,0.0,0.0,0.0,0.0,0.0,0.0,0.0,0.0,0.0,0.0,0.0,0.0,0.0,0.0,0.0,0.0,0.0,0.0,0.0,0.0,0.0,0.0,0.0,0.0,0.0,0.0,0.0,0.0,0.0,0.0,0.0,0.0,0.0,0.0,0.0,0.0,0.0,0.0,0.0,0.0,0.0,0.0,0.0,0.0,0.0,0.0,0.0,0.0,0.0,0.0,0.0,0.0,0.0,0.0,0.0,0.0,0.0,0.0,0.0,0.0,0.0,0.0,0.0,0.0,0.0,0.0,0.0,0.0,0.0,0.0,0.0,0.0,0.0,0.0,0.0,0.0,0.0,0.0,0.0,0.0,0.0,0.0,0.0,0.0,0.0,0.0,0.0,0.0,0.0,0.0,0.0,0.0,0.0,0.0,0.0,0.0,0.0,0.0,0.0,0.0,0.0,0.0,0.0,0.0,0.0,0.0,0.0,0.0,0.0,0.0,0.0,0.0,0.0,0.0,0.0,0.0,0.0,0.0,0.0,0.0,0.0,0.0,0.0,0.0,0.0,0.0,0.0,0.0,0.0,0.0,0.0,0.0,0.0,0.0,0.0,0.0,0.0,0.0,0.0,0.0,0.0,0.0,0.0,0.0,0.0,0.0,0.0,0.0,0.0,0.0,0.0,0.0,0.0,0.0,0.0,0.0,0.0,0.0,0.0,0.0,0.0,0.0,0.0,0.0,0.0,0.0,0.0,0.0,0.0,0.0,0.0,0.0,0.0,0.0,0.0,0.0,0.0,0.0,0.0,0.0,0.0,0.0,0.0,0.0,0.0,0.0,0.0,0.0,0.0,0.0,0.0,0.0,0.0,0.0,0.0,0.0,0.0,0.0,0.0,0.0,0.0,0.0,0.0,0.0,0.0,0.0,0.0,0.0,0.0,0.0,0.0,0.0,0.0,0.0,0.0,0.0,0.0,0.0,0.0,0.0,0.0,0.0,0.0,0.0,0.0,0.0,0.0,0.0,0.0,0.0,0.0,0.0,0.0,0.0,0.0,0.0,0.0,0.0,0.0,0.0,0.0,0.0,0.0,0.0,0.0,0.0,0.0,0.0,0.0,0.0,0.0,0.0,0.0,0.0,0.0,0.0,0.0,0.0,0.0,0.0,0.0,0.0,0.0,0.0,0.0,0.0,0.0,0.0,0.0,0.0,0.0,0.0,0.0,0.0,0.0,0.0,0.0,0.0,0.0,0.0,0.0,0.0,0.0,0.0,0.0,0.0,0.0,0.0,0.0,0.0,0.0,0.0,0.0,0.0,0.0,0.0,0.0,0.0,0.0,0.0,0.0,0.0,0.0,0.0,0.0,0.0,0.0,0.0,0.0,0.0,0.0,0.0,0.0,0.0,0.0,0.0,0.0,0.0,0.0,0.0,0.0,0.0,0.0,0.0,0.0,0.0,0.0,0.0,0.0,0.0,0.0,0.0,0.0,0.0,0.0,0.0,0.0,0.0,0.0,0.0,0.0,0.0,0.0,0.0,0.0,0.0,0.0,0.0,0.0,0.0,0.0,0.0,0.0,0.0,0.0,0.0,0.0,0.0,0.0,0.0,0.0,0.0,0.0,0.0,0.0,0.0,0.0,0.0,0.0,0.0,0.0,0.0,0.0,0.0,0.0,0.0,0.0,0.0,0.0,0.0,0.0,0.0,0.0,0.0,0.0,0.0,0.0,0.0,0.0,0.0,0.0,0.0,0.0,0.0,0.0,0.0,0.0,0.0,0.0,0.0,0.0,0.0,0.0,0.0,0.0,0.0,0.0,0.0,0.0,0.0,0.0,0.0,0.0,0.0,0.0,0.0,0.0,0.0,0.0,0.0,0.0,0.0,0.0,0.0,0.0,0.0,0.0,0.0,0.0,0.0,0.0,0.0,0.0,0.0,0.0,0.0,0.0,0.0,0.0,0.0,0.0,0.0,0.0,0.0,0.0,0.0,0.0,0.0,0.0,0.0,0.0,0.0,0.0,0.0,0.0,0.0,0.0,0.0,0.0,0.0,0.0,0.0,0.0,0.0,0.0,0.0,0.0,0.0,0.0,0.0,0.0,0.0,0.0,0.0,0.0,0.0,0.0,0.0,-5.0039,0.0,0.0,0.0,0.0,0.0,0.0,0.0,0.0,0.0,0.0,0.0,0.0,0.0,0.0,0.0,0.0,0.0,0.0,0.0,0.0,0.0,0.0,0.0,0.0,0.0,0.0,0.0,0.0,0.0,0.0,0.0,0.0,0.0,0.0,0.0,0.0,0.0,0.0,0.0,0.0,0.0,0.0,0.0,0.0,0.0,0.0,0.0,0.0,0.0,0.0,0.0,0.0,0.0,0.0,0.0,0.0,0.0,0.0,0.0,0.0,0.0,0.0,0.0,0.0,0.0,0.0,0.0,0.0,0.0,0.0,0.0,0.0,0.0,0.0,0.0,0.0,0.0,0.0,0.0,0.0,0.0,0.0,0.0,0.0,0.0,0.0,0.0,0.0,0.0,0.0,0.0,0.0,0.0,0.0,0.0,0.0,0.0,0.0,0.0,0.0,0.0,0.0,0.0,0.0,0.0,0.0,0.0,0.0,0.0,0.0,-5.1387,-5.1387,-5.1387,-5.1016,-5.0195,0.0,0.0,0.0,0.0,0.0,0.0,0.0,0.0,0.0,0.0,0.0,0.0,0.0,0.0,0.0,0.0,0.0,0.0,0.0,0.0,0.0,0.0,0.0,0.0,0.0,0.0,0.0,0.0,0.0,0.0,0.0,0.0,0.0,0.0,0.0,0.0,0.0,0.0,0.0,0.0,0.0,0.0,0.0,0.0,0.0,0.0,0.0,0.0,0.0,0.0,0.0,0.0,0.0,0.0,0.0,0.0,0.0,0.0,0.0,0.0,0.0,0.0,0.0,0.0,0.0,0.0,0.0,0.0,0.0,0.0,0.0,0.0,0.0,0.0,0.0,0.0,0.0,0.0,0.0,0.0,0.0,0.0,0.0,0.0,0.0,0.0,0.0,0.0,0.0,0.0,0.0,0.0,0.0,0.0,0.0,0.0,0.0,0.0,0.0,0.0,0.0,0.0,0.0,0.0,0.0,0.0,0.0,0.0,0.0,0.0,0.0,0.0,-5.1992,-5.1483,-5.04,0.0,0.0,0.0,0.0,0.0,0.0,0.0,0.0,0.0,0.0,0.0,0.0,0.0,0.0,0.0,0.0,0.0,0.0,0.0,0.0,0.0,0.0,0.0,0.0,0.0,0.0,0.0,0.0,0.0,0.0,0.0,0.0,0.0,0.0,0.0,0.0,0.0,0.0,0.0,0.0,0.0,0.0,0.0,0.0,0.0,0.0,0.0,0.0,0.0,0.0,0.0,0.0,0.0,0.0,0.0,0.0,0.0,0.0,0.0,0.0,0.0,0.0,0.0,0.0,0.0,0.0,0.0,0.0,0.0,0.0,0.0,0.0,0.0,0.0,0.0,0.0,0.0,0.0,0.0,0.0,0.0,0.0,0.0,0.0,0.0,0.0,0.0,0.0,0.0,0.0,0.0,0.0,0.0,0.0,0.0,0.0,0.0,0.0,0.0,0.0,0.0,0.0,0.0,0.0,0.0,0.0,0.0,0.0,0.0,0.0,-5.2148,-5.3711,-5.375,0.0,-5.107,0.0,0.0,0.0,0.0,0.0,0.0,0.0,0.0,0.0,0.0,0.0,0.0,0.0,0.0,0.0,0.0,0.0,0.0,0.0,0.0,0.0,0.0,0.0,0.0,0.0,0.0,0.0,0.0,0.0,0.0,0.0,0.0,0.0,0.0,0.0,0.0,0.0,0.0,0.0,0.0,0.0,0.0,0.0,0.0,0.0,0.0,0.0,0.0,0.0,0.0,0.0,0.0,0.0,0.0,0.0,0.0,0.0,0.0,0.0,0.0,0.0,0.0,0.0,0.0,0.0,0.0,0.0,0.0,0.0,0.0,0.0,0.0,0.0,0.0,0.0,0.0,0.0,0.0,0.0,0.0,0.0,0.0,0.0,0.0,0.0,0.0,0.0,0.0,0.0,0.0,0.0,0.0,0.0,0.0,0.0,0.0,0.0,0.0,0.0,0.0,0.0,0.0,0.0,0.0,0.0,0.0,0.0,0.0,0.0,0.0,-5.345,-5.4746,-5.3769,-5.2563,0.0,0.0,0.0,0.0,0.0,0.0,0.0,0.0,0.0,0.0,0.0,0.0,0.0,0.0,0.0,0.0,0.0,0.0,0.0,0.0,0.0,0.0,0.0,0.0,0.0,0.0,0.0,0.0,0.0,0.0,0.0,0.0,0.0,0.0,0.0,0.0,0.0,0.0,0.0,0.0,0.0,0.0,0.0,0.0,0.0,0.0,0.0,0.0,0.0,0.0,0.0,0.0,0.0,0.0,0.0,0.0,0.0,0.0,0.0,0.0,0.0,0.0,0.0,0.0,0.0,0.0,0.0,0.0,0.0,0.0,0.0,0.0,0.0,0.0,0.0,0.0,0.0,0.0,0.0,0.0,0.0,0.0,0.0,0.0,0.0,0.0,0.0,0.0,0.0,0.0,0.0,0.0,0.0,0.0,0.0,0.0,0.0,0.0,0.0,0.0,0.0,0.0,0.0,0.0,0.0,0.0,0.0,0.0,0.0,0.0,-5.3667,-5.4379,-5.5447,-5.4156,-5.2633,-5.1085,0.0,0.0,0.0,0.0,0.0,0.0,0.0,0.0,0.0,0.0,0.0,0.0,0.0,0.0,0.0,0.0,0.0,0.0,0.0,0.0,0.0,0.0,0.0,0.0,0.0,0.0,0.0,0.0,0.0,0.0,0.0,0.0,0.0,0.0,0.0,0.0,0.0,0.0,0.0,0.0,0.0,0.0,0.0,0.0,0.0,0.0,0.0,0.0,0.0,0.0,0.0,0.0,0.0,0.0,0.0,0.0,0.0,0.0,0.0,0.0,0.0,0.0,0.0,0.0,0.0,0.0,0.0,0.0,0.0,0.0,0.0,0.0,0.0,0.0,0.0,0.0,0.0,0.0,0.0,0.0,0.0,0.0,0.0,0.0,0.0,0.0,0.0,0.0,0.0,0.0,0.0,0.0,0.0,0.0,0.0,0.0,0.0,0.0,0.0,0.0,0.0,0.0,0.0,0.0,0.0,0.0,0.0,0.0,-5.5755,-5.4551,-5.4643,-5.6333,-5.548,-5.372,0.0,0.0,0.0,0.0,0.0,0.0,0.0,0.0,0.0,0.0,0.0,0.0,0.0,0.0,0.0,0.0,0.0,0.0,0.0,0.0,0.0,0.0,0.0,0.0,0.0,0.0,0.0,0.0,0.0,0.0,0.0,0.0,0.0,0.0,0.0,0.0,0.0,0.0,0.0,0.0,0.0,0.0,0.0,0.0,0.0,0.0,0.0,0.0,0.0,0.0,0.0,0.0,0.0,0.0,0.0,0.0,0.0,0.0,0.0,0.0,0.0,0.0,0.0,0.0,0.0,0.0,0.0,0.0,0.0,0.0,0.0,0.0,0.0,0.0,0.0,0.0,0.0,0.0,0.0,0.0,0.0,0.0,0.0,0.0,0.0,0.0,0.0,0.0,0.0,0.0,0.0,0.0,0.0,0.0,0.0,0.0,0.0,0.0,0.0,0.0,0.0,0.0,0.0,0.0,0.0,0.0,0.0,0.0,0.0,-5.4407,-5.5125,-5.6549,-5.8599,-5.4811,-5.2312,0.0,0.0,0.0,0.0,0.0,0.0,0.0,0.0,0.0,0.0,0.0,0.0,0.0,0.0,0.0,0.0,0.0,0.0,0.0,0.0,0.0,0.0,0.0,0.0,0.0,0.0,0.0,0.0,0.0,0.0,0.0,0.0,0.0,0.0,0.0,0.0,0.0,0.0,0.0,0.0,0.0,0.0,0.0,0.0,0.0,0.0,0.0,0.0,0.0,0.0,0.0,0.0,0.0,0.0,0.0,0.0,0.0,0.0,0.0,0.0,0.0,0.0,0.0,0.0,0.0,0.0,0.0,0.0,0.0,0.0,0.0,0.0,0.0,0.0,0.0,0.0,0.0,0.0,0.0,0.0,0.0,0.0,0.0,0.0,0.0,0.0,0.0,0.0,0.0,0.0,0.0,0.0,0.0,0.0,0.0,0.0,0.0,0.0,0.0,0.0,0.0,0.0,0.0,0.0,0.0,0.0,0.0,0.0,0.0,-5.4383,0.0,-5.8184,-5.9088,-5.4878,-5.209,0.0,0.0,0.0,0.0,0.0,0.0,0.0,0.0,0.0,0.0,0.0,0.0,0.0,0.0,0.0,0.0,0.0,0.0,0.0,0.0,0.0,0.0,0.0,0.0,0.0,0.0,0.0,0.0,0.0,0.0,0.0,0.0,0.0,0.0,0.0,0.0,0.0,0.0,0.0,0.0,0.0,0.0,0.0,0.0,0.0,0.0,0.0,0.0,0.0,0.0,0.0,0.0,0.0,0.0,0.0,0.0,0.0,0.0,0.0,0.0,0.0,0.0,0.0,0.0,0.0,0.0,0.0,0.0,0.0,0.0,0.0,0.0,0.0,0.0,0.0,0.0,0.0,0.0,0.0,0.0,0.0,0.0,0.0,0.0,0.0,0.0,0.0,0.0,0.0,0.0,0.0,0.0,0.0,0.0,0.0,0.0,0.0,0.0,0.0,0.0,0.0,0.0,0.0,0.0,0.0,0.0,0.0,0.0,-5.2531,-5.6072,-5.8691,-5.9254,-5.7595,-5.5863,-5.3247,0.0,0.0,0.0,0.0,0.0,0.0,0.0,0.0,0.0,0.0,0.0,0.0,0.0,0.0,0.0,0.0,0.0,0.0,0.0,0.0,0.0,0.0,0.0,0.0,0.0,0.0,0.0,0.0,0.0,0.0,0.0,0.0,0.0,0.0,0.0,0.0,0.0,0.0,0.0,0.0,0.0,0.0,0.0,0.0,0.0,0.0,0.0,0.0,0.0,0.0,0.0,0.0,0.0,0.0,0.0,0.0,0.0,0.0,0.0,0.0,0.0,0.0,0.0,0.0,0.0,0.0,0.0,0.0,0.0,0.0,0.0,0.0,0.0,0.0,0.0,0.0,0.0,0.0,0.0,0.0,0.0,0.0,0.0,0.0,0.0,0.0,0.0,0.0,0.0,0.0,0.0,0.0,0.0,0.0,0.0,0.0,0.0,0.0,0.0,0.0,0.0,0.0,0.0,0.0,0.0,0.0,0.0,0.0,0.0,-5.5307,-5.7383,-5.9045,-6.0047,-5.5736,-5.2931,0.0,0.0,0.0,0.0,0.0,0.0,0.0,0.0,0.0,0.0,0.0,0.0,0.0,0.0,0.0,0.0,0.0,0.0,0.0,0.0,0.0,0.0,0.0,0.0,0.0,0.0,0.0,0.0,0.0,0.0,0.0,0.0,0.0,0.0,0.0,0.0,0.0,0.0,0.0,0.0,0.0,0.0,0.0,0.0,0.0,0.0,0.0,0.0,0.0,0.0,0.0,0.0,0.0,0.0,0.0,0.0,0.0,0.0,0.0,0.0,0.0,0.0,0.0,0.0,0.0,0.0,0.0,0.0,0.0,0.0,0.0,0.0,0.0,0.0,0.0,0.0,0.0,0.0,0.0,0.0,0.0,0.0,0.0,0.0,0.0,0.0,0.0,0.0,0.0,0.0,0.0,0.0,0.0,0.0,0.0,0.0,0.0,0.0,0.0,0.0,0.0,0.0,0.0,0.0,0.0,0.0,0.0,0.0,0.0,-5.6427,-5.8531,-6.0091,-6.0999,-5.6454,-5.3613,-5.2652,0.0,0.0,0.0,0.0,0.0,0.0,0.0,0.0,0.0,0.0,0.0,0.0,0.0,0.0,0.0,0.0,0.0,0.0,0.0,0.0,0.0,0.0,0.0,0.0,0.0,0.0,0.0,0.0,0.0,0.0,0.0,0.0,0.0,0.0,0.0,0.0,0.0,0.0,0.0,0.0,0.0,0.0,0.0,0.0,0.0,0.0,0.0,0.0,0.0,0.0,0.0,0.0,0.0,0.0,0.0,0.0,0.0,0.0,0.0,0.0,0.0,0.0,0.0,0.0,0.0,0.0,0.0,0.0,0.0,0.0,0.0,0.0,0.0,0.0,0.0,0.0,0.0,0.0,0.0,0.0,0.0,0.0,0.0,0.0,0.0,0.0,0.0,0.0,0.0,0.0,0.0,0.0,0.0,0.0,0.0,0.0,0.0,0.0,0.0,0.0,0.0,0.0,0.0,0.0,0.0,0.0,0.0,0.0,-5.8856,-6.1655,-6.2262,-6.0505,-5.7983,-5.5139,0.0,0.0,0.0,0.0,0.0,0.0,0.0,0.0,0.0,0.0,0.0,0.0,0.0,0.0,0.0,0.0,0.0,0.0,0.0,0.0,0.0,0.0,0.0,0.0,0.0,0.0,0.0,0.0,0.0,0.0,0.0,0.0,0.0,0.0,0.0,0.0,0.0,0.0,0.0,0.0,0.0,0.0,0.0,0.0,0.0,0.0,0.0,0.0,0.0,0.0,0.0,0.0,0.0,0.0,0.0,0.0,0.0,0.0,0.0,0.0,0.0,0.0,0.0,0.0,0.0,0.0,0.0,0.0,0.0,0.0,0.0,0.0,0.0,0.0,0.0,0.0,0.0,0.0,0.0,0.0,0.0,0.0,0.0,0.0,0.0,0.0,0.0,0.0,0.0,0.0,0.0,0.0,0.0,0.0,0.0,0.0,0.0,0.0,0.0,0.0,0.0,0.0,0.0,0.0,0.0,0.0,0.0,0.0,0.0,-5.9718,-6.2974,-6.4226,-6.3181,-5.9467,-5.6508,0.0,0.0,0.0,0.0,0.0,0.0,0.0,0.0,0.0,0.0,0.0,0.0,0.0,0.0,0.0,0.0,0.0,0.0,0.0,0.0,0.0,0.0,0.0,0.0,0.0,0.0,0.0,0.0,0.0,0.0,0.0,0.0,0.0,0.0,0.0,0.0,0.0,0.0,0.0,0.0,0.0,0.0,0.0,0.0,0.0,0.0,0.0,0.0,0.0,0.0,0.0,0.0,0.0,0.0,0.0,0.0,0.0,0.0,0.0,0.0,0.0,0.0,0.0,0.0,0.0,0.0,0.0,0.0,0.0,0.0,0.0,0.0,0.0,0.0,0.0,0.0,0.0,0.0,0.0,0.0,0.0,0.0,0.0,0.0,0.0,0.0,0.0,0.0,0.0,0.0,0.0,0.0,0.0,0.0,0.0,0.0,0.0,0.0,0.0,0.0,0.0,0.0,0.0,0.0,0.0,0.0,0.0,0.0,-5.8413,-6.0929,-6.3802,-6.4958,-6.4226,-6.1022,-5.789,0.0,0.0,0.0,0.0,0.0,0.0,0.0,0.0,0.0,0.0,0.0,0.0,0.0,0.0,0.0,0.0,0.0,0.0,0.0,0.0,0.0,0.0,0.0,0.0,0.0,0.0,0.0,0.0,0.0,0.0,0.0,0.0,0.0,0.0,0.0,0.0,0.0,0.0,0.0,0.0,0.0,0.0,0.0,0.0,0.0,0.0,0.0,0.0,0.0,0.0,0.0,0.0,0.0,0.0,0.0,0.0,0.0,0.0,0.0,0.0,0.0,0.0,0.0,0.0,0.0,0.0,0.0,0.0,0.0,0.0,0.0,0.0,0.0,0.0,0.0,0.0,0.0,0.0,0.0,0.0,0.0,0.0,0.0,0.0,0.0,0.0,0.0,0.0,0.0,0.0,0.0,0.0,0.0,0.0,0.0,0.0,0.0,0.0,0.0,0.0,0.0,0.0,0.0,0.0,0.0,0.0,0.0,0.0,-5.8968,-6.2243,-6.4235,-6.4872,-6.404,-6.2291,-5.9026,0.0,0.0,0.0,0.0,0.0,0.0,0.0,0.0,0.0,0.0,0.0,0.0,0.0,0.0,0.0,0.0,0.0,0.0,0.0,0.0,0.0,0.0,0.0,0.0,0.0,0.0,0.0,0.0,0.0,0.0,0.0,0.0,0.0,0.0,0.0,0.0,0.0,0.0,0.0,0.0,0.0,0.0,0.0,0.0,0.0,0.0,0.0,0.0,0.0,0.0,0.0,0.0,0.0,0.0,0.0,0.0,0.0,0.0,0.0,0.0,0.0,0.0,0.0,0.0,0.0,0.0,0.0,0.0,0.0,0.0,0.0,0.0,0.0,0.0,0.0,0.0,0.0,0.0,0.0,0.0,0.0,0.0,0.0,0.0,0.0,0.0,0.0,0.0,0.0,0.0,0.0,0.0,0.0,0.0,0.0,0.0,0.0,0.0,0.0,0.0,0.0,0.0,0.0,0.0,0.0,0.0,0.0,0.0,-5.9742,-6.2254,-6.4006,-6.4569,-6.3879,-6.1549,-5.8551,0.0,0.0,0.0,0.0,0.0,0.0,0.0,0.0,0.0,0.0,0.0,0.0,0.0,0.0,0.0,0.0,0.0,0.0,0.0,0.0,0.0,0.0,0.0,0.0,0.0,0.0,0.0,0.0,0.0,0.0,0.0,0.0,0.0,0.0,0.0,0.0,0.0,0.0,0.0,0.0,0.0,0.0,0.0,0.0,0.0,0.0,0.0,0.0,-5.146,0.0,0.0,0.0,0.0,0.0,0.0,0.0,0.0,0.0,0.0,0.0,0.0,0.0,0.0,0.0,0.0,0.0,0.0,0.0,0.0,0.0,0.0,0.0,0.0,0.0,0.0,0.0,0.0,0.0,0.0,0.0,0.0,0.0,0.0,0.0,0.0,0.0,0.0,0.0,0.0,0.0,0.0,0.0,0.0,0.0,0.0,0.0,0.0,0.0,0.0,0.0,0.0,0.0,0.0,0.0,0.0,0.0,0.0,0.0,-5.9446,-6.1828,-6.3429,-6.3867,-6.308,-6.1388,-5.8715,0.0,0.0,0.0,0.0,0.0,0.0,0.0,0.0,0.0,0.0,0.0,0.0,0.0,0.0,0.0,0.0,0.0,0.0,0.0,0.0,0.0,0.0,0.0,0.0,0.0,0.0,0.0,0.0,0.0,0.0,0.0,0.0,0.0,0.0,0.0,0.0,0.0,0.0,0.0,0.0,0.0,0.0,0.0,0.0,0.0,0.0,0.0,0.0,0.0,0.0,0.0,0.0,0.0,0.0,0.0,0.0,0.0,0.0,0.0,0.0,0.0,0.0,0.0,0.0,0.0,0.0,0.0,0.0,0.0,0.0,0.0,0.0,0.0,0.0,0.0,0.0,0.0,0.0,0.0,0.0,0.0,0.0,0.0,0.0,0.0,0.0,0.0,0.0,0.0,0.0,0.0,0.0,0.0,0.0,0.0,0.0,0.0,0.0,0.0,0.0,0.0,0.0,0.0,0.0,0.0,0.0,0.0,-5.6276,-5.872,-6.131,-6.2621,-6.2936,-6.2269,-6.1281,-5.8884,-5.4944,0.0,0.0,0.0,0.0,0.0,0.0,0.0,0.0,0.0,0.0,0.0,0.0,0.0,0.0,0.0,0.0,0.0,0.0,0.0,0.0,0.0,0.0,0.0,0.0,0.0,0.0,0.0,0.0,0.0,0.0,0.0,0.0,0.0,0.0,0.0,0.0,0.0,0.0,-4.6135,-4.8043,0.0,0.0,0.0,0.0,0.0,0.0,0.0,0.0,-5.1461,0.0,0.0,0.0,0.0,0.0,0.0,0.0,0.0,0.0,0.0,0.0,0.0,0.0,0.0,0.0,0.0,0.0,0.0,0.0,0.0,0.0,0.0,0.0,0.0,0.0,0.0,0.0,0.0,0.0,0.0,0.0,0.0,0.0,0.0,0.0,0.0,0.0,0.0,0.0,0.0,0.0,0.0,0.0,0.0,0.0,0.0,0.0,0.0,0.0,0.0,0.0,0.0,0.0,0.0,0.0,0.0,-5.4839,-5.5976,-5.8089,-6.1285,-6.1621,-6.1882,-6.2063,-6.0591,-5.8124,-5.4806,0.0,0.0,0.0,0.0,0.0,0.0,0.0,0.0,0.0,0.0,0.0,0.0,0.0,0.0,0.0,0.0,0.0,0.0,0.0,0.0,0.0,0.0,0.0,0.0,0.0,0.0,0.0,0.0,0.0,0.0,0.0,0.0,0.0,0.0,0.0,0.0,0.0,0.0,0.0,-4.9802,-5.0563,0.0,0.0,0.0,0.0,0.0,0.0,0.0,0.0,-5.1973,0.0,0.0,0.0,0.0,0.0,0.0,0.0,0.0,0.0,0.0,0.0,0.0,0.0,0.0,0.0,0.0,0.0,0.0,0.0,0.0,0.0,0.0,0.0,0.0,0.0,0.0,0.0,0.0,0.0,0.0,0.0,0.0,0.0,0.0,0.0,0.0,0.0,0.0,0.0,0.0,0.0,0.0,0.0,0.0,0.0,0.0,0.0,0.0,0.0,0.0,0.0,0.0,0.0,0.0,0.0,-5.3561,-5.5778,-5.7922,-5.9919,-6.0234,-6.059,-6.0998,-5.9409,-5.7284,0.0,0.0,0.0,0.0,0.0,0.0,0.0,0.0,0.0,0.0,0.0,0.0,0.0,0.0,0.0,0.0,0.0,0.0,0.0,0.0,0.0,0.0,0.0,0.0,0.0,0.0,0.0,0.0,0.0,0.0,0.0,0.0,0.0,0.0,0.0,0.0,0.0,0.0,0.0,0.0,-5.0522,-5.1402,-5.3033,0.0,0.0,0.0,0.0,0.0,0.0,-5.2514,-5.2234,0.0,0.0,0.0,0.0,0.0,0.0,0.0,0.0,0.0,0.0,0.0,0.0,0.0,0.0,0.0,0.0,0.0,0.0,0.0,0.0,0.0,0.0,0.0,0.0,0.0,0.0,0.0,0.0,0.0,0.0,0.0,0.0,0.0,0.0,0.0,0.0,0.0,0.0,0.0,0.0,0.0,0.0,0.0,0.0,0.0,0.0,0.0,0.0,0.0,0.0,0.0,0.0,0.0,0.0,0.0,-5.2266,-5.5294,-5.7466,-5.8639,-5.9065,-5.9475,-5.9912,-5.8181,-5.6284,0.0,0.0,0.0,0.0,0.0,0.0,0.0,0.0,0.0,0.0,0.0,0.0,0.0,0.0,0.0,0.0,0.0,0.0,0.0,0.0,0.0,0.0,0.0,0.0,0.0,0.0,0.0,0.0,0.0,0.0,0.0,0.0,0.0,0.0,0.0,0.0,0.0,0.0,0.0,0.0,0.0,-5.2111,-5.3679,-5.3371,0.0,0.0,0.0,0.0,-5.2083,-5.2702,0.0,0.0,0.0,0.0,0.0,0.0,0.0,0.0,0.0,0.0,0.0,0.0,0.0,0.0,0.0,0.0,0.0,0.0,0.0,0.0,0.0,0.0,0.0,0.0,0.0,0.0,0.0,0.0,0.0,0.0,0.0,0.0,0.0,0.0,0.0,0.0,0.0,0.0,0.0,0.0,0.0,0.0,0.0,0.0,0.0,0.0,0.0,0.0,0.0,0.0,0.0,0.0,0.0,0.0,0.0,0.0,-5.21,-5.3935,-5.609,-5.8559,-5.8736,-5.9028,-5.942,-5.7168,-5.4969,0.0,0.0,0.0,0.0,0.0,0.0,0.0,0.0,0.0,0.0,0.0,0.0,0.0,0.0,0.0,0.0,0.0,0.0,0.0,0.0,0.0,0.0,0.0,0.0,0.0,0.0,0.0,0.0,0.0,0.0,0.0,0.0,0.0,0.0,0.0,0.0,0.0,0.0,0.0,0.0,0.0,-5.2226,-5.227,-5.2197,-5.1832,0.0,0.0,-5.249,-5.2597,-5.4103,0.0,0.0,0.0,0.0,0.0,0.0,0.0,0.0,0.0,0.0,0.0,0.0,0.0,0.0,0.0,0.0,0.0,0.0,0.0,0.0,0.0,0.0,0.0,0.0,0.0,0.0,0.0,0.0,0.0,0.0,0.0,0.0,0.0,0.0,0.0,0.0,0.0,0.0,0.0,0.0,0.0,0.0,0.0,0.0,0.0,0.0,0.0,0.0,0.0,0.0,0.0,0.0,0.0,0.0,0.0,-4.8356,-5.038,-5.3139,-5.5351,-5.6937,-5.7454,-5.7898,-5.8349,-5.5921,-5.4031,0.0,0.0,0.0,0.0,0.0,0.0,0.0,0.0,0.0,0.0,0.0,0.0,0.0,0.0,0.0,0.0,0.0,0.0,0.0,0.0,0.0,0.0,0.0,0.0,0.0,0.0,0.0,0.0,0.0,0.0,0.0,0.0,0.0,0.0,0.0,0.0,0.0,0.0,0.0,0.0,0.0,0.0,-5.3203,-5.3353,0.0,0.0,0.0,-5.2948,-5.2968,0.0,0.0,0.0,0.0,0.0,0.0,0.0,0.0,0.0,0.0,0.0,0.0,0.0,0.0,0.0,0.0,0.0,0.0,0.0,0.0,0.0,0.0,0.0,0.0,0.0,0.0,0.0,0.0,0.0,0.0,0.0,0.0,0.0,0.0,0.0,0.0,0.0,0.0,0.0,0.0,0.0,0.0,0.0,0.0,0.0,0.0,0.0,0.0,0.0,0.0,0.0,0.0,0.0,0.0,0.0,0.0,0.0,-4.8767,-5.2425,-5.461,-5.515,-5.592,-5.6407,-5.6545,-5.4301,0.0,0.0,0.0,0.0,0.0,0.0,0.0,0.0,0.0,0.0,0.0,0.0,0.0,0.0,0.0,0.0,0.0,0.0,0.0,0.0,0.0,0.0,0.0,0.0,0.0,0.0,0.0,-3.6434,0.0,0.0,0.0,0.0,0.0,0.0,0.0,0.0,0.0,0.0,0.0,0.0,0.0,0.0,-5.1604,-5.3076,-5.3762,-5.4158,0.0,0.0,-5.3143,-5.2959,-5.3674,-5.3522,0.0,0.0,0.0,0.0,0.0,0.0,0.0,0.0,0.0,0.0,0.0,0.0,0.0,0.0,0.0,0.0,0.0,0.0,0.0,0.0,0.0,0.0,0.0,0.0,0.0,0.0,0.0,0.0,0.0,0.0,0.0,0.0,0.0,0.0,0.0,0.0,0.0,0.0,0.0,0.0,0.0,0.0,0.0,0.0,0.0,0.0,0.0,0.0,0.0,0.0,0.0,0.0,0.0,0.0,-4.587,-4.801,-5.1674,-5.3591,-5.3672,-5.4364,-5.4437,-5.3753,-5.2048,-5.0385,0.0,0.0,0.0,0.0,0.0,0.0,0.0,0.0,0.0,0.0,0.0,0.0,0.0,0.0,0.0,0.0,0.0,0.0,0.0,0.0,0.0,0.0,0.0,0.0,0.0,0.0,0.0,0.0,0.0,0.0,0.0,0.0,0.0,0.0,0.0,0.0,0.0,0.0,0.0,0.0,0.0,-5.019,-5.0201,-5.1967,-5.358,0.0,-5.3763,-5.2959,-5.2271,-5.4018,-5.3939,-4.948,0.0,0.0,0.0,0.0,0.0,0.0,0.0,0.0,0.0,0.0,0.0,0.0,0.0,0.0,0.0,0.0,0.0,0.0,0.0,0.0,0.0,0.0,0.0,0.0,0.0,0.0,0.0,0.0,0.0,0.0,0.0,0.0,0.0,0.0,0.0,0.0,0.0,0.0,0.0,0.0,0.0,0.0,0.0,0.0,0.0,0.0,0.0,0.0,0.0,0.0,0.0,0.0,0.0,-4.4321,-4.6543,-4.9774,-5.1607,-5.2097,-5.2846,-5.3107,-5.2809,-5.1235,-4.9603,0.0,0.0,0.0,0.0,0.0,0.0,0.0,0.0,0.0,0.0,0.0,0.0,0.0,0.0,0.0,0.0,0.0,0.0,0.0,0.0,0.0,0.0,0.0,0.0,0.0,0.0,0.0,0.0,-3.9504,-3.9681,-3.9673,0.0,0.0,0.0,0.0,0.0,0.0,0.0,0.0,0.0,0.0,-4.9881,-5.1149,-5.2022,0.0,0.0,-5.2749,-5.1825,-5.1586,-5.1866,-5.1389,-4.9121,-4.811,0.0,0.0,0.0,0.0,0.0,0.0,0.0,0.0,0.0,0.0,0.0,0.0,0.0,0.0,0.0,0.0,0.0,0.0,0.0,0.0,0.0,0.0,0.0,0.0,0.0,0.0,0.0,0.0,0.0,0.0,0.0,0.0,0.0,0.0,0.0,0.0,0.0,0.0,0.0,0.0,0.0,0.0,0.0,0.0,0.0,0.0,0.0,0.0,0.0,0.0,0.0,0.0,-4.2594,-4.458,-4.7476,-4.9193,-4.9693,-5.0495,-5.0762,-5.0521,-4.9664,-4.8487,0.0,0.0,0.0,0.0,0.0,0.0,0.0,0.0,0.0,0.0,0.0,0.0,0.0,0.0,0.0,0.0,0.0,0.0,0.0,0.0,0.0,0.0,0.0,0.0,0.0,0.0,0.0,0.0,-4.0214,-4.002,-3.9791,0.0,0.0,0.0,0.0,0.0,0.0,0.0,0.0,0.0,0.0,-4.9031,-5.0973,-5.1387,-5.1833,-5.2644,-5.1458,-5.0484,-5.0514,-5.0044,-4.9333,-4.838,0.0,0.0,0.0,0.0,0.0,0.0,0.0,0.0,0.0,0.0,0.0,0.0,0.0,0.0,0.0,0.0,0.0,0.0,0.0,0.0,0.0,0.0,0.0,0.0,0.0,0.0,0.0,-4.0591,0.0,0.0,-3.9269,0.0,0.0,0.0,0.0,0.0,0.0,0.0,0.0,0.0,0.0,0.0,0.0,0.0,0.0,0.0,0.0,0.0,0.0,0.0,0.0,0.0,0.0,-4.0683,-4.2094,-4.5002,-4.6397,-4.641,-4.7052,-4.7139,-4.6499,-4.7068,-4.6731,-4.5142,0.0,0.0,0.0,0.0,0.0,0.0,0.0,0.0,0.0,0.0,0.0,0.0,0.0,0.0,0.0,0.0,0.0,0.0,0.0,0.0,0.0,0.0,0.0,0.0,0.0,0.0,-4.1102,-4.051,-3.98,0.0,0.0,0.0,0.0,0.0,0.0,0.0,0.0,0.0,-4.3261,-4.541,-4.7403,-4.889,-4.9656,-5.0356,-5.1194,-4.9969,-4.8952,-4.9032,-4.8941,-4.8413,0.0,0.0,0.0,0.0,0.0,0.0,0.0,0.0,0.0,0.0,0.0,0.0,0.0,0.0,0.0,0.0,0.0,0.0,0.0,0.0,0.0,0.0,0.0,0.0,0.0,0.0,0.0,-4.0904,-4.048,0.0,0.0,0.0,0.0,0.0,0.0,0.0,0.0,0.0,0.0,0.0,-3.73,-3.7911,0.0,0.0,0.0,0.0,0.0,0.0,0.0,0.0,0.0,0.0,0.0,0.0,-4.0151,-4.1981,-4.4369,-4.5779,-4.6208,-4.6449,-4.6449,-4.6224,-4.6002,-4.4735,-4.2394,0.0,0.0,0.0,0.0,0.0,0.0,0.0,0.0,0.0,0.0,0.0,0.0,0.0,0.0,0.0,0.0,0.0,0.0,0.0,0.0,0.0,0.0,0.0,0.0,0.0,-4.0273,0.0,0.0,0.0,0.0,0.0,0.0,0.0,0.0,0.0,0.0,-4.1627,-4.2506,-4.3995,-4.5703,-4.7141,-4.8156,-4.8451,-4.8886,0.0,0.0,0.0,0.0,0.0,0.0,0.0,0.0,0.0,0.0,0.0,0.0,0.0,0.0,-4.6794,-4.6029,-4.5461,-4.5168,-4.5443,0.0,0.0,0.0,0.0,0.0,0.0,0.0,0.0,0.0,0.0,0.0,0.0,0.0,0.0,-4.0226,-3.9765,-3.9368,0.0,0.0,0.0,0.0,0.0,0.0,0.0,0.0,-3.6618,-3.6903,-3.7079,-3.7413,-3.7769,-3.806,-3.7452,-3.7115,0.0,0.0,0.0,0.0,0.0,0.0,0.0,0.0,-3.9168,-4.0751,-4.2589,-4.3858,-4.4517,-4.4512,-4.4512,-4.4532,-4.4138,-4.2952,-4.0989,-4.0398,-3.9156,0.0,0.0,0.0,0.0,0.0,0.0,0.0,0.0,0.0,0.0,0.0,0.0,0.0,0.0,0.0,0.0,0.0,0.0,0.0,0.0,0.0,0.0,0.0,-3.917,0.0,0.0,0.0,0.0,0.0,0.0,0.0,0.0,0.0,-4.0211,-4.1476,-4.2629,-4.3573,-4.5013,-4.623,-4.6968,0.0,0.0,0.0,0.0,0.0,0.0,0.0,-4.5534,-4.5043,-4.5179,-4.5552,-4.6196,-4.7026,-4.764,-4.76,0.0,0.0,-4.6789,-4.6388,-4.6173,-4.6654,-4.6929,-4.7021,-4.6783,-4.6891,-4.6879,0.0,0.0,0.0,0.0,-3.7248,0.0,0.0,0.0,-3.8843,-3.8858,0.0,-3.7621,0.0,0.0,0.0,0.0,-3.7029,-3.6447,0.0,0.0,-3.7411,-3.7746,-3.7365,-3.8288,-3.8803,-3.8805,-3.8171,-3.7263,-3.6279,-3.6401,0.0,0.0,0.0,0.0,0.0,0.0,-3.7699,-3.8487,-3.9841,-4.0778,-4.146,-4.149,-4.1437,-4.146,-4.1612,-4.1432,-4.0912,-4.0891,-3.9942,-3.7843,-3.7828,0.0,0.0,0.0,0.0,0.0,0.0,0.0,0.0,0.0,0.0,0.0,0.0,0.0,0.0,0.0,0.0,0.0,0.0,0.0,0.0,-3.7841,0.0,0.0,0.0,0.0,0.0,0.0,0.0,0.0,0.0,-3.7888,-3.8734,-4.0759,-4.2122,-4.2029,0.0,0.0,0.0,0.0,-4.4732,-4.5643,-4.5128,-4.4733,-4.4784,-4.528,-4.5703,-4.5686,0.0,0.0,-4.5821,-4.5737,-4.5773,-4.5614,-4.5615,-4.6137,-4.8002,-4.7176,-4.6685,-4.7876,-4.7626,-4.7443,-4.8067,-4.816,-4.8089,-3.8417,0.0,0.0,0.0,0.0,-3.8949,-3.9664,-4.0701,-4.0701,-4.0219,-3.9394,-3.9051,0.0,0.0,0.0,0.0,0.0,0.0,-3.5353,-3.5734,-3.6065,-3.6424,-3.6688,-3.6952,-3.7553,-3.8265,-3.7616,-3.7367,-3.7414,-3.6612,-3.5469,-3.4051,0.0,0.0,0.0,0.0,-3.7281,-3.9023,-3.9963,-4.0726,-4.1369,-4.1422,-4.1422,-4.1422,-4.0971,-4.0726,-4.0678,-4.0239,-3.9501,-3.8389,-3.7963,0.0,0.0,0.0,0.0,0.0,0.0,0.0,0.0,0.0,0.0,0.0,0.0,0.0,0.0,0.0,0.0,0.0,0.0,0.0,-3.6965,-3.6673,-3.6387,0.0,0.0,0.0,0.0,0.0,0.0,0.0,0.0,0.0,-3.8434,-4.0134,-4.1449,0.0,0.0,-4.2766,-4.2976,-4.3789,-4.4665,-4.5424,-4.5874,0.0,-4.6887,-4.6261,-4.5703,-4.5703,-4.5889,-4.594,-4.5754,-4.6126,-4.6455,-4.6414,-4.5982,-4.598,-4.6871,-4.7148,-4.7208,-4.7563,-4.7795,-4.8012,-4.8251,-4.8324,-4.8289,-3.9017,-3.9494,-3.8641,-3.8389,-3.8601,-3.8839,-3.9508,-4.0465,-4.0465,-4.008,-3.9356,-3.891,-3.7732,-3.6108,-3.6045,0.0,0.0,0.0,-3.5295,-3.5868,-3.5868,-3.6044,-3.6392,-3.6417,-3.6769,-3.7389,-3.68,-3.653,-3.6668,-3.5694,-3.4459,-3.2983,0.0,-3.4076,-3.4723,-3.5376,-3.6589,-3.8333,-3.9047,-3.9765,-4.0591,-4.0606,-4.039,-3.9984,-3.9563,-3.9409,-3.952,-3.9434,-3.928,-3.9015,-3.8435,-3.7478,0.0,0.0,0.0,0.0,0.0,0.0,0.0,0.0,0.0,0.0,0.0,-3.1854,-3.1618,0.0,0.0,0.0,-3.3532,-3.5273,-3.6526,-3.5844,0.0,0.0,0.0,0.0,0.0,0.0,0.0,-3.7244,-3.7629,-3.7943,-3.8382,-3.9523,-4.0475,-4.0914,-4.1247,-4.1478,-4.1462,0.0,-4.3234,-4.4006,-4.4543,-4.5172,-4.5942,-4.56,-4.5404,-4.6046,-4.6126,-4.6143,-4.6143,-4.6295,-4.6346,-4.6278,-4.5754,-4.5371,-4.573,-4.6255,-4.686,-4.732,-4.7879,-4.8287,-4.8324,-4.8324,-4.8324,-3.9697,-3.9521,-3.7513,-3.7008,-3.7425,-3.7927,-3.8442,-3.8982,-3.8982,-3.8969,-3.8844,-3.7825,-3.7033,-3.6405,-3.5328,0.0,-3.5571,-3.5558,-3.5881,-3.6417,-3.6417,-3.6417,-3.6417,-3.6417,-3.638,-3.6329,-3.578,-3.5194,-3.4638,-3.4148,-3.3345,-3.2332,-3.3568,-3.4227,-3.4289,-3.4873,-3.5701,-3.6722,-3.7376,-3.8159,-3.9104,-3.9141,-3.8657,-3.7715,-3.7677,-3.7677,-3.7715,-3.8429,-3.9013,-3.9275,-3.8763,-3.7823,-3.6399,0.0,0.0,0.0,0.0,0.0,0.0,0.0,0.0,0.0,0.0,0.0,0.0,0.0,0.0,-3.0235,-3.2176,0.0,-3.6307,-3.5244,0.0,0.0,0.0,-3.4173,-3.5504,-3.5654,-3.6133,-3.7345,0.0,0.0,-3.8467,-3.902,-3.9388,-3.9388,-4.008,-4.0588,-4.0603,-4.0752,-4.1073,-4.2011,-4.2173,-4.2541,-4.3649,-4.4113,-4.4893,-4.6178,-4.6616,-4.6527,-4.6447,-4.6024,-4.5652,-4.5602,-4.5043,-4.4615,-4.4598,-4.5186,-4.5858,-4.6977,-4.7736,-4.821,-4.8287,-4.8324,-4.8288,-3.9697,-3.9647,-3.9132,-3.8981,-3.9107,-3.9233,-3.9371,-3.9496,-3.9496,-3.927,-3.8843,-3.8642,-3.7914,-3.6996,-3.6329,-3.6044,-3.6169,-3.6169,-3.6279,-3.6405,-3.6417,-3.6417,-3.6417,-3.6417,-3.6144,-3.5742,-3.5571,-3.5006,-3.4123,-3.396,-3.3558,-3.2935,-3.3212,-3.3567,-3.39,-3.4073,-3.4883,-3.6328,-3.6482,-3.6696,-3.6916,-3.6954,-3.6838,-3.6604,-3.6565,-3.6565,-3.6604,-3.6757,-3.6943,-3.6978,-3.6004,-3.5032,-3.4172,-3.1957,0.0,0.0,0.0,0.0,0.0,0.0,0.0,0.0,0.0,-2.9984,-2.8797,0.0,-2.9481,0.0,-3.1457,-3.3333,-3.555,-3.4538,0.0,0.0,-3.5544,-3.5534,-3.6806,-3.6956,-3.727,-3.8063,-3.8287,-3.8586,-3.911,-3.932,-3.9388,-3.9388,-3.9574,-3.9702,-3.9737,-4.0804,-4.1603,-4.1844,-4.2766,-4.3747,-4.3831,-4.4214,-4.455,-4.5031,-4.5156,-4.5139,-4.5111,-4.4987,-4.4857,-4.484,-4.475,-4.4615,-4.4598,-4.5089,-4.552,-4.594,-4.6842,-4.7756,-4.8191,-4.8287,-4.8103,-3.9697,-3.9697,-3.9697,-3.9697,-3.9697,-3.9697,-3.9697,-3.9697,-3.9697,-3.9521,-3.922,-3.902,-3.8241,-3.7174,-3.686,-3.6644,-3.6417,-3.6417,-3.6417,-3.6417,-3.6417,-3.6417,-3.6417,-3.6417,-3.6069,-3.5495,-3.5257,-3.4693,-3.3922,-3.3646,-3.3382,-3.3124,-3.3124,-3.3233,-3.3475,-3.3504,-3.417,-3.5507,-3.5974,-3.6198,-3.6198,-3.6198,-3.5876,-3.5141,-3.5141,-3.5019,-3.4775,-3.4761,-3.4997,-3.5435,-3.4588,-3.3887,-3.3491,-3.1668,-3.0325,0.0,0.0,0.0,0.0,0.0,0.0,0.0,0.0,0.0,0.0,0.0,-2.9304,-3.0498,-3.164,-3.2908,-3.4421,-3.4539,-3.5026,-3.6134,-3.6283,-3.6641,-3.7345,-3.7659,-3.7988,-3.8347,-3.8661,-3.899,-3.9328,-3.9388,-3.9388,-3.9388,-3.9388,-3.9388,-3.9439,-4.0198,-4.0751,-4.0766,-4.15,-4.2238,-4.2548,-4.3362,-4.3919,-4.4048,-4.4355,-4.4598,-4.4598,-4.4598,-4.4598,-4.4598,-4.4598,-4.4598,-4.4598,-4.4841,-4.5083,-4.5137,-4.5752,-4.6607,-4.7229,-4.729,-4.7058,-3.9697,-3.9697,-3.9697,-3.9697,-3.9697,-3.9697,-3.9697,-3.9697,-3.9697,-3.9697,-3.9659,-3.912,-3.8328,-3.7299,-3.7211,-3.692,-3.643,-3.6417,-3.6417,-3.6417,-3.6417,-3.6417,-3.6417,-3.6342,-3.5968,-3.537,-3.4876,-3.4336,-3.3784,-3.3319,-3.3124,-3.3124,-3.3124,-3.3124,-3.3124,-3.3124,-3.3556,-3.4457,-3.5359,-3.5814,-3.5814,-3.5814,-3.5089,-3.3672,-3.3605,-3.3356,-3.283,-3.2791,-3.3195,-3.4077,-3.3553,-3.3211,-3.3184,-3.1968,-3.0949,0.0,-2.9713,0.0,0.0,0.0,0.0,0.0,0.0,0.0,0.0,-2.8454,-2.9326,-3.1266,-3.1993,-3.259,-3.323,-3.4623,-3.5511,-3.5619,-3.6514,-3.7128,-3.7233,-3.7844,-3.8257,-3.8257,-3.8871,-3.929,-3.926,-3.9349,-3.9388,-3.9388,-3.9388,-3.9388,-3.9388,-3.9439,-3.9541,-3.9388,-3.9388,-4.0066,-4.0848,-4.2158,-4.3188,-4.3336,-4.4035,-4.457,-4.4598,-4.4496,-4.4429,-4.4384,-4.4276,-4.4242,-4.4293,-4.4259,-4.4259,-4.4096,-4.4443,-4.503,-4.5873,-4.6111,-4.5883,-3.9697,-3.9697,-3.9697,-3.9697,-3.9697,-3.9697,-3.9697,-3.9697,-3.9697,-3.9697,-3.9647,-3.9107,-3.8504,-3.7826,-3.7387,-3.692,-3.6417,-3.6417,-3.6417,-3.6417,-3.6417,-3.6417,-3.638,-3.5906,-3.537,-3.4818,-3.4324,-3.3771,-3.3244,-3.3174,-3.3124,-3.3124,-3.3124,-3.3124,-3.3124,0.0,0.0,0.0,-3.3586,-3.3658,-3.3713,-3.3713,-3.3305,-3.2548,-3.2523,0.0,-3.1737,-3.1699,-3.1779,-3.1983,-3.1496,0.0,0.0,0.0,0.0,0.0,0.0,0.0,0.0,0.0,0.0,0.0,-2.8122,-2.768,-2.7014,-2.806,-2.9327,-3.0516,-3.1143,-3.1796,-3.2651,-3.3012,-3.3447,-3.4016,-3.4889,-3.5668,-3.6212,-3.703,-3.7599,-3.7614,-3.8182,-3.8586,-3.8631,-3.9065,-3.9373,-3.9388,-3.9388,-3.9388,-3.9388,-3.9388,-3.9388,-3.9388,-3.9358,-3.9687,-4.0554,-4.1545,-4.2437,-4.3152,-4.4035,-4.4491,-4.4479,-4.3995,-4.3639,-4.3623,-4.3132,-4.2777,-4.2787,-4.2743,-4.2797,-4.2719,-4.2727,-4.3226,-4.4928,-4.5619,-4.5718,-3.9697,-3.9697,-3.9697,-3.9697,0.0,-3.9697,-3.9697,-3.9697,-3.9697,-3.9697,-3.9647,-3.912,-3.8555,-3.7977,-3.7425,-3.6933,-3.6417,-3.6417,-3.6417,-3.6417,-3.6417,-3.6417,-3.6392,-3.5793,-3.5207,-3.4713,-3.4161,-3.3621,-3.3149,-3.3124,-3.3124,-3.3124,-3.3124,-3.3124,-3.3111,-3.2792,-3.2792,-3.3124,-3.3124,-3.3124,-3.3124,-3.3124,-3.2679,-3.1851,-3.1813,0.0,0.0,0.0,0.0,0.0,0.0,0.0,0.0,0.0,0.0,-2.895,-2.8674,-2.8386,-2.8122,-2.8097,-2.8084,-2.8109,-2.836,-2.8273,-2.7708,-2.8699,-2.9543,-3.0071,-3.0572,-3.1073,-3.1566,-3.2305,-3.2938,-3.3311,-3.4196,-3.5003,-3.5467,-3.6201,-3.6744,-3.7022,-3.7793,-3.8377,-3.8377,-3.899,-3.9358,-3.9388,-3.9388,-3.9388,-3.9388,-3.9388,-3.9388,-3.9373,-3.9095,-3.9028,-3.9531,-4.0381,-4.1082,-4.1634,-4.2641,-4.3354,-4.3481,-4.3132,-4.2861,-4.2828,-4.254,-4.2303,-4.2303,-4.2303,-4.2202,-4.1882,-4.1961,-4.2165,-4.2992,-4.3471,-4.3876,-3.9697,-3.9697,-3.9697,-3.9697,-3.9697,-3.9697,-3.9697,-3.9697,-3.9697,0.0,0.0,-3.917,-3.8555,-3.799,-3.7425,-3.6933,-3.6417,-3.6417,-3.6417,-3.6417,-3.6417,-3.6367,-3.6194,-3.5655,-3.5069,-3.4517,-3.401,-3.352,-3.3136,-3.3124,-3.3124,-3.3124,-3.3124,-3.3074,-3.2905,-3.2453,-3.2403,-3.2797,-3.281,-3.2792,-3.2822,-3.2822,-3.2277,-3.1286,-3.1248,-3.0796,-2.9829,-2.9779,-2.9779,-2.9779,-2.9779,-2.9779,-2.9779,-2.9779,-2.9779,-2.9779,-2.9779,-2.9578,-2.9076,-2.9038,-2.8888,-2.8436,-2.8825,-2.9051,-2.9051,-2.9515,-2.9779,-2.9779,-3.0206,-3.0457,-3.0482,-3.1602,-3.2411,-3.245,-3.3374,-3.4112,-3.454,-3.5237,-3.5808,-3.6354,-3.7419,-3.8212,-3.8212,-3.8916,-3.9388,-3.9388,-3.9388,-3.9388,-3.9388,-3.9388,-3.9388,-3.9343,-3.8916,-3.8457,-3.8531,-3.9123,-3.9719,-4.0089,-4.1222,-4.2109,-4.2243,-4.2185,-4.21,-4.21,-4.2033,-4.1863,-4.188,-4.1796,-4.1721,-4.1136,-4.1399,-4.1543,-4.0993,-4.115,-4.1778,-3.9697,-3.9697,-3.9697,-3.9697,-3.9697,-3.9697,-3.9697,-3.9697,-3.9697,-3.9697,-3.9659,-3.912,-3.8555,-3.7977,-3.7437,-3.6933,-3.6417,-3.6417,-3.6417,-3.6417,-3.6417,-3.6107,-3.5596,-3.5044,-3.4505,-3.3997,-3.3458,-3.3199,-3.3136,-3.3124,-3.3124,-3.3124,-3.3124,-3.283,-3.2365,-3.2252,-3.2026,-3.1637,-3.1625,-3.1625,-3.1625,-3.1637,-3.1336,-3.0758,-3.0733,-3.0444,-2.9817,-2.9779,-2.9779,-2.9779,-2.9779,-2.9779,-2.9779,-2.974,-2.9779,-2.9779,-2.9779,-2.9754,-2.9666,-2.9679,-2.9641,-2.9578,-2.9628,-2.9679,-2.9679,-2.9741,-2.9779,-2.9792,-2.988,-2.9905,-2.9905,-3.02,-3.0379,-3.0393,-3.1145,-3.1994,-3.2866,-3.3739,-3.4646,-3.5517,-3.6761,-3.7569,-3.7704,-3.8661,-3.9388,-3.9388,-3.9388,-3.9388,-3.9388,-3.9388,-3.9388,-3.9313,-3.8841,-3.8437,-3.8307,-3.8598,-3.9046,-3.9825,-4.0625,-4.1472,-4.2047,-4.1694,-4.1373,-4.1356,-4.0959,-4.0587,-4.0519,-4.0417,-4.0485,-4.035,-4.0501,-4.0415,-4.0279,-4.0385,-4.072,-3.9697,-3.9697,-3.9697,-3.9697,-3.9697,-3.9697,-3.9697,-3.9697,-3.9697,-3.9697,-3.9597,-3.8781,-3.8253,-3.7939,-3.7111,-3.6644,-3.6417,-3.6417,-3.6417,-3.6417,-3.6417,-3.6069,-3.5483,-3.4931,-3.4437,-3.3884,-3.3332,-3.3124,-3.3124,-3.3124,-3.3124,-3.3099,-3.2767,-3.2466,-3.2202,-3.1637,-3.1223,-3.0984,-3.1235,-3.1386,-3.1386,-3.1386,-3.1135,-3.0633,-3.062,-3.0357,-2.9817,-2.9779,-2.9534,-2.8897,-2.9495,-2.9248,-2.8091,-2.8581,-2.8858,-2.8858,-2.8846,-2.9145,-2.974,-2.9779,-2.9779,-2.9779,-2.9779,-2.9779,-2.9779,-2.9779,-2.9779,-2.9779,-2.9779,-2.9779,-2.9779,-2.9779,-2.9779,-2.9779,-3.0203,-3.0846,-3.1756,-3.2678,-3.3587,-3.4645,-3.6278,-3.7389,-3.7404,-3.8571,-3.9373,-3.9388,-3.9388,-3.9388,-3.9388,-3.9388,-3.9275,-3.8901,-3.8302,-3.7749,-3.7454,-3.746,-3.7904,-3.8631,-3.9434,-4.0221,-4.0912,-4.0764,-4.0646,-4.0595,-4.029,-4.0146,-4.0113,-4.0113,-4.0113,-4.0113,-4.0113,-4.0113,-4.0113,-4.0113,-4.0392,-3.9697,-3.9697,-3.9697,-3.9697,-3.9697,-3.9697,-3.9697,-3.9697,-3.9697,-3.9697,-3.9534,-3.8504,-3.8002,-3.7889,-3.686,-3.6417,-3.6358,-3.6061,-3.6121,-3.631,-3.575,-3.5262,-3.4879,-3.4479,-3.3888,-3.3357,-3.3127,-3.3124,-3.3124,-3.3124,-3.3124,-3.3074,-3.2629,-3.229,-3.2001,-3.121,-3.0683,-3.047,-3.0821,-3.1035,-3.1022,-3.1035,-3.0834,-3.047,-3.0432,-3.0088,-2.9481,-2.9404,-2.9028,-2.8215,-2.874,-2.8371,-2.7017,-2.74,-2.7723,-2.7735,-2.7735,-2.8227,-2.9287,-2.9675,-2.9779,-2.9779,-2.9779,-2.9779,-2.9779,-2.9779,-2.9779,-2.9779,-2.9779,-2.9779,-2.9779,-2.9779,-2.9779,-2.9779,-2.9779,-3.0254,-3.1119,-3.2141,-3.3191,-3.4255,-3.6217,-3.7644,-3.7838,-3.8661,-3.9343,-3.9388,-3.9388,-3.9388,-3.9388,-3.9388,-3.911,-3.8332,-3.7719,-3.7255,-3.6615,-3.6444,-3.6816,-3.7618,-3.8266,-3.9127,-3.9848,-4.0146,-4.0113,-4.0163,-4.0146,-4.0113,-4.0113,-4.0113,-4.0113,-4.0113,-4.0113,-4.0113,-4.0113,-4.0113,-4.0286,-3.9697,-3.9697,-3.9645,-3.9697,-3.9697,-3.9697,-3.9697,-3.9645,-3.9697,-3.9697,-3.9417,-3.8504,-3.7891,-3.7852,-3.6812,-3.631,-3.6168,-3.5126,-3.5174,-3.5906,-3.3787,-3.2834,-3.3158,-3.2968,-3.2361,-3.1692,-3.2494,-3.2896,-3.2884,-3.2982,-3.3038,-3.3124,-3.3018,-3.2369,-3.1533,-3.1308,-3.0781,-2.9892,-2.9917,-2.9942,-2.9942,-2.9942,-2.9917,-2.988,-2.9867,-2.9376,-2.8307,-2.8255,-2.8215,-2.8056,-2.7302,-2.7168,-2.7695,-2.7128,-2.6637,-2.6648,-2.6637,-2.7128,-2.8227,-2.9236,-2.974,-2.9779,-2.9779,-2.9779,-2.9779,-2.9779,-2.9779,-2.9779,-2.9779,-2.9779,-2.9779,-2.9779,-2.9779,-2.9804,-2.9829,-3.0177,-3.1136,-3.2581,-3.3856,-3.4792,-3.6731,-3.8287,-3.8317,-3.8945,-3.9358,-3.9388,-3.9388,-3.9388,-3.9388,-3.9388,-3.899,-3.7958,-3.7434,-3.715,-3.657,-3.5956,-3.6428,-3.7504,-3.7851,-3.8613,-3.9575,-4.0113,-4.0113,-4.0113,-4.0113,-4.0113,-4.0113,-4.0113,-4.0113,-4.0113,-4.0113,-4.0113,-4.0113,-4.0113,-4.0311,-3.8413,-3.8413,-3.8413,-3.8908,-3.9633,-3.9697,-3.9193,-3.8413,-3.8413,-3.7914,-3.7015,-3.5996,-3.5997,-3.672,-3.5685,-3.4812,-3.3946,-3.3392,-3.3441,-3.3885,-3.2783,-3.2112,-3.1731,-3.1651,-3.1123,-3.0238,-3.0687,-3.0911,-3.0911,-3.0923,-3.0911,-3.0876,-3.0617,-3.0032,-2.9338,-2.9009,-2.8504,-2.7874,-2.7839,-2.7839,-2.7931,-2.849,-2.8819,-2.8727,-2.8199,-2.7666,-2.7209,-2.7157,-2.6871,-2.6232,-2.6337,-2.6047,-2.521,-2.5336,-2.5504,-2.5504,-2.6141,-2.6964,-2.8044,-2.8557,-2.9067,-2.974,-2.9779,-2.9779,-2.9779,-2.9779,-2.9779,-2.9779,-2.9779,-2.9779,-2.9779,-2.9779,-2.9779,-2.9829,-3.008,-3.0413,-3.0829,-3.2209,-3.3506,-3.4579,-3.6273,-3.778,-3.834,-3.899,-3.9379,-3.9388,-3.9388,-3.9388,-3.9388,-3.9388,-3.9005,-3.8197,-3.7689,-3.6985,-3.6207,-3.6088,-3.6593,-3.7421,-3.7822,-3.8362,-3.9653,-4.0113,-4.0113,-4.0113,-4.0113,-4.0113,-4.0113,-4.0113,-4.0113,-4.0113,-4.0113,-4.0113,-4.0113,-4.0113,-4.0229,-3.7518,-3.7465,-3.7091,-3.7542,-3.8477,-3.8477,-3.7873,-3.6972,-3.693,-3.6271,-3.5242,-3.4246,-3.4177,-3.4653,-3.4117,-3.3254,-3.2331,-3.1938,-3.1977,-3.2129,-3.1571,-3.0928,-3.042,-3.0343,-2.9848,-2.9079,-2.9269,-2.9442,-2.9396,-2.9396,-2.9396,-2.934,-2.9003,-2.8511,-2.7951,-2.7461,-2.7046,-2.658,-2.6483,-2.6483,-2.6595,-2.6942,-2.7348,-2.7562,-2.6924,-2.6348,-2.6058,-2.6047,-2.5672,-2.4872,-2.5316,-2.4967,-2.3724,-2.4039,-2.4339,-2.4414,-2.542,-2.6513,-2.7562,-2.7936,-2.8597,-2.9611,-2.9779,-2.9779,-2.9779,-2.9779,-2.9779,-2.9779,-2.9779,-2.9779,-2.9779,-2.9779,-2.9854,-3.0005,-3.0394,-3.0645,-3.0901,-3.2358,-3.3914,-3.4668,-3.6542,-3.7777,-3.8558,-3.9125,-3.9388,-3.9388,-3.9388,-3.9388,-3.9388,-3.9373,-3.917,-3.8527,-3.8108,-3.7419,-3.6133,-3.5893,-3.6669,-3.7457,-3.7822,-3.8318,-3.9705,-4.0045,-4.0113,-4.0113,-4.0113,-4.0113,-4.0113,-4.0113,-4.0113,-4.0113,-4.0113,-4.0113,-4.0113,-4.0113,-4.0113,-3.7518,-3.7252,-3.6011,-3.5508,-3.5508,-3.5629,-3.5508,-3.5398,-3.5409,-3.5288,-3.4946,-3.4086,-3.3079,-3.2104,-3.2226,-3.228,-3.2079,-3.0916,-3.0979,-3.1735,-2.9702,-2.8733,-2.9073,-2.8922,-2.846,-2.782,-2.8634,-2.9131,-2.9212,-2.9258,-2.9396,-2.9304,-2.9122,-2.8734,-2.7866,-2.759,-2.7327,-2.6379,-2.6246,-2.6359,-2.6265,-2.542,-2.5493,-2.6348,-2.6431,-2.585,-2.4999,-2.4872,-2.483,-2.4798,-2.393,-2.3724,-2.4414,-2.3714,-2.3266,-2.3387,-2.4296,-2.542,-2.6637,-2.7614,-2.8597,-2.9573,-2.9779,-2.9779,-2.9779,-2.9779,-2.9779,-2.9779,-2.9829,-2.9854,-2.9842,-2.9892,-3.0055,-3.0457,-3.0568,-3.0896,-3.1323,-3.3397,-3.5079,-3.569,-3.7502,-3.8911,-3.9284,-3.9394,-3.9388,-3.9388,-3.9388,-3.9388,-3.9388,-3.9388,-3.9125,-3.8796,-3.8706,-3.8616,-3.6866,-3.6297,-3.6561,-3.7361,-3.8081,-3.8334,-3.9305,-4.0113,-4.007,-4.0045,-3.9927,-3.9927,-4.0045,-4.0113,-4.0113,-4.0113,-4.0113,-4.0113,-4.0113,-4.0113,-4.0113,-3.5551,-3.467,-3.4125,-3.4414,-3.53,-3.5288,-3.4803,-3.3901,-3.3901,-3.336,-3.2442,-3.1515,-3.085,-3.0379,-2.9901,-2.9765,-2.9713,-2.9207,-2.9303,-2.9608,-2.8698,-2.8085,-2.7712,-2.7632,-2.7232,-2.6587,-2.6839,-2.702,-2.702,-2.703,-2.702,-2.703,-2.702,-2.6691,-2.6146,-2.5786,-2.5334,-2.4833,-2.4471,-2.4307,-2.4392,-2.393,-2.393,-2.4264,-2.436,-2.4135,-2.3714,-2.3714,-2.3714,-2.3714,-2.3299,-2.3299,-2.3637,-2.3343,-2.3474,-2.4125,-2.4575,-2.5577,-2.7238,-2.7855,-2.8597,-2.9624,-2.9779,-2.9779,-2.9779,-2.9779,-2.9779,-2.9842,-3.0143,-3.0294,-3.0319,-3.0319,-3.0394,-3.0645,-3.1223,-3.1675,-3.2047,-3.3171,-3.4388,-3.5896,-3.7953,-3.9337,-3.9388,-3.9388,-3.9388,-3.9388,-3.9388,-3.9388,-3.9388,-3.9388,-3.9254,-3.9065,-3.8856,-3.8542,-3.7988,-3.7165,-3.7094,-3.7776,-3.8383,-3.8743,-3.9497,-3.9506,-3.9437,-3.9437,-3.9437,-3.9411,-3.9437,-3.9825,-3.9876,-4.0113,-4.0113,-4.0113,-4.0113,-4.0113,-4.0113,-3.3744,-3.2473,-3.2369,-3.2975,-3.3821,-3.3866,-3.3314,-3.2426,-3.2369,-3.1825,-3.0829,-2.9961,-2.958,-2.9489,-2.8672,-2.8301,-2.8301,-2.8291,-2.8291,-2.8301,-2.8301,-2.7842,-2.7129,-2.7012,-2.6522,-2.5801,-2.5684,-2.5684,-2.5684,-2.5684,-2.5684,-2.5732,-2.5684,-2.5508,-2.5116,-2.4629,-2.4219,-2.3789,-2.3359,-2.3144,-2.3101,-2.3101,-2.3101,-2.3091,-2.3101,-2.3101,-2.3101,-2.3101,-2.3101,-2.3101,-2.3101,-2.3101,-2.3101,-2.3101,-2.3584,-2.4585,-2.4414,-2.541,-2.7591,-2.7752,-2.8227,-2.9624,-2.9779,-2.9779,-2.9804,-2.9942,-3.0043,-3.0168,-3.0532,-3.0871,-3.0909,-3.1022,-3.1122,-3.1198,-3.1788,-3.2303,-3.252,-3.3498,-3.5075,-3.7017,-3.8479,-3.9301,-3.9388,-3.9388,-3.9388,-3.9388,-3.9388,-3.9388,-3.9388,-3.9388,-3.9388,-3.9358,-3.905,-3.8886,-3.8542,-3.8033,-3.7428,-3.7904,-3.846,-3.893,-3.9121,-3.899,-3.8859,-3.8843,-3.8772,-3.8745,-3.8951,-3.9385,-3.9731,-3.9995,-4.0113,-4.0113,-4.0113,-4.0113,-4.0113,-3.2264,-3.1112,-3.0947,-3.1112,-3.1276,-3.1344,-3.1064,-3.1112,-3.1064,-3.1064,-3.0781,-2.9961,-2.958,-2.9394,-2.8682,-2.8301,-2.8301,-2.8301,-2.8301,-2.8301,-2.8301,-2.7861,-2.7109,-2.7031,-2.6572,-2.5713,-2.5684,-2.5684,-2.5684,-2.5684,-2.5684,-2.5684,-2.5684,-2.5537,-2.5088,-2.4697,-2.4248,-2.3848,-2.3428,-2.314,-2.3101,-2.3101,-2.3101,-2.3101,-2.3101,-2.3101,-2.3101,-2.3101,-2.3101,-2.3101,-2.3101,-2.3101,-2.3101,-2.3101,-2.3584,-2.4414,-2.3844,-2.4914,-2.747,-2.7279,-2.7787,-2.9326,-2.9779,-2.9829,-2.9955,-3.0281,-3.0557,-3.0683,-3.1072,-3.1399,-3.1474,-3.1851,-3.2114,-3.219,-3.224,-3.2516,-3.3238,-3.4898,-3.693,-3.8568,-3.925,-3.9388,-3.9388,-3.9388,-3.9388,-3.9388,-3.9388,-3.9388,-3.9388,-3.9388,-3.9388,-3.9388,-3.9269,-3.9149,-3.9014,-3.8831,-3.8231,-3.7941,-3.8433,-3.8854,-3.8857,-3.8774,-3.8391,-3.8286,-3.7917,-3.7889,-3.8525,-3.8968,-3.9358,-3.9636,-3.9825,-4.0045,-4.0113,-4.0113,-4.0113,-3.1325,-3.0947,-3.0898,-3.0898,-3.0898,-3.0898,-3.0898,-3.0898,-3.0898,-3.0898,-3.0732,-2.9961,-2.958,-2.9375,-2.8682,-2.8301,-2.8301,-2.8301,-2.8301,-2.8301,-2.8301,-2.7998,-2.749,-2.7148,-2.6572,-2.581,-2.5684,-2.5684,-2.5684,-2.5684,-2.5684,-2.5684,-2.5684,-2.5615,-2.5508,-2.5088,-2.4648,-2.4219,-2.3809,-2.3457,-2.313,-2.3101,-2.3101,-2.3101,-2.3101,-2.3101,-2.3101,-2.3101,-2.3101,-2.3101,-2.3101,-2.3101,-2.3101,-2.3101,-2.3637,-2.4585,-2.45,-2.5326,-2.7591,-2.7855,-2.8159,-2.9456,-2.9792,-3.0005,-3.0294,-3.0532,-3.0809,-3.1122,-3.1637,-3.1964,-3.2051,-3.2478,-3.2616,-3.2265,-3.2566,-3.2872,-3.3407,-3.4952,-3.6643,-3.8069,-3.8943,-3.9352,-3.9388,-3.9388,-3.9388,-3.9388,-3.9388,-3.9388,-3.9388,-3.9388,-3.9388,-3.9388,-3.9388,-3.9388,-3.9239,-3.9089,-3.8772,-3.8403,-3.8646,-3.8778,-3.8738,-3.8418,-3.8041,-3.7524,-3.7191,-3.7322,-3.7962,-3.8414,-3.8745,-3.9262,-3.9558,-3.9782,-4.002,-4.0096,-4.007,-3.0898,-3.0898,-3.0898,-3.0898,-3.0898,-3.0898,-3.0898,-3.0898,-3.0898,-3.0898,-3.0713,-2.9961,-2.958,-2.9394,-2.8672,-2.831,-2.8301,-2.8301,-2.8301,-2.8301,-2.8301,-2.8066,-2.7669,-2.7051,-2.6445,-2.581,-2.5684,-2.5684,-2.5684,-2.5684,-2.5684,-2.5684,-2.5684,-2.5674,-2.5645,-2.5303,-2.4959,-2.4609,-2.4082,-2.3662,-2.3408,-2.3179,-2.3101,-2.3101,-2.3101,-2.3101,-2.3101,-2.3101,-2.3101,-2.3101,-2.3101,-2.3101,-2.3101,-2.3135,-2.3584,-2.4457,-2.4585,-2.5241,-2.7631,-2.7695,-2.8239,-2.9442,-2.998,-3.0231,-3.058,-3.0871,-3.1386,-3.1687,-3.2215,-3.2541,-3.2604,-3.283,-3.288,-3.2591,-3.283,-3.3458,-3.4137,-3.5386,-3.6852,-3.8144,-3.9017,-3.9301,-3.9388,-3.9388,-3.9388,-3.9388,-3.9388,-3.9388,-3.9388,-3.9388,-3.9388,-3.9388,-3.9388,-3.9388,-3.9388,-3.9298,-3.923,-3.9048,-3.8965,-3.888,-3.8764,-3.8136,-3.7638,-3.6739,-3.6212,-3.6569,-3.716,-3.7512,-3.7873,-3.8509,-3.9086,-3.9358,-3.9558,-3.9978,-4.007,-3.0898,-3.0898,-3.0898,-3.0898,-3.0898,-3.0898,-3.0898,-3.0898,-3.0898,-3.0898,-3.0703,-2.9951,-2.958,-2.9385,-2.8672,-2.8301,-2.8301,-2.8301,-2.8301,-2.8301,-2.8271,-2.8047,-2.751,-2.6875,-2.6289,-2.5752,-2.5684,-2.5684,-2.5684,-2.5684,-2.5684,-2.5684,-2.5684,-2.5684,-2.5625,-2.5312,-2.5155,-2.4959,-2.4297,-2.3916,-2.375,-2.3408,-2.313,-2.311,-2.3101,-2.3101,-2.3101,-2.3101,-2.3101,-2.3101,-2.3101,-2.3101,-2.3101,-2.3144,-2.379,-2.4745,-2.3844,-2.5241,-2.7145,-2.7557,-2.7824,-2.9708,-3.0369,-3.0683,-3.0934,-3.1574,-3.2077,-3.2252,-3.2717,-3.3061,-3.3061,-3.3099,-3.3086,-3.3111,-3.3086,-3.3911,-3.5774,-3.6158,-3.7098,-3.8708,-3.9388,-3.9388,-3.9388,-3.9388,-3.9388,-3.9388,-3.9388,-3.9388,-3.9388,-3.9388,-3.9388,-3.9388,-3.9388,-3.9388,-3.9388,-3.9373,-3.932,-3.9247,-3.9132,-3.8959,-3.8668,-3.8015,-3.7471,-3.6546,-3.5881,-3.6175,-3.6414,-3.6892,-3.7207,-3.7658,-3.8173,-3.8635,-3.9113,-3.9568,-3.9927,-3.0898,-3.0898,-3.0898,-3.0898,-3.0898,-3.0898,-3.0898,-3.0898,-3.0898,-3.0898,-3.0703,-2.9951,-2.958,-2.9473,-2.8682,-2.8301,-2.8301,-2.8301,-2.8301,-2.8301,-2.8301,-2.7861,-2.7305,-2.6973,-2.6455,-2.5801,-2.5703,-2.5684,-2.5684,-2.5684,-2.5684,-2.5684,-2.5684,-2.5684,-2.5645,-2.5596,-2.5381,-2.5155,-2.494,-2.4385,-2.3867,-2.3691,-2.3457,-2.312,-2.3101,-2.3101,-2.3101,-2.3101,-2.3101,-2.3101,-2.3101,-2.3101,-2.3178,-2.3844,-2.4435,-2.4754,-2.5411,-2.6235,-2.7696,-2.8221,-2.8922,-3.0181,-3.0884,-3.1361,-3.1763,-3.2026,-3.2428,-3.2717,-3.3061,-3.3124,-3.3124,-3.3124,-3.3124,-3.3124,-3.3124,-3.3898,-3.5574,-3.6277,-3.7046,-3.8929,-3.9337,-3.9388,-3.9388,-3.9388,-3.9388,-3.9388,-3.9388,-3.9388,-3.9388,-3.9388,-3.9388,-3.9388,-3.9388,-3.9388,-3.9388,-3.9388,-3.9373,-3.9394,-3.9232,-3.9018,-3.8599,-3.7945,-3.7541,-3.7038,-3.6484,-3.6554,-3.6522,-3.6703,-3.6894,-3.7123,-3.7596,-3.8209,-3.8712,-3.9139,-3.9558,-3.0898,-3.0898,-3.0898,-3.0898,-3.0898,-3.0898,-3.0898,-3.0898,-3.0898,-3.0898,-3.0693,-2.9951,-2.958,-2.9482,-2.8682,-2.8301,-2.8301,-2.8301,-2.8301,-2.8301,-2.8301,-2.792,-2.7393,-2.7139,-2.666,-2.6064,-2.5771,-2.5693,-2.5684,-2.5684,-2.5684,-2.5684,-2.5684,-2.5684,-2.5684,-2.5674,-2.5577,-2.5361,-2.5176,-2.4832,-2.4365,-2.3955,-2.3691,-2.3398,-2.3218,-2.3101,-2.3101,-2.3101,-2.3101,-2.3101,-2.3101,-2.3101,-2.3222,-2.4178,-2.4871,-2.5114,-2.6176,-2.7364,-2.8557,-2.9129,-2.9791,-3.0767,-3.1424,-3.1838,-3.2164,-3.2403,-3.278,-3.3048,-3.3124,-3.3124,-3.3124,-3.3124,-3.3124,-3.3124,-3.3124,-3.3771,-3.544,-3.5934,-3.6916,-3.8242,-3.9104,-3.9388,-3.9388,-3.9388,-3.9388,-3.9388,-3.9388,-3.9388,-3.9388,-3.9388,-3.9388,-3.9388,-3.9388,-3.9388,-3.9388,-3.9388,-3.9388,-3.9424,-3.9364,-3.9155,-3.8706,-3.8093,-3.7808,-3.7509,-3.712,-3.6888,-3.6893,-3.6844,-3.6854,-3.712,-3.7451,-3.7787,-3.8302,-3.8707,-3.9133,-3.0898,-3.0898,-3.0898,-3.0898,-3.0898,-3.0898,-3.0898,-3.0898,-3.0898,-3.0898,-3.0703,-2.9951,-2.959,-2.9567,-2.8691,-2.8301,-2.8301,-2.8301,-2.8301,-2.8301,-2.8271,-2.8066,-2.7725,-2.7217,-2.6777,-2.6318,-2.5937,-2.5723,-2.5684,-2.5684,-2.5684,-2.5684,-2.5684,-2.5684,-2.5684,-2.5684,-2.5684,-2.5635,-2.5371,-2.5174,-2.491,-2.4375,-2.4033,-2.3838,-2.3584,-2.3383,-2.3344,-2.3305,-2.3296,-2.3247,-2.3198,-2.3247,-2.3403,-2.4341,-2.5101,-2.572,-2.6691,-2.8011,-2.9378,-2.9726,-3.0319,-3.1302,-3.1989,-3.229,-3.2441,-3.2754,-3.3061,-3.3111,-3.3124,-3.3124,-3.3124,-3.3124,-3.3124,-3.3124,-3.3124,-3.3598,-3.4428,-3.5507,-3.6604,-3.7663,-3.8745,-3.9301,-3.9388,-3.9388,-3.9388,-3.9388,-3.9388,-3.9388,-3.9388,-3.9388,-3.9388,-3.9388,-3.9388,-3.9388,-3.9388,-3.9388,-3.9388,-3.9388,-3.9388,-3.9224,-3.8975,-3.8512,-3.8227,-3.7943,-3.7764,-3.7614,-3.7533,-3.7387,-3.7181,-3.7074,-3.7361,-3.7639,-3.7935,-3.8321,-3.871,-3.0898,-3.0898,-3.0898,-3.0898,-3.0898,-3.0898,-3.0898,-3.0898,-3.0898,-3.0879,-3.0684,-2.9941,-2.958,-2.9502,-2.8701,-2.8301,-2.8301,-2.8301,-2.8301,-2.8301,-2.8301,-2.8262,-2.7978,-2.7393,-2.6807,-2.6396,-2.5908,-2.5703,-2.5684,-2.5684,-2.5684,-2.5684,-2.5684,-2.5684,-2.5684,-2.5684,-2.5684,-2.5664,-2.5615,-2.5391,-2.5137,-2.493,-2.4551,-2.4277,-2.4141,-2.4131,-2.4095,-2.4141,-2.4141,-2.4027,-2.3867,-2.3818,-2.4175,-2.5115,-2.58,-2.6205,-2.7031,-2.8205,-2.9374,-3.0027,-3.0755,-3.1784,-3.2309,-3.2893,-3.2893,-3.2968,-3.3124,-3.3124,-3.3124,-3.3136,-3.3187,-3.3136,-3.3162,-3.3174,-3.3149,-3.3197,-3.3658,-3.5102,-3.6579,-3.7625,-3.8671,-3.9388,-3.9388,-3.9388,-3.9388,-3.9388,-3.9388,-3.9388,-3.9388,-3.9388,-3.9388,-3.9388,-3.9388,-3.9388,-3.9388,-3.9388,-3.9388,-3.9388,-3.9388,-3.9373,-3.9125,-3.902,-3.8766,-3.8631,-3.8527,-3.8377,-3.8197,-3.7823,-3.7558,-3.7432,-3.7368,-3.7744,-3.8105,-3.8246,-3.8559,-3.0898,-3.0898,-3.0898,-3.0898,-3.0898,-3.0898,-3.0898,-3.0898,-3.0898,-3.0762,-3.0459,-2.9844,-2.9463,-2.9219,-2.8613,-2.8301,-2.8301,-2.8301,-2.8301,-2.8301,-2.8301,-2.8301,-2.8115,-2.748,-2.6865,-2.6592,-2.5976,-2.5713,-2.5684,-2.5684,-2.5684,-2.5684,-2.5684,-2.5684,-2.5684,-2.5684,-2.5684,-2.5684,-2.5684,-2.5605,-2.541,-2.5156,-2.4853,-2.4502,-2.4424,-2.4424,-2.4394,-2.4404,-2.4531,-2.4609,-2.4521,-2.4375,-2.4579,-2.5457,-2.6128,-2.6623,-2.7522,-2.8454,-2.9387,-2.9815,-3.0399,-3.1644,-3.2049,-3.255,-3.2896,-3.3124,-3.3124,-3.3124,-3.3149,-3.3199,-3.3395,-3.3212,-3.3224,-3.337,-3.3232,-3.3149,-3.3441,-3.4925,-3.6369,-3.7252,-3.8383,-3.9104,-3.9388,-3.9388,-3.9388,-3.9388,-3.9388,-3.9388,-3.9388,-3.9388,-3.9388,-3.9388,-3.9388,-3.9388,-3.9388,-3.9388,-3.9388,-3.9388,-3.9388,-3.9388,-3.9269,-3.9284,-3.9313,-3.9155,-3.8945,-3.902,-3.8826,-3.8422,-3.8093,-3.7978,-3.8015,-3.8205,-3.8223,-3.8159,-3.8668,-3.0898,-3.0898,-3.0898,-3.0898,-3.0898,-3.0898,-3.0898,-3.0879,-3.081,-3.0547,-3.0156,-2.9697,-2.9238,-2.8896,-2.8506,-2.831,-2.8301,-2.8301,-2.8301,-2.8301,-2.8301,-2.8301,-2.8086,-2.748,-2.6992,-2.6914,-2.6083,-2.5713,-2.5684,-2.5684,-2.5684,-2.5684,-2.5684,-2.5684,-2.5684,-2.5684,-2.5684,-2.5684,-2.5684,-2.5674,-2.5615,-2.5371,-2.5039,-2.4824,-2.4746,-2.4746,-2.4756,-2.4766,-2.4824,-2.5137,-2.5166,-2.4971,-2.496,-2.5406,-2.6196,-2.6667,-2.7395,-2.8109,-2.8831,-2.9329,-2.9954,-3.1045,-3.1545,-3.2008,-3.284,-3.3124,-3.3124,-3.3174,-3.3237,-3.3432,-3.3796,-3.3709,-3.3684,-3.3847,-3.3596,-3.3382,-3.3695,-3.5054,-3.6075,-3.6526,-3.7776,-3.8782,-3.9228,-3.9388,-3.9388,-3.9403,-3.9418,-3.9433,-3.9448,-3.9433,-3.9463,-3.9403,-3.9388,-3.9388,-3.9388,-3.9388,-3.9388,-3.9361,-3.9382,-3.9388,-3.9388,-3.9388,-3.9388,-3.9388,-3.9284,-3.932,-3.9305,-3.9029,-3.8796,-3.8616,-3.8617,-3.8736,-3.8504,-3.8126,-3.8767,-3.0898,-3.0898,-3.0898,-3.0898,-3.0898,-3.0898,-3.0898,-3.082,-3.0508,-3.0283,-3.0088,-2.9385,-2.9023,-2.8799,-2.8476,-2.8301,-2.8301,-2.8301,-2.8301,-2.8301,-2.8301,-2.8301,-2.8125,-2.7432,-2.7041,-2.6787,-2.6122,-2.5693,-2.5684,-2.5684,-2.5684,-2.5684,-2.5684,-2.5684,-2.5684,-2.5684,-2.5684,-2.5684,-2.5684,-2.5684,-2.5645,-2.5577,-2.5527,-2.5333,-2.5313,-2.5333,-2.5391,-2.543,-2.5508,-2.5567,-2.5586,-2.5518,-2.5449,-2.566,-2.5853,-2.6046,-2.6438,-2.7228,-2.8017,-2.8947,-2.9897,-3.1078,-3.1965,-3.2612,-3.3025,-3.3174,-3.3262,-3.3332,-3.3558,-3.3834,-3.3884,-3.4135,-3.4424,-3.4525,-3.4449,-3.4336,-3.4591,-3.5284,-3.6163,-3.6359,-3.7388,-3.8529,-3.9106,-3.9549,-3.9768,-3.9783,-3.9702,-3.9798,-3.9858,-3.9753,-3.9612,-3.9508,-3.9388,-3.9388,-3.9388,-3.9388,-3.9403,-3.9333,-3.9333,-3.9388,-3.9388,-3.9388,-3.9388,-3.9388,-3.9424,-3.9415,-3.943,-3.9481,-3.9448,-3.9289,-3.9243,-3.9212,-3.8947,-3.8702,-3.8877,-3.0898,-3.0898,-3.0898,-3.0898,-3.0898,-3.0898,-3.0898,-3.082,-3.04,-3.0068,-2.9736,-2.9209,-2.8789,-2.8594,-2.8408,-2.8301,-2.8301,-2.8301,-2.8301,-2.8301,-2.8301,-2.8301,-2.8193,-2.7412,-2.709,-2.6777,-2.6132,-2.5693,-2.5684,-2.5684,-2.5684,-2.5684,-2.5684,-2.5684,-2.5684,-2.5684,-2.5684,-2.5684,-2.5684,-2.5684,-2.5684,-2.5684,-2.5684,-2.5684,-2.5684,-2.5684,-2.5684,-2.5684,-2.5674,-2.5674,-2.5674,-2.5684,-2.5684,-2.5684,-2.5684,-2.5781,-2.6294,-2.6849,-2.7673,-2.8716,-2.9909,-3.1045,-3.1877,-3.2426,-3.2971,-3.3332,-3.3583,-3.3897,-3.4085,-3.4449,-3.4763,-3.4776,-3.4806,-3.4994,-3.4893,-3.4743,-3.4828,-3.5251,-3.57,-3.637,-3.795,-3.8981,-3.9381,-3.9784,-4.007,-4.0127,-4.0068,-4.0142,-4.0262,-4.0247,-4.0157,-4.0069,-3.995,-3.958,-3.9417,-3.9217,-3.9343,-3.9298,-3.9336,-3.943,-3.9478,-3.9523,-3.9448,-3.9388,-3.9445,-3.9481,-3.9737,-3.9879,-3.99,-3.9829,-3.957,-3.9361,-3.9364,-3.9373,-3.9388,-3.0898,-3.0898,-3.0898,-3.0898,-3.0898,-3.0898,-3.0898,-3.0781,-3.0283,-2.9883,-2.9531,-2.9023,-2.8594,-2.8369,-2.8301,-2.8301,-2.8301,-2.8301,-2.8301,-2.8301,-2.8301,-2.8301,-2.8076,-2.7607,-2.7129,-2.6894,-2.6318,-2.5771,-2.5684,-2.5684,-2.5684,-2.5684,-2.5684,-2.5684,-2.5684,-2.5684,-2.5684,-2.5684,-2.5684,-2.5684,-2.5684,-2.5684,-2.5684,-2.5684,-2.5684,-2.5684,-2.5684,-2.5684,-2.5684,-2.5684,-2.5684,-2.5684,-2.5684,-2.5684,-2.5684,-2.5917,-2.6897,-2.7447,-2.7898,-2.9131,-3.0361,-3.1178,-3.1564,-3.2355,-3.3021,-3.3784,-3.4223,-3.4593,-3.4818,-3.4956,-3.5232,-3.5265,-3.5328,-3.5445,-3.5366,-3.509,-3.519,-3.5444,-3.5742,-3.6836,-3.8491,-3.9254,-3.9517,-4.0315,-4.0704,-4.0756,-4.0696,-4.0741,-4.0846,-4.0995,-4.0965,-4.0868,-4.0581,-3.9958,-3.9537,-3.8972,-3.9122,-3.93,-3.9422,-3.954,-3.9639,-3.9738,-3.9664,-3.9568,-3.9388,-3.9481,-3.9864,-4.0041,-3.9809,-3.9646,-3.9574,-3.9466,-3.9424,-3.9388,-3.9388,-3.0898,-3.0898,-3.0898,-3.0898,-3.0898,-3.0898,-3.0879,-3.0762,-3.001,-2.9629,-2.9463,-2.876,-2.8369,-2.831,-2.8301,-2.8301,-2.8301,-2.8301,-2.8301,-2.8301,-2.8301,-2.8301,-2.8232,-2.7885,-2.7363,-2.707,-2.6572,-2.6113,-2.5859,-2.5771,-2.5684,-2.5684,-2.5684,-2.5684,-2.5684,-2.5684,-2.5684,-2.5684,-2.5684,-2.5684,-2.5684,-2.5684,-2.5684,-2.5684,-2.5684,-2.5684,-2.5684,-2.5684,-2.5684,-2.5684,-2.5684,-2.5684,-2.5684,-2.5684,-2.5684,-2.6062,-2.6764,-2.7636,-2.8049,-2.984,-3.1139,-3.1793,-3.2604,-3.3457,-3.3953,-3.4299,-3.4688,-3.4688,-3.5094,-3.542,-3.5646,-3.5918,-3.6119,-3.6144,-3.6031,-3.604,-3.6078,-3.5764,-3.602,-3.6702,-3.8172,-3.8978,-3.9439,-4.0476,-4.1332,-4.1362,-4.1354,-4.1384,-4.1352,-4.143,-4.1451,-4.1311,-4.0793,-4.0166,-3.9482,-3.8968,-3.8653,-3.897,-3.9405,-3.9644,-3.982,-3.9906,-3.9978,-3.9888,-3.9738,-3.9568,-3.982,-3.9826,-3.9577,-3.9538,-3.9595,-3.9538,-3.9424,-3.9388,-3.9388,-3.0898,-3.0898,-3.0898,-3.0898,-3.0898,-3.0898,-3.0732,-3.04,-2.9844,-2.9424,-2.9131,-2.8584,-2.8301,-2.8301,-2.8301,-2.8301,-2.8301,-2.8301,-2.8301,-2.8301,-2.8301,-2.8301,-2.8193,-2.7933,-2.751,-2.7324,-2.6992,-2.6719,-2.6327,-2.5918,-2.5684,-2.5713,-2.5693,-2.5684,-2.5723,-2.5693,-2.5684,-2.5684,-2.5684,-2.5684,-2.5684,-2.5684,-2.5684,-2.5684,-2.5684,-2.5684,-2.5684,-2.5684,-2.5684,-2.5684,-2.5684,-2.5684,-2.5684,-2.5684,-2.5684,-2.5898,-2.7899,-2.886,-2.9035,-3.125,-3.2277,-3.286,-3.3712,-3.443,-3.4763,-3.4969,-3.5353,-3.5655,-3.5855,-3.5981,-3.5994,-3.6267,-3.6355,-3.6417,-3.6417,-3.6417,-3.6417,-3.6417,-3.648,-3.7137,-3.7743,-3.8465,-3.9327,-4.0582,-4.1562,-4.2028,-4.1945,-4.1885,-4.1686,-4.1511,-4.1525,-4.1522,-4.0897,-4.0218,-3.9505,-3.888,-3.8031,-3.8283,-3.933,-3.9596,-3.9926,-4.0068,-4.0397,-4.0621,-4.0696,-4.0472,-4.0068,-3.9745,-3.9637,-3.9655,-3.9722,-3.9574,-3.9388,-3.9388,-3.9388,-3.0898,-3.0898,-3.0898,-3.0898,-3.0879,-3.0771,-3.0527,-3.0166,-2.9619,-2.9219,-2.8877,-2.8496,-2.8301,-2.8301,-2.8301,-2.8301,-2.8301,-2.8301,-2.8301,-2.8301,-2.8301,-2.8301,-2.8213,-2.7959,-2.7783,-2.7728,-2.7344,-2.708,-2.6797,-2.6415,-2.6093,-2.5986,-2.5966,-2.5947,-2.5889,-2.5752,-2.5684,-2.5684,-2.5684,-2.5684,-2.5684,-2.5684,-2.5684,-2.5684,-2.5684,-2.5684,-2.5684,-2.5684,-2.5684,-2.5684,-2.5684,-2.5684,-2.5684,-2.5684,-2.5791,-2.627,-2.8072,-2.9434,-3.0373,-3.2122,-3.3737,-3.4274,-3.4613,-3.5094,-3.5604,-3.5755,-3.583,-3.6254,-3.6304,-3.6367,-3.6405,-3.6392,-3.6405,-3.6417,-3.6417,-3.6417,-3.6417,-3.6417,-3.6452,-3.6849,-3.7381,-3.7984,-3.9022,-4.0544,-4.163,-4.2503,-4.2623,-4.2391,-4.2078,-4.1778,-4.1857,-4.1834,-4.0867,-4.0195,-3.9633,-3.8853,-3.7954,-3.7762,-3.8839,-3.9658,-4.0083,-4.0734,-4.13,-4.1512,-4.1557,-4.116,-4.0651,-4.0171,-3.9733,-3.9649,-3.9574,-3.9481,-3.9388,-3.9433,-3.9448,-3.0898,-3.0898,-3.0898,-3.0898,-3.085,-3.043,-3.0234,-3.0078,-2.9316,-2.8965,-2.8818,-2.8496,-2.8301,-2.8301,-2.8301,-2.8301,-2.8301,-2.8301,-2.8301,-2.8301,-2.8301,-2.8301,-2.8252,-2.8174,-2.8027,-2.7826,-2.7627,-2.7412,-2.7148,-2.71,-2.6924,-2.6885,-2.6523,-2.6396,-2.626,-2.6044,-2.5849,-2.581,-2.583,-2.5732,-2.5703,-2.5684,-2.5684,-2.5684,-2.5684,-2.5684,-2.5684,-2.5684,-2.5684,-2.5684,-2.5762,-2.5781,-2.5801,-2.5869,-2.6035,-2.6685,-2.8154,-2.9611,-3.0984,-3.2742,-3.4276,-3.4781,-3.5132,-3.568,-3.6081,-3.6292,-3.6392,-3.6392,-3.6405,-3.6417,-3.6417,-3.6417,-3.6417,-3.6417,-3.6417,-3.6417,-3.6417,-3.6417,-3.6499,-3.6628,-3.7023,-3.7494,-3.8062,-3.9406,-4.0994,-4.1901,-4.2504,-4.2328,-4.2276,-4.2041,-4.2275,-4.2053,-4.0901,-4.0192,-3.9745,-3.8834,-3.7712,-3.7851,-3.8774,-3.962,-4.0324,-4.1102,-4.2162,-4.2006,-4.1908,-4.1579,-4.1332,-4.098,-4.0486,-3.9745,-3.9499,-3.9858,-3.9948,-3.9978,-3.9873,-3.0898,-3.0898,-3.0898,-3.0898,-3.0859,-3.0391,-3.0049,-2.9746,-2.918,-2.875,-2.8535,-2.8379,-2.8301,-2.8301,-2.8301,-2.8301,-2.8301,-2.8301,-2.8301,-2.8301,-2.8301,-2.8301,-2.8301,-2.8271,-2.8193,-2.8057,-2.8027,-2.8008,-2.7851,-2.7705,-2.7783,-2.7617,-2.7109,-2.6846,-2.667,-2.6553,-2.6377,-2.6172,-2.6103,-2.6045,-2.5703,-2.5684,-2.5684,-2.5684,-2.5684,-2.5684,-2.5684,-2.5684,-2.5684,-2.5762,-2.5996,-2.6103,-2.6172,-2.6338,-2.6543,-2.7061,-2.8731,-3.0357,-3.1353,-3.3114,-3.4389,-3.5671,-3.5943,-3.6132,-3.6392,-3.6405,-3.6417,-3.6417,-3.6417,-3.6417,-3.6417,-3.6417,-3.6417,-3.6417,-3.6417,-3.6417,-3.6417,-3.6417,-3.6417,-3.6546,-3.6628,-3.6837,-3.7415,-3.8094,-3.9773,-4.128,-4.185,-4.229,-4.233,-4.2193,-4.233,-4.2371,-4.1351,-4.0532,-4.0102,-3.8827,-3.7402,-3.8075,-3.8827,-3.965,-4.0615,-4.2034,-4.2811,-4.2611,-4.2402,-4.2282,-4.2073,-4.1841,-4.1317,-4.0576,-4.0487,-4.0726,-4.0696,-4.0516,-4.0412,-3.0898,-3.0898,-3.0898,-3.0801,-3.0635,-3.0205,-2.9766,-2.9346,-2.8906,-2.8584,-2.8301,-2.8301,-2.8301,-2.8301,-2.8301,-2.8301,-2.8301,-2.8301,-2.8301,-2.8301,-2.8301,-2.8301,-2.8301,-2.8291,-2.8281,-2.8301,-2.8301,-2.8252,-2.8203,-2.8281,-2.8223,-2.8027,-2.7734,-2.7441,-2.7178,-2.7051,-2.6865,-2.665,-2.6543,-2.6465,-2.6103,-2.6103,-2.5986,-2.5957,-2.5967,-2.5801,-2.5801,-2.582,-2.5977,-2.6113,-2.6309,-2.6543,-2.667,-2.6836,-2.706,-2.8045,-2.9375,-3.1213,-3.2139,-3.3549,-3.4904,-3.6063,-3.6317,-3.638,-3.6417,-3.6417,-3.6417,-3.6417,-3.6417,-3.6417,-3.6417,-3.6417,-3.6417,-3.6417,-3.6417,-3.6417,-3.6417,-3.6417,-3.6417,-3.6452,-3.6499,-3.6581,-3.7289,-3.8043,-3.9754,-4.1141,-4.1587,-4.2193,-4.2589,-4.2371,-4.2056,-4.2111,-4.185,-4.1169,-4.0518,-3.9112,-3.8017,-3.8707,-3.9404,-3.9958,-4.0943,-4.2386,-4.325,-4.3021,-4.294,-4.3015,-4.2836,-4.2536,-4.2028,-4.1414,-4.1369,-4.1309,-4.116,-4.098,-4.11,-3.0879,-3.0898,-3.0869,-3.0605,-3.0156,-2.9766,-2.9365,-2.8975,-2.8555,-2.834,-2.8301,-2.8301,-2.8301,-2.8301,-2.8301,-2.8301,-2.8301,-2.8301,-2.8301,-2.8301,-2.8301,-2.8301,-2.8301,-2.8301,-2.8301,-2.8301,-2.8301,-2.8301,-2.8301,-2.8301,-2.8301,-2.8301,-2.8105,-2.7939,-2.7689,-2.7246,-2.7041,-2.7002,-2.7012,-2.6953,-2.6836,-2.6797,-2.6611,-2.6445,-2.6367,-2.623,-2.6074,-2.624,-2.6357,-2.6445,-2.6787,-2.6982,-2.7041,-2.7119,-2.7437,-2.8095,-2.927,-3.0781,-3.233,-3.4836,-3.6011,-3.6332,-3.6417,-3.6417,-3.6417,-3.6417,-3.6417,-3.6417,-3.6417,-3.6417,-3.6417,-3.6417,-3.6417,-3.6417,-3.6417,-3.6417,-3.6417,-3.6417,-3.6417,-3.6417,-3.6417,-3.6546,-3.7302,-3.827,-3.9956,-4.1043,-4.142,-4.1988,-4.2699,-4.2725,-4.2371,-4.2371,-4.233,-4.1767,-4.0986,-3.9464,-3.8725,-3.9404,-3.9986,-4.0532,-4.1253,-4.2467,-4.3036,-4.325,-4.3245,-4.3155,-4.32,-4.3215,-4.2671,-4.2117,-4.1803,-4.1669,-4.1519,-4.1617,-4.1803,-3.0703,-3.043,-3.0439,-3.001,-2.9424,-2.9521,-2.9316,-2.8887,-2.8506,-2.8301,-2.8301,-2.8301,-2.8301,-2.8301,-2.8301,-2.8301,-2.8301,-2.8301,-2.8301,-2.8301,-2.8301,-2.8301,-2.8301,-2.8301,-2.8301,-2.8301,-2.8301,-2.8301,-2.8301,-2.8301,-2.8301,-2.8301,-2.8291,-2.8223,-2.8086,-2.7871,-2.7764,-2.75,-2.7422,-2.7324,-2.706,-2.7041,-2.6982,-2.6816,-2.6807,-2.6699,-2.6533,-2.6719,-2.6797,-2.6855,-2.7217,-2.7432,-2.751,-2.7598,-2.8271,-2.9258,-3.064,-3.2589,-3.4326,-3.6096,-3.631,-3.6417,-3.6417,-3.6417,-3.6417,-3.6417,-3.6417,-3.643,-3.6468,-3.6455,-3.6417,-3.643,-3.643,-3.6417,-3.6417,-3.6417,-3.6417,-3.6417,-3.6417,-3.6417,-3.6417,-3.6518,-3.7002,-3.8686,-4.0429,-4.154,-4.2062,-4.2535,-4.3195,-4.316,-4.2996,-4.2996,-4.29,-4.233,-4.1489,-4.0319,-3.9727,-4.0189,-4.0703,-4.1211,-4.1988,-4.2725,-4.3021,-4.3305,-4.3305,-4.3305,-4.3305,-4.3275,-4.314,-4.2781,-4.2491,-4.2387,-4.2447,-4.2566,-4.2806,-3.0391,-2.999,-2.998,-2.958,-2.9023,-2.9228,-2.9101,-2.8701,-2.8418,-2.8301,-2.8301,-2.8301,-2.8301,-2.8301,-2.8301,-2.8301,-2.8301,-2.8301,-2.8301,-2.8301,-2.8301,-2.8301,-2.8301,-2.8301,-2.8301,-2.8301,-2.8301,-2.8301,-2.8301,-2.8301,-2.8301,-2.8301,-2.8301,-2.8281,-2.8252,-2.8193,-2.8125,-2.791,-2.7851,-2.7783,-2.7598,-2.749,-2.7412,-2.7295,-2.7217,-2.7148,-2.71,-2.7139,-2.7246,-2.7363,-2.7588,-2.7861,-2.7978,-2.8255,-2.8751,-2.9765,-3.148,-3.3479,-3.5499,-3.6263,-3.6417,-3.6417,-3.6417,-3.6417,-3.6417,-3.6417,-3.6417,-3.6443,-3.6581,-3.6681,-3.6719,-3.6707,-3.6883,-3.6908,-3.692,-3.6933,-3.6958,-3.6996,-3.6983,-3.692,-3.6895,-3.6895,-3.7121,-3.905,-4.0941,-4.1893,-4.2736,-4.3225,-4.3653,-4.3648,-4.3544,-4.3484,-4.3394,-4.292,-4.236,-4.1643,-4.1169,-4.1099,-4.1393,-4.1767,-4.2345,-4.3036,-4.321,-4.3305,-4.325,-4.325,-4.3305,-4.3245,-4.3011,-4.3051,-4.311,-4.311,-4.3305,-4.3305,-4.3305,-2.9951,-2.9636,-2.9597,-2.9297,-2.8935,-2.8896,-2.8672,-2.832,-2.8301,-2.8301,-2.8301,-2.8301,-2.8301,-2.8301,-2.8301,-2.8301,-2.8301,-2.8301,-2.8301,-2.8301,-2.8301,-2.8301,-2.8301,-2.8301,-2.8301,-2.8301,-2.8301,-2.8301,-2.8301,-2.8301,-2.8301,-2.8301,-2.8301,-2.8301,-2.8301,-2.8281,-2.8252,-2.8184,-2.8154,-2.8105,-2.8018,-2.8105,-2.792,-2.7773,-2.7666,-2.7519,-2.7461,-2.75,-2.7637,-2.7803,-2.8027,-2.8193,-2.8281,-2.8291,-2.8291,-2.9102,-3.1081,-3.3441,-3.5198,-3.5655,-3.6173,-3.615,-3.6436,-3.642,-3.6543,-3.6681,-3.6832,-3.6908,-3.701,-3.7123,-3.726,-3.7487,-3.7764,-3.7764,-3.7776,-3.7789,-3.7801,-3.7801,-3.7801,-3.7764,-3.7739,-3.7799,-3.7967,-3.9491,-4.0982,-4.1813,-4.2748,-4.3828,-4.4167,-4.4336,-4.4186,-4.3813,-4.3693,-4.3454,-4.2979,-4.2491,-4.229,-4.2085,-4.1961,-4.2249,-4.282,-4.32,-4.325,-4.329,-4.3195,-4.3076,-4.282,-4.278,-4.2805,-4.286,-4.282,-4.317,-4.3115,-4.325,-4.3305,-2.9766,-2.9131,-2.9111,-2.8857,-2.8506,-2.8476,-2.8389,-2.8301,-2.8301,-2.8301,-2.8301,-2.8301,-2.8301,-2.8301,-2.8301,-2.8301,-2.8301,-2.8301,-2.8301,-2.8301,-2.8301,-2.8301,-2.8301,-2.8301,-2.8301,-2.8301,-2.8301,-2.8301,-2.8301,-2.8301,-2.8301,-2.8301,-2.8301,-2.8301,-2.8301,-2.8301,-2.8301,-2.8301,-2.8301,-2.8301,-2.8301,-2.8301,-2.8164,-2.8096,-2.8057,-2.792,-2.7939,-2.7959,-2.8066,-2.8144,-2.8213,-2.8301,-2.8301,-2.8344,-2.8548,-2.9817,-3.1327,-3.2794,-3.3502,-3.4422,-3.526,-3.5917,-3.644,-3.6887,-3.7036,-3.7224,-3.7412,-3.7425,-3.7563,-3.7726,-3.7826,-3.8052,-3.8266,-3.8304,-3.8304,-3.8304,-3.8316,-3.8316,-3.8316,-3.8316,-3.8304,-3.8353,-3.86,-3.9462,-4.0817,-4.1622,-4.2596,-4.3771,-4.4656,-4.4771,-4.4784,-4.4411,-4.4186,-4.4047,-4.3798,-4.339,-4.3229,-4.3061,-4.2983,-4.2854,-4.3057,-4.3314,-4.3285,-4.319,-4.3038,-4.257,-4.2029,-4.1947,-4.174,-4.1988,-4.2015,-4.2548,-4.2981,-4.3115,-4.3305,-2.9297,-2.8711,-2.8662,-2.8516,-2.832,-2.8301,-2.8301,-2.8301,-2.8301,-2.8301,-2.8301,-2.8301,-2.8301,-2.8301,-2.8301,-2.8301,-2.8301,-2.8301,-2.8301,-2.8301,-2.8301,-2.8301,-2.8301,-2.8301,-2.8301,-2.8301,-2.8301,-2.8301,-2.8301,-2.8301,-2.8301,-2.8301,-2.8301,-2.8301,-2.8301,-2.8301,-2.8301,-2.8301,-2.8301,-2.8301,-2.8301,-2.8301,-2.8301,-2.8301,-2.8301,-2.8301,-2.8301,-2.8301,-2.8301,-2.8301,-2.8301,-2.8301,-2.8301,-2.8344,-2.89,-3.0068,-3.0824,-3.2191,-3.3289,-3.3608,-3.4627,-3.5656,-3.6528,-3.7208,-3.7654,-3.7902,-3.7902,-3.7902,-3.8153,-3.8366,-3.8442,-3.853,-3.8617,-3.8718,-3.8718,-3.8718,-3.8718,-3.8718,-3.873,-3.8743,-3.8755,-3.8768,-3.9206,-3.993,-4.0711,-4.1582,-4.248,-4.3468,-4.448,-4.5153,-4.5191,-4.502,-4.484,-4.4691,-4.4344,-4.3976,-4.3872,-4.3853,-4.421,-4.4046,-4.3738,-4.3708,-4.399,-4.3512,-4.2852,-4.2393,-4.2,-4.0845,-4.0461,-4.0944,-4.1606,-4.2034,-4.2622,-4.2981,-4.3115,-2.8682,-2.831,-2.8301,-2.832,-2.8301,-2.8301,-2.8301,-2.8301,-2.8301,-2.8301,-2.8301,-2.8301,-2.8301,-2.8301,-2.8301,-2.8301,-2.8301,-2.8301,-2.8301,-2.8301,-2.8301,-2.8301,-2.8301,-2.8301,-2.8301,-2.8301,-2.8301,-2.8301,-2.8301,-2.8301,-2.8301,-2.8301,-2.8301,-2.8301,-2.8301,-2.8301,-2.8301,-2.8301,-2.8301,-2.8301,-2.8301,-2.8301,-2.8301,-2.8301,-2.8301,-2.8301,-2.8301,-2.8301,-2.8301,-2.8301,-2.8301,-2.8301,-2.8301,-2.8344,-2.9102,-2.9503,-3.0016,-3.0927,-3.2121,-3.2621,-3.3996,-3.5351,-3.6761,-3.7341,-3.7759,-3.8454,-3.8542,-3.8567,-3.8793,-3.8906,-3.8981,-3.9094,-3.9207,-3.9233,-3.9233,-3.9233,-3.9233,-3.9233,-3.9233,-3.9245,-3.9245,-3.9258,-3.9411,-4.0053,-4.0251,-4.1334,-4.2172,-4.3047,-4.371,-4.4635,-4.4865,-4.4858,-4.4496,-4.4151,-4.4119,-4.3874,-4.42,-4.4482,-4.4652,-4.4084,-4.2983,-4.3653,-4.4798,-4.3958,-4.3047,-4.2603,-4.2065,-4.0935,-4.0424,-4.1152,-4.1668,-4.1778,-4.2247,-4.3075,-4.3398,-2.8672,-2.8301,-2.8301,-2.8301,-2.8301,-2.8301,-2.8301,-2.8301,-2.8301,-2.8301,-2.8301,-2.8301,-2.8301,-2.8301,-2.8301,-2.8301,-2.8301,-2.8301,-2.8301,-2.8301,-2.8301,-2.8301,-2.8301,-2.8301,-2.8301,-2.8301,-2.8301,-2.8301,-2.8301,-2.8301,-2.8301,-2.8301,-2.8301,-2.8301,-2.8301,-2.8301,-2.8301,-2.8301,-2.8301,-2.8301,-2.8301,-2.8301,-2.8301,-2.8301,-2.8301,-2.8301,-2.8301,-2.8301,-2.8301,-2.8301,-2.8301,-2.8301,-2.8301,-2.8301,-2.8451,-2.8708,-2.8963,-2.9691,-3.0423,-3.1358,-3.2595,-3.3907,-3.5218,-3.6706,-3.7778,-3.872,-3.9219,-3.9295,-3.9333,-3.9408,-3.9496,-3.9609,-3.9697,-3.9697,-3.9697,-3.9697,-3.9697,-3.9697,-3.9697,-3.9697,-3.9697,-3.9749,-3.9788,-3.989,-4.0083,-4.0592,-4.1392,-4.2043,-4.2372,-4.3032,-4.3462,-4.3448,-4.3304,-4.3118,-4.335,-4.3533,-4.3787,-4.3702,-4.3674,-4.2988,-4.2337,-4.3222,-4.4211,-4.3906,-4.33,-4.3027,-4.2408,-4.1072,-4.0877,-4.1477,-4.2049,-4.2339,-4.3347,-4.4299,-4.4269,-2.8506,-2.8301,-2.8301,-2.8301,-2.8301,-2.8301,-2.8301,-2.8301,-2.8301,-2.8301,-2.8301,-2.8301,-2.8301,-2.8301,-2.8301,-2.8301,-2.8301,-2.8301,-2.8301,-2.8301,-2.8301,-2.8301,-2.8301,-2.8301,-2.8301,-2.8301,-2.8301,-2.8301,-2.8301,-2.8301,-2.8301,-2.8301,-2.8301,-2.8301,-2.8301,-2.8301,-2.8301,-2.8301,-2.8301,-2.8301,-2.8301,-2.8301,-2.8301,-2.8301,-2.8301,-2.8301,-2.8301,-2.8301,-2.8301,-2.8301,-2.8301,-2.8301,-2.8301,-2.8301,-2.8301,-2.8344,-2.8471,-2.869,-2.9337,-3.0163,-3.1503,-3.3427,-3.4529,-3.6333,-3.858,-3.9457,-3.9509,-3.9534,-3.9534,-3.9597,-3.9597,-3.9685,-3.9697,-3.9697,-3.9697,-3.9697,-3.9697,-3.9697,-3.9697,-3.9697,-3.9697,-3.9697,-3.9749,-3.9749,-3.989,-3.9942,-4.0693,-4.0831,-4.1169,-4.1555,-4.1887,-4.2199,-4.2125,-4.2649,-4.3338,-4.3273,-4.3162,-4.2966,-4.2697,-4.335,-4.3462,-4.3392,-4.3503,-4.4034,-4.4168,-4.3762,-4.2941,-4.1947,-4.1343,-4.1733,-4.2396,-4.298,-4.4179,-4.526,-4.5206,-2.8301,-2.8301,-2.8301,-2.8301,-2.8301,-2.8301,-2.8301,-2.8301,-2.8301,-2.8301,-2.8301,-2.8301,-2.8301,-2.8301,-2.8301,-2.8301,-2.8301,-2.8301,-2.8301,-2.8301,-2.8301,-2.8301,-2.8301,-2.8301,-2.8301,-2.8301,-2.8301,-2.8301,-2.8301,-2.8301,-2.8301,-2.8301,-2.8301,-2.8301,-2.8301,-2.8301,-2.8301,-2.8301,-2.8301,-2.8301,-2.8301,-2.8301,-2.8301,-2.8301,-2.8301,-2.8301,-2.8301,-2.8301,-2.8301,-2.8301,-2.8301,-2.8301,-2.8301,-2.8301,-2.8301,-2.831,-2.8437,-2.9112,-2.9867,-2.9978,-3.2262,-3.4343,-3.5019,-3.6422,-3.8635,-3.9581,-3.9633,-3.9697,-3.9697,-3.9697,-3.9697,-3.9697,-3.9697,-3.9697,-3.9697,-3.9697,-3.9697,-3.9697,-3.9697,-3.9697,-3.9697,-3.9697,-3.9697,-3.9697,-3.9697,-3.9697,-3.9697,-3.9697,-3.989,-4.0313,-4.0693,-4.1082,-4.1261,-4.1986,-4.2622,-4.2561,-4.2097,-4.2193,-4.2154,-4.3579,-4.4432,-4.3859,-4.4029,-4.5303,-4.5273,-4.4996,-4.4384,-4.3527,-4.3003,-4.2787,-4.3251,-4.4104,-4.4937,-4.5858,-4.6028,-2.8301,-2.8301,-2.8301,-2.8301,-2.8301,-2.8301,-2.8301,-2.8301,-2.8301,-2.8301,-2.8301,-2.8301,-2.8301,-2.8301,-2.8301,-2.8301,-2.8301,-2.8301,-2.8301,-2.8301,-2.8301,-2.8301,-2.8301,-2.8301,-2.8301,-2.8301,-2.8301,-2.8301,-2.8301,-2.8301,-2.8301,-2.8301,-2.8301,-2.8301,-2.8301,-2.8301,-2.8301,-2.8301,-2.8301,-2.8301,-2.8301,-2.8301,-2.8301,-2.8301,-2.8301,-2.8301,-2.8301,-2.8301,-2.8301,-2.8301,-2.8301,-2.8301,-2.8301,-2.8301,-2.832,-2.8457,-2.8584,-2.9001,-2.9565,-2.9938,-3.2072,-3.3431,-3.4329,-3.6042,-3.7926,-3.9297,-3.9465,-3.9697,-3.9697,-3.9697,-3.9697,-3.9697,-3.9697,-3.9697,-3.9697,-3.9697,-3.9697,-3.9697,-3.9697,-3.9697,-3.9697,-3.9697,-3.9697,-3.9697,-3.9697,-3.9697,-3.9697,-3.9697,-3.9697,-3.9697,-3.9697,-4.0083,-4.0465,-4.0224,-4.0402,-4.0818,-4.0678,-4.0906,-4.1505,-4.2834,-4.3646,-4.3693,-4.4287,-4.5756,-4.6561,-4.6575,-4.5859,-4.4965,-4.5287,-4.5126,-4.494,-4.5354,-4.602,-4.641,-4.658]},{"header":{"parameterUnit":"m.s-1","parameterCategory":1,"la1":31.0,"la2":29.5877,"lo1":-88.7671,"lo2":-86.6584,"dy":0.0162,"dx":0.0185,"nx":115,"ny":88,"refTime":"2026-04-22T12:00:00:Z","depth":0,"parameterNumber":3,"parameterNumberName":"V-component_of_WINDS"},"data":[0.0,0.0,0.0,0.0,0.0,0.0,0.0,0.0,0.0,0.0,0.0,0.0,0.0,0.0,0.0,0.0,0.0,0.0,0.0,0.0,0.0,0.0,0.0,0.0,0.0,0.0,0.0,0.0,0.0,0.0,0.0,0.0,0.0,0.0,0.0,0.0,0.0,0.0,0.0,0.0,0.0,0.0,0.0,0.0,0.0,0.0,0.0,0.0,0.0,0.0,0.0,0.0,0.0,0.0,0.0,0.0,0.0,0.0,0.0,0.0,0.0,0.0,0.0,0.0,0.0,0.0,0.0,0.0,0.0,0.0,0.0,0.0,0.0,0.0,0.0,0.0,0.0,0.0,0.0,0.0,0.0,0.0,0.0,0.0,0.0,0.0,0.0,0.0,0.0,0.0,0.0,0.0,0.0,0.0,0.0,0.0,0.0,0.0,0.0,0.0,0.0,0.0,0.0,0.0,0.0,0.0,0.0,0.0,0.0,0.0,0.0,0.0,0.0,0.0,0.0,0.0,0.0,0.0,0.0,0.0,0.0,0.0,0.0,0.0,0.0,0.0,0.0,0.0,0.0,0.0,0.0,0.0,0.0,0.0,0.0,0.0,0.0,0.0,0.0,0.0,0.0,0.0,0.0,0.0,0.0,0.0,0.0,0.0,0.0,0.0,0.0,0.0,0.0,0.0,0.0,0.0,0.0,0.0,0.0,0.0,0.0,0.0,0.0,0.0,0.0,0.0,0.0,0.0,0.0,0.0,0.0,0.0,0.0,0.0,0.0,0.0,0.0,0.0,0.0,0.0,0.0,0.0,0.0,0.0,0.0,0.0,0.0,0.0,0.0,0.0,0.0,0.0,0.0,0.0,0.0,0.0,0.0,0.0,0.0,0.0,0.0,0.0,0.0,0.0,0.0,0.0,0.0,0.0,0.0,0.0,0.0,0.0,0.0,0.0,0.0,0.0,0.0,0.0,0.0,0.0,0.0,0.0,0.0,0.0,0.0,0.0,0.0,0.0,0.0,0.0,0.0,0.0,0.0,0.0,0.0,0.0,0.0,0.0,0.0,0.0,0.0,0.0,0.0,0.0,0.0,0.0,0.0,0.0,0.0,0.0,0.0,0.0,0.0,0.0,0.0,0.0,0.0,0.0,0.0,0.0,0.0,0.0,0.0,0.0,0.0,0.0,0.0,0.0,0.0,0.0,0.0,0.0,0.0,0.0,0.0,0.0,0.0,0.0,0.0,0.0,0.0,0.0,0.0,0.0,0.0,0.0,0.0,0.0,0.0,0.0,0.0,0.0,0.0,0.0,0.0,0.0,0.0,0.0,0.0,0.0,0.0,0.0,0.0,0.0,0.0,0.0,0.0,0.0,0.0,0.0,0.0,0.0,0.0,0.0,0.0,0.0,0.0,0.0,0.0,0.0,0.0,0.0,0.0,0.0,0.0,0.0,0.0,0.0,0.0,0.0,0.0,0.0,0.0,0.0,0.0,0.0,0.0,0.0,0.0,0.0,0.0,0.0,0.0,0.0,0.0,0.0,0.0,0.0,0.0,0.0,0.0,0.0,0.0,0.0,0.0,0.0,0.0,0.0,0.0,0.0,0.0,0.0,0.0,0.0,0.0,0.0,0.0,0.0,0.0,0.0,0.0,0.0,0.0,0.0,0.0,0.0,0.0,0.0,0.0,0.0,0.0,0.0,0.0,0.0,0.0,0.0,0.0,0.0,0.0,0.0,0.0,0.0,0.0,0.0,0.0,0.0,0.0,0.0,0.0,0.0,0.0,0.0,0.0,0.0,0.0,0.0,0.0,0.0,0.0,0.0,0.0,0.0,0.0,0.0,0.0,0.0,0.0,0.0,0.0,0.0,0.0,0.0,0.0,0.0,0.0,0.0,0.0,0.0,0.0,0.0,0.0,0.0,0.0,0.0,0.0,0.0,0.0,0.0,0.0,0.0,0.0,0.0,0.0,0.0,0.0,0.0,0.0,0.0,0.0,0.0,0.0,0.0,0.0,0.0,0.0,0.0,0.0,0.0,0.0,0.0,0.0,0.0,0.0,0.0,0.0,0.0,0.0,0.0,0.0,0.0,0.0,0.0,0.0,0.0,0.0,0.0,0.0,0.0,0.0,0.0,0.0,0.0,0.0,0.0,0.0,0.0,0.0,0.0,0.0,0.0,0.0,0.0,0.0,0.0,0.0,0.0,0.0,0.0,0.0,0.0,0.0,0.0,0.0,0.0,0.0,0.0,0.0,0.0,0.0,0.0,0.0,0.0,0.0,0.0,0.0,0.0,0.0,0.0,0.0,0.0,0.0,0.0,0.0,0.0,0.0,0.0,0.0,0.0,0.0,0.0,0.0,0.0,0.0,0.0,0.0,0.0,0.0,0.0,0.0,0.0,0.0,0.0,0.0,0.0,0.0,0.0,0.0,0.0,0.0,0.0,0.0,0.0,0.0,0.0,0.0,0.0,0.0,0.0,0.0,0.0,0.0,0.0,0.0,0.0,0.0,0.0,0.0,0.0,0.0,0.0,0.0,0.0,0.0,0.0,0.0,0.0,0.0,0.0,0.0,0.0,0.0,0.0,0.0,0.0,0.0,0.0,0.0,0.0,0.0,0.0,0.0,0.0,0.0,0.0,0.0,0.0,0.0,0.0,0.0,0.0,0.0,0.0,0.0,0.0,0.0,0.0,0.0,0.0,0.0,0.0,0.0,0.0,0.0,0.0,0.0,0.0,0.0,0.0,0.0,0.0,0.0,0.0,0.0,0.0,0.0,0.0,0.0,0.0,0.0,0.0,0.0,0.0,0.0,0.0,0.0,0.0,0.0,0.0,0.0,0.0,0.0,0.0,0.0,0.0,0.0,0.0,0.0,0.0,0.0,0.0,0.0,0.0,0.0,0.0,0.0,0.0,0.0,0.0,0.0,0.0,0.0,0.0,0.0,0.0,0.0,0.0,0.0,0.0,0.0,0.0,0.0,0.0,0.0,0.0,0.0,0.0,0.0,0.0,0.0,0.0,0.0,0.0,0.0,0.0,0.0,0.0,0.0,0.0,0.0,0.0,0.0,0.0,0.0,0.0,0.0,0.0,0.0,0.0,0.0,0.0,0.0,0.0,0.0,0.0,0.0,0.0,0.0,0.0,0.0,0.0,0.0,0.0,0.0,0.0,0.0,0.0,0.0,0.0,0.0,0.0,0.0,0.0,0.0,0.0,0.0,0.0,0.0,0.0,0.0,0.0,0.0,0.0,0.0,0.0,0.0,0.0,0.0,0.0,0.0,0.0,0.0,0.0,0.0,0.0,0.0,0.0,0.0,0.0,0.0,0.0,0.0,0.0,0.0,0.0,0.0,0.0,0.0,0.0,0.0,0.0,0.0,0.0,0.0,0.0,0.0,0.0,0.0,0.0,0.0,0.0,0.0,0.0,0.0,0.0,0.0,0.0,0.0,0.0,0.0,0.0,0.0,0.0,0.0,0.0,0.0,0.0,0.0,0.0,0.0,0.0,0.0,0.0,0.0,0.0,0.0,0.0,0.0,0.0,0.0,0.0,0.0,0.0,0.0,0.0,0.0,0.0,0.0,0.0,0.0,0.0,0.0,0.0,0.0,0.0,0.0,0.0,0.0,0.0,0.0,0.0,0.0,0.0,0.0,0.0,0.0,0.0,0.0,0.0,0.0,0.0,0.0,0.0,0.0,0.0,0.0,0.0,0.0,0.0,0.0,0.0,0.0,0.0,0.0,0.0,0.0,0.0,0.0,0.0,0.0,0.0,0.0,0.0,0.0,0.0,0.0,0.0,0.0,0.0,0.0,0.0,0.0,0.0,0.0,0.0,0.0,0.0,0.0,0.0,0.0,0.0,0.0,0.0,0.0,0.0,0.0,0.0,0.0,0.0,0.0,0.0,0.0,0.0,0.0,0.0,0.0,0.0,0.0,0.0,0.0,0.0,0.0,0.0,0.0,0.0,0.0,0.0,0.0,0.0,0.0,0.0,0.0,0.0,0.0,0.0,0.0,0.0,0.0,0.0,0.0,0.0,0.0,0.0,0.0,0.0,0.0,0.0,0.0,0.0,0.0,0.0,0.0,0.0,0.0,0.0,0.0,0.0,0.0,0.0,0.0,0.0,0.0,0.0,0.0,0.0,0.0,0.0,0.0,0.0,0.0,0.0,0.0,0.0,0.0,0.0,0.0,0.0,0.0,0.0,0.0,0.0,0.0,0.0,0.0,0.0,0.0,0.0,0.0,0.0,0.0,0.0,0.0,0.0,0.0,0.0,0.0,0.0,0.0,0.0,0.0,0.0,0.0,0.0,0.0,0.0,0.0,0.0,0.0,0.0,0.0,0.0,0.0,0.0,0.0,0.0,0.0,0.0,0.0,0.0,0.0,0.0,0.0,0.0,0.0,0.0,0.0,0.0,0.0,0.0,0.0,0.0,0.0,0.0,0.0,0.0,0.0,0.0,0.0,0.0,0.0,0.0,0.0,0.0,0.0,0.0,0.0,0.0,0.0,0.0,0.0,0.0,0.0,0.0,0.0,0.0,0.0,0.0,0.0,0.0,0.0,0.0,0.0,0.0,0.0,0.0,0.0,0.0,0.0,0.0,0.0,0.0,0.0,0.0,0.0,0.0,0.0,0.0,0.0,0.0,0.0,0.0,0.0,0.0,0.0,0.0,0.0,0.0,0.0,0.0,0.0,0.0,0.0,0.0,0.0,0.0,0.0,0.0,0.0,0.0,0.0,0.0,0.0,0.0,0.0,0.0,0.0,0.0,0.0,0.0,0.0,0.0,0.0,0.0,0.0,0.0,0.0,0.0,0.0,0.0,0.0,0.0,0.0,0.0,0.0,0.0,0.0,0.0,0.0,0.0,0.0,0.0,0.0,0.0,0.0,0.0,0.0,0.0,0.0,0.0,0.0,0.0,0.0,0.0,0.0,0.0,0.0,0.0,0.0,0.0,0.0,0.0,0.0,0.0,0.0,0.0,0.0,0.0,0.0,0.0,0.0,0.0,0.0,0.0,0.0,0.0,0.0,0.0,0.0,0.0,0.0,0.0,0.0,0.0,0.0,0.0,0.0,0.0,0.0,0.0,0.0,0.0,0.0,0.0,0.0,0.0,0.0,0.0,0.0,0.0,0.0,0.0,0.0,0.0,0.0,0.0,0.0,0.0,0.0,0.0,0.0,0.0,0.0,0.0,0.0,0.0,0.0,0.0,0.0,0.0,0.0,0.0,0.0,0.0,0.0,0.0,0.0,0.0,0.0,0.0,0.0,0.0,0.0,0.0,0.0,0.0,0.0,0.0281,0.099,0.0,0.0,0.0,0.0,0.0,0.0,0.0,0.0,0.0,0.0,0.0,0.0,0.0,0.0,0.0,0.0,0.0,0.0,0.0,0.0,0.0,0.0,0.0,0.0,0.0,0.0,0.0,0.0,0.0,0.0,0.0,0.0,0.0,0.0,0.0,0.0,0.0,0.0,0.0,0.0,0.0,0.0,0.0,0.0,0.0,0.0,0.0,0.0,0.0,0.0,0.0,0.0,0.0,0.0,0.0,0.0,0.0,0.0,0.0,0.0,0.0,0.0,0.0,0.0,0.0,0.0,0.0,0.0,0.0,0.0,0.0,0.0,0.0,0.0,0.0,0.0,0.0,0.0,0.0,0.0,0.0,0.0,0.0,0.0,0.0,0.0,0.0,0.0,0.0,0.0,0.0,0.0,0.0,0.0,0.0,0.0,0.0,0.0,0.0,0.0,0.0,0.0,0.0,0.0,0.0,0.0,0.0,0.0,0.0,0.0,0.0,0.0,0.0,0.0,0.3515,0.0,0.0,0.0,0.0,0.0,0.0,0.0,0.0,0.0,0.0,0.0,0.0,0.0,0.0,0.0,0.0,0.0,0.0,0.0,0.0,0.0,0.0,0.0,0.0,0.0,0.0,0.0,0.0,0.0,0.0,0.0,0.0,0.0,0.0,0.0,0.0,0.0,0.0,0.0,0.0,0.0,0.0,0.0,0.0,0.0,0.0,0.0,0.0,0.0,0.0,0.0,0.0,0.0,0.0,0.0,0.0,0.0,0.0,0.0,0.0,0.0,0.0,0.0,0.0,0.0,0.0,0.0,0.0,0.0,0.0,0.0,0.0,0.0,0.0,0.0,0.0,0.0,0.0,0.0,0.0,0.0,0.0,0.0,0.0,0.0,0.0,0.0,0.0,0.0,0.0,0.0,0.0,0.0,0.0,0.0,0.0,0.0,0.0,0.0,0.0,0.0,0.0,0.0,0.0,0.0,0.0,0.0,0.0,0.0,0.0,0.0875,0.0,0.0,0.1262,0.0,0.0,0.0,0.0,0.0,0.0,0.0,0.0,0.0,0.0,0.0,0.0,0.0,0.0,0.0,0.0,0.0,0.0,0.0,0.0,0.0,0.0,0.0,0.0,0.0,0.0,0.0,0.0,0.0,0.0,0.0,0.0,0.0,0.0,0.0,0.0,0.0,0.0,0.0,0.0,0.0,0.0,0.0,0.0,0.0,0.0,0.0,0.0,0.0,0.0,0.0,0.0,0.0,0.0,0.0,0.0,0.0,0.0,0.0,0.0,0.0,0.0,0.0,0.0,0.0,0.0,0.0,0.0,0.0,0.0,0.0,0.0,0.0,0.0,0.0,0.0,0.0,0.0,0.0,0.0,0.0,0.0,0.0,0.0,0.0,0.0,0.0,0.0,0.0,0.0,0.0,0.0,0.0,0.0,0.0,0.0,0.0,0.0,0.0,0.0,0.0,0.0,0.0,0.0,0.0,0.0,0.0,0.0,0.0,0.0,0.2989,0.1305,-0.0484,-0.065,0.0574,0.3292,0.0,0.0,0.0,0.0,0.0,0.0,0.0,0.0,0.0,0.0,0.0,0.0,0.0,0.0,0.0,0.0,0.0,0.0,0.0,0.0,0.0,0.0,0.0,0.0,0.0,0.0,0.0,0.0,0.0,0.0,0.0,0.0,0.0,0.0,0.0,0.0,0.0,0.0,0.0,0.0,0.0,0.0,0.0,0.0,0.0,0.0,0.0,0.0,0.0,0.0,0.0,0.0,0.0,0.0,0.0,0.0,0.0,0.0,0.0,0.0,0.0,0.0,0.0,0.0,0.0,0.0,0.0,0.0,0.0,0.0,0.0,0.0,0.0,0.0,0.0,0.0,0.0,0.0,0.0,0.0,0.0,0.0,0.0,0.0,0.0,0.0,0.0,0.0,0.0,0.0,0.0,0.0,0.0,0.0,0.0,0.0,0.0,0.0,0.0,0.0,0.0,0.0,0.0,0.0,0.0,0.0,0.0,0.0,0.451,0.2919,0.0775,-0.1967,-0.2301,-0.1055,0.0,0.0,0.0,0.0,0.0,0.0,0.0,0.0,0.0,0.0,0.0,0.0,0.0,0.0,0.0,0.0,0.0,0.0,0.0,0.0,0.0,0.0,0.0,0.0,0.0,0.0,0.0,0.0,0.0,0.0,0.0,0.0,0.0,0.0,0.0,0.0,0.0,0.0,0.0,0.0,0.0,0.0,0.0,0.0,0.0,0.0,0.0,0.0,0.0,0.0,0.0,0.0,0.0,0.0,0.0,0.0,0.0,0.0,0.0,0.0,0.0,0.0,0.0,0.0,0.0,0.0,0.0,0.0,0.0,0.0,0.0,0.0,0.0,0.0,0.0,0.0,0.0,0.0,0.0,0.0,0.0,0.0,0.0,0.0,0.0,0.0,0.0,0.0,0.0,0.0,0.0,0.0,0.0,0.0,0.0,0.0,0.0,0.0,0.0,0.0,0.0,0.0,0.0,0.0,0.0,0.0,0.0,0.0,0.0,0.4461,0.1143,-0.1234,-0.2494,-0.2393,-0.1141,0.0,0.0,0.0,0.0,0.0,0.0,0.0,0.0,0.0,0.0,0.0,0.0,0.0,0.0,0.0,0.0,0.0,0.0,0.0,0.0,0.0,0.0,0.0,0.0,0.0,0.0,0.0,0.0,0.0,0.0,0.0,0.0,0.0,0.0,0.0,0.0,0.0,0.0,0.0,0.0,0.0,0.0,0.0,0.0,0.0,0.0,0.0,0.0,0.0,0.0,0.0,0.0,0.0,0.0,0.0,0.0,0.0,0.0,0.0,0.0,0.0,0.0,0.0,0.0,0.0,0.0,0.0,0.0,0.0,0.0,0.0,0.0,0.0,0.0,0.0,0.0,0.0,0.0,0.0,0.0,0.0,0.0,0.0,0.0,0.0,0.0,0.0,0.0,0.0,0.0,0.0,0.0,0.0,0.0,0.0,0.0,0.0,0.0,0.0,0.0,0.0,0.0,0.0,0.0,0.0,0.0,0.0,0.0,0.0,0.4519,0.0,-0.2604,-0.3291,-0.2636,-0.1421,0.0,0.0,0.0,0.0,0.0,0.0,0.0,0.0,0.0,0.0,0.0,0.0,0.0,0.0,0.0,0.0,0.0,0.0,0.0,0.0,0.0,0.0,0.0,0.0,0.0,0.0,0.0,0.0,0.0,0.0,0.0,0.0,0.0,0.0,0.0,0.0,0.0,0.0,0.0,0.0,0.0,0.0,0.0,0.0,0.0,0.0,0.0,0.0,0.0,0.0,0.0,0.0,0.0,0.0,0.0,0.0,0.0,0.0,0.0,0.0,0.0,0.0,0.0,0.0,0.0,0.0,0.0,0.0,0.0,0.0,0.0,0.0,0.0,0.0,0.0,0.0,0.0,0.0,0.0,0.0,0.0,0.0,0.0,0.0,0.0,0.0,0.0,0.0,0.0,0.0,0.0,0.0,0.0,0.0,0.0,0.0,0.0,0.0,0.0,0.0,0.0,0.0,0.0,0.0,0.0,0.0,0.0,0.0,0.7383,0.4474,-0.0064,-0.3105,-0.4533,-0.3233,-0.1918,0.0,0.0,0.0,0.0,0.0,0.0,0.0,0.0,0.0,0.0,0.0,0.0,0.0,0.0,0.0,0.0,0.0,0.0,0.0,0.0,0.0,0.0,0.0,0.0,0.0,0.0,0.0,0.0,0.0,0.0,0.0,0.0,0.0,0.0,0.0,0.0,0.0,0.0,0.0,0.0,0.0,0.0,0.0,0.0,0.0,0.0,0.0,0.0,0.0,0.0,0.0,0.0,0.0,0.0,0.0,0.0,0.0,0.0,0.0,0.0,0.0,0.0,0.0,0.0,0.0,0.0,0.0,0.0,0.0,0.0,0.0,0.0,0.0,0.0,0.0,0.0,0.0,0.0,0.0,0.0,0.0,0.0,0.0,0.0,0.0,0.0,0.0,0.0,0.0,0.0,0.0,0.0,0.0,0.0,0.0,0.0,0.0,0.0,0.0,0.0,0.0,0.0,0.0,0.0,0.0,0.0,0.0,0.0,0.0,0.4474,0.0063,-0.2578,-0.3278,-0.2677,-0.1386,0.0,0.0,0.0,0.0,0.0,0.0,0.0,0.0,0.0,0.0,0.0,0.0,0.0,0.0,0.0,0.0,0.0,0.0,0.0,0.0,0.0,0.0,0.0,0.0,0.0,0.0,0.0,0.0,0.0,0.0,0.0,0.0,0.0,0.0,0.0,0.0,0.0,0.0,0.0,0.0,0.0,0.0,0.0,0.0,0.0,0.0,0.0,0.0,0.0,0.0,0.0,0.0,0.0,0.0,0.0,0.0,0.0,0.0,0.0,0.0,0.0,0.0,0.0,0.0,0.0,0.0,0.0,0.0,0.0,0.0,0.0,0.0,0.0,0.0,0.0,0.0,0.0,0.0,0.0,0.0,0.0,0.0,0.0,0.0,0.0,0.0,0.0,0.0,0.0,0.0,0.0,0.0,0.0,0.0,0.0,0.0,0.0,0.0,0.0,0.0,0.0,0.0,0.0,0.0,0.0,0.0,0.0,0.0,0.0,0.4441,0.0702,-0.177,-0.2597,-0.1848,-0.0234,0.2126,0.0,0.0,0.0,0.0,0.0,0.0,0.0,0.0,0.0,0.0,0.0,0.0,0.0,0.0,0.0,0.0,0.0,0.0,0.0,0.0,0.0,0.0,0.0,0.0,0.0,0.0,0.0,0.0,0.0,0.0,0.0,0.0,0.0,0.0,0.0,0.0,0.0,0.0,0.0,0.0,0.0,0.0,0.0,0.0,0.0,0.0,0.0,0.0,0.0,0.0,0.0,0.0,0.0,0.0,0.0,0.0,0.0,0.0,0.0,0.0,0.0,0.0,0.0,0.0,0.0,0.0,0.0,0.0,0.0,0.0,0.0,0.0,0.0,0.0,0.0,0.0,0.0,0.0,0.0,0.0,0.0,0.0,0.0,0.0,0.0,0.0,0.0,0.0,0.0,0.0,0.0,0.0,0.0,0.0,0.0,0.0,0.0,0.0,0.0,0.0,0.0,0.0,0.0,0.0,0.0,0.0,0.0,0.0,0.4697,0.1749,-0.0611,-0.2245,-0.0759,0.1384,0.0,0.0,0.0,0.0,0.0,0.0,0.0,0.0,0.0,0.0,0.0,0.0,0.0,0.0,0.0,0.0,0.0,0.0,0.0,0.0,0.0,0.0,0.0,0.0,0.0,0.0,0.0,0.0,0.0,0.0,0.0,0.0,0.0,0.0,0.0,0.0,0.0,0.0,0.0,0.0,0.0,0.0,0.0,0.0,0.0,0.0,0.0,0.0,0.0,0.0,0.0,0.0,0.0,0.0,0.0,0.0,0.0,0.0,0.0,0.0,0.0,0.0,0.0,0.0,0.0,0.0,0.0,0.0,0.0,0.0,0.0,0.0,0.0,0.0,0.0,0.0,0.0,0.0,0.0,0.0,0.0,0.0,0.0,0.0,0.0,0.0,0.0,0.0,0.0,0.0,0.0,0.0,0.0,0.0,0.0,0.0,0.0,0.0,0.0,0.0,0.0,0.0,0.0,0.0,0.0,0.0,0.0,0.0,0.0,0.47,0.3025,0.1261,-0.0551,0.0843,0.29,0.0,0.0,0.0,0.0,0.0,0.0,0.0,0.0,0.0,0.0,0.0,0.0,0.0,0.0,0.0,0.0,0.0,0.0,0.0,0.0,0.0,0.0,0.0,0.0,0.0,0.0,0.0,0.0,0.0,0.0,0.0,0.0,0.0,0.0,0.0,0.0,0.0,0.0,0.0,0.0,0.0,0.0,0.0,0.0,0.0,0.0,0.0,0.0,0.0,0.0,0.0,0.0,0.0,0.0,0.0,0.0,0.0,0.0,0.0,0.0,0.0,0.0,0.0,0.0,0.0,0.0,0.0,0.0,0.0,0.0,0.0,0.0,0.0,0.0,0.0,0.0,0.0,0.0,0.0,0.0,0.0,0.0,0.0,0.0,0.0,0.0,0.0,0.0,0.0,0.0,0.0,0.0,0.0,0.0,0.0,0.0,0.0,0.0,0.0,0.0,0.0,0.0,0.0,0.0,0.0,0.0,0.0,0.0,0.6978,0.6068,0.3972,0.2339,0.1261,0.1998,0.3985,0.0,0.0,0.0,0.0,0.0,0.0,0.0,0.0,0.0,0.0,0.0,0.0,0.0,0.0,0.0,0.0,0.0,0.0,0.0,0.0,0.0,0.0,0.0,0.0,0.0,0.0,0.0,0.0,0.0,0.0,0.0,0.0,0.0,0.0,0.0,0.0,0.0,0.0,0.0,0.0,0.0,0.0,0.0,0.0,0.0,0.0,0.0,0.0,0.0,0.0,0.0,0.0,0.0,0.0,0.0,0.0,0.0,0.0,0.0,0.0,0.0,0.0,0.0,0.0,0.0,0.0,0.0,0.0,0.0,0.0,0.0,0.0,0.0,0.0,0.0,0.0,0.0,0.0,0.0,0.0,0.0,0.0,0.0,0.0,0.0,0.0,0.0,0.0,0.0,0.0,0.0,0.0,0.0,0.0,0.0,0.0,0.0,0.0,0.0,0.0,0.0,0.0,0.0,0.0,0.0,0.0,0.0,0.0,0.8025,0.7987,0.5055,0.34,0.3216,0.2992,0.4775,0.0,0.0,0.0,0.0,0.0,0.0,0.0,0.0,0.0,0.0,0.0,0.0,0.0,0.0,0.0,0.0,0.0,0.0,0.0,0.0,0.0,0.0,0.0,0.0,0.0,0.0,0.0,0.0,0.0,0.0,0.0,0.0,0.0,0.0,0.0,0.0,0.0,0.0,0.0,0.0,0.0,0.0,0.0,0.0,0.0,0.0,0.0,0.0,0.0,0.0,0.0,0.0,0.0,0.0,0.0,0.0,0.0,0.0,0.0,0.0,0.0,0.0,0.0,0.0,0.0,0.0,0.0,0.0,0.0,0.0,0.0,0.0,0.0,0.0,0.0,0.0,0.0,0.0,0.0,0.0,0.0,0.0,0.0,0.0,0.0,0.0,0.0,0.0,0.0,0.0,0.0,0.0,0.0,0.0,0.0,0.0,0.0,0.0,0.0,0.0,0.0,0.0,0.0,0.0,0.0,0.0,0.0,0.0,1.0534,0.8058,0.7576,0.6573,0.5097,0.4574,0.5702,0.0,0.0,0.0,0.0,0.0,0.0,0.0,0.0,0.0,0.0,0.0,0.0,0.0,0.0,0.0,0.0,0.0,0.0,0.0,0.0,0.0,0.0,0.0,0.0,0.0,0.0,0.0,0.0,0.0,0.0,0.0,0.0,0.0,0.0,0.0,0.0,0.0,0.0,0.0,0.0,0.0,0.0,0.0,0.0,0.0,0.0,0.0,0.0,0.9363,0.0,0.0,0.0,0.0,0.0,0.0,0.0,0.0,0.0,0.0,0.0,0.0,0.0,0.0,0.0,0.0,0.0,0.0,0.0,0.0,0.0,0.0,0.0,0.0,0.0,0.0,0.0,0.0,0.0,0.0,0.0,0.0,0.0,0.0,0.0,0.0,0.0,0.0,0.0,0.0,0.0,0.0,0.0,0.0,0.0,0.0,0.0,0.0,0.0,0.0,0.0,0.0,0.0,0.0,0.0,0.0,0.0,0.0,0.0,1.2094,1.0624,0.9126,0.7913,0.6908,0.6384,0.7404,0.0,0.0,0.0,0.0,0.0,0.0,0.0,0.0,0.0,0.0,0.0,0.0,0.0,0.0,0.0,0.0,0.0,0.0,0.0,0.0,0.0,0.0,0.0,0.0,0.0,0.0,0.0,0.0,0.0,0.0,0.0,0.0,0.0,0.0,0.0,0.0,0.0,0.0,0.0,0.0,0.0,0.0,0.0,0.0,0.0,0.0,0.0,0.0,0.0,0.0,0.0,0.0,0.0,0.0,0.0,0.0,0.0,0.0,0.0,0.0,0.0,0.0,0.0,0.0,0.0,0.0,0.0,0.0,0.0,0.0,0.0,0.0,0.0,0.0,0.0,0.0,0.0,0.0,0.0,0.0,0.0,0.0,0.0,0.0,0.0,0.0,0.0,0.0,0.0,0.0,0.0,0.0,0.0,0.0,0.0,0.0,0.0,0.0,0.0,0.0,0.0,0.0,0.0,0.0,0.0,0.0,0.0,1.462,1.3422,1.3382,1.062,0.8985,0.8682,0.8408,0.9392,1.1867,0.0,0.0,0.0,0.0,0.0,0.0,0.0,0.0,0.0,0.0,0.0,0.0,0.0,0.0,0.0,0.0,0.0,0.0,0.0,0.0,0.0,0.0,0.0,0.0,0.0,0.0,0.0,0.0,0.0,0.0,0.0,0.0,0.0,0.0,0.0,0.0,0.0,0.0,2.3634,2.0331,0.0,0.0,0.0,0.0,0.0,0.0,0.0,0.0,0.9248,0.0,0.0,0.0,0.0,0.0,0.0,0.0,0.0,0.0,0.0,0.0,0.0,0.0,0.0,0.0,0.0,0.0,0.0,0.0,0.0,0.0,0.0,0.0,0.0,0.0,0.0,0.0,0.0,0.0,0.0,0.0,0.0,0.0,0.0,0.0,0.0,0.0,0.0,0.0,0.0,0.0,0.0,0.0,0.0,0.0,0.0,0.0,0.0,0.0,0.0,0.0,0.0,0.0,0.0,0.0,0.0,1.7159,1.678,1.5633,1.3587,1.2958,1.1959,1.0525,1.0207,1.1232,1.3665,0.0,0.0,0.0,0.0,0.0,0.0,0.0,0.0,0.0,0.0,0.0,0.0,0.0,0.0,0.0,0.0,0.0,0.0,0.0,0.0,0.0,0.0,0.0,0.0,0.0,0.0,0.0,0.0,0.0,0.0,0.0,0.0,0.0,0.0,0.0,0.0,0.0,0.0,0.0,2.0375,1.8404,0.0,0.0,0.0,0.0,0.0,0.0,0.0,0.0,1.022,0.0,0.0,0.0,0.0,0.0,0.0,0.0,0.0,0.0,0.0,0.0,0.0,0.0,0.0,0.0,0.0,0.0,0.0,0.0,0.0,0.0,0.0,0.0,0.0,0.0,0.0,0.0,0.0,0.0,0.0,0.0,0.0,0.0,0.0,0.0,0.0,0.0,0.0,0.0,0.0,0.0,0.0,0.0,0.0,0.0,0.0,0.0,0.0,0.0,0.0,0.0,0.0,0.0,0.0,0.0,1.9362,1.8325,1.7226,1.6125,1.5228,1.3919,1.2203,1.1885,1.2503,0.0,0.0,0.0,0.0,0.0,0.0,0.0,0.0,0.0,0.0,0.0,0.0,0.0,0.0,0.0,0.0,0.0,0.0,0.0,0.0,0.0,0.0,0.0,0.0,0.0,0.0,0.0,0.0,0.0,0.0,0.0,0.0,0.0,0.0,0.0,0.0,0.0,0.0,0.0,0.0,2.1837,2.0638,1.9499,0.0,0.0,0.0,0.0,0.0,0.0,1.1642,1.164,0.0,0.0,0.0,0.0,0.0,0.0,0.0,0.0,0.0,0.0,0.0,0.0,0.0,0.0,0.0,0.0,0.0,0.0,0.0,0.0,0.0,0.0,0.0,0.0,0.0,0.0,0.0,0.0,0.0,0.0,0.0,0.0,0.0,0.0,0.0,0.0,0.0,0.0,0.0,0.0,0.0,0.0,0.0,0.0,0.0,0.0,0.0,0.0,0.0,0.0,0.0,0.0,0.0,0.0,0.0,2.1316,1.9853,1.888,1.8489,1.7146,1.5589,1.3901,1.3499,1.3708,0.0,0.0,0.0,0.0,0.0,0.0,0.0,0.0,0.0,0.0,0.0,0.0,0.0,0.0,0.0,0.0,0.0,0.0,0.0,0.0,0.0,0.0,0.0,0.0,0.0,0.0,0.0,0.0,0.0,0.0,0.0,0.0,0.0,0.0,0.0,0.0,0.0,0.0,0.0,0.0,0.0,2.2591,2.0003,1.9426,0.0,0.0,0.0,0.0,1.4566,1.3385,0.0,0.0,0.0,0.0,0.0,0.0,0.0,0.0,0.0,0.0,0.0,0.0,0.0,0.0,0.0,0.0,0.0,0.0,0.0,0.0,0.0,0.0,0.0,0.0,0.0,0.0,0.0,0.0,0.0,0.0,0.0,0.0,0.0,0.0,0.0,0.0,0.0,0.0,0.0,0.0,0.0,0.0,0.0,0.0,0.0,0.0,0.0,0.0,0.0,0.0,0.0,0.0,0.0,0.0,0.0,0.0,2.1514,2.1928,2.0971,1.8675,1.8308,1.7345,1.5644,1.4918,1.5051,0.0,0.0,0.0,0.0,0.0,0.0,0.0,0.0,0.0,0.0,0.0,0.0,0.0,0.0,0.0,0.0,0.0,0.0,0.0,0.0,0.0,0.0,0.0,0.0,0.0,0.0,0.0,0.0,0.0,0.0,0.0,0.0,0.0,0.0,0.0,0.0,0.0,0.0,0.0,0.0,0.0,2.2912,1.9478,1.8998,1.8801,0.0,0.0,1.6361,1.608,1.5322,0.0,0.0,0.0,0.0,0.0,0.0,0.0,0.0,0.0,0.0,0.0,0.0,0.0,0.0,0.0,0.0,0.0,0.0,0.0,0.0,0.0,0.0,0.0,0.0,0.0,0.0,0.0,0.0,0.0,0.0,0.0,0.0,0.0,0.0,0.0,0.0,0.0,0.0,0.0,0.0,0.0,0.0,0.0,0.0,0.0,0.0,0.0,0.0,0.0,0.0,0.0,0.0,0.0,0.0,0.0,2.4175,2.3626,2.3937,2.3709,2.2788,2.1839,2.0574,1.8818,1.7097,1.6197,0.0,0.0,0.0,0.0,0.0,0.0,0.0,0.0,0.0,0.0,0.0,0.0,0.0,0.0,0.0,0.0,0.0,0.0,0.0,0.0,0.0,0.0,0.0,0.0,0.0,0.0,0.0,0.0,0.0,0.0,0.0,0.0,0.0,0.0,0.0,0.0,0.0,0.0,0.0,0.0,0.0,0.0,1.9826,1.9419,0.0,0.0,0.0,1.8102,1.8045,0.0,0.0,0.0,0.0,0.0,0.0,0.0,0.0,0.0,0.0,0.0,0.0,0.0,0.0,0.0,0.0,0.0,0.0,0.0,0.0,0.0,0.0,0.0,0.0,0.0,0.0,0.0,0.0,0.0,0.0,0.0,0.0,0.0,0.0,0.0,0.0,0.0,0.0,0.0,0.0,0.0,0.0,0.0,0.0,0.0,0.0,0.0,0.0,0.0,0.0,0.0,0.0,0.0,0.0,0.0,0.0,0.0,2.5049,2.564,2.5829,2.5644,2.4605,2.3365,2.1918,1.9496,0.0,0.0,0.0,0.0,0.0,0.0,0.0,0.0,0.0,0.0,0.0,0.0,0.0,0.0,0.0,0.0,0.0,0.0,0.0,0.0,0.0,0.0,0.0,0.0,0.0,0.0,0.0,2.1035,0.0,0.0,0.0,0.0,0.0,0.0,0.0,0.0,0.0,0.0,0.0,0.0,0.0,0.0,2.3111,2.0974,2.0503,2.0451,0.0,0.0,1.954,1.9866,1.881,1.8233,0.0,0.0,0.0,0.0,0.0,0.0,0.0,0.0,0.0,0.0,0.0,0.0,0.0,0.0,0.0,0.0,0.0,0.0,0.0,0.0,0.0,0.0,0.0,0.0,0.0,0.0,0.0,0.0,0.0,0.0,0.0,0.0,0.0,0.0,0.0,0.0,0.0,0.0,0.0,0.0,0.0,0.0,0.0,0.0,0.0,0.0,0.0,0.0,0.0,0.0,0.0,0.0,0.0,0.0,2.5296,2.4727,2.6614,2.672,2.4885,2.5062,2.4952,2.4426,2.2093,2.0549,0.0,0.0,0.0,0.0,0.0,0.0,0.0,0.0,0.0,0.0,0.0,0.0,0.0,0.0,0.0,0.0,0.0,0.0,0.0,0.0,0.0,0.0,0.0,0.0,0.0,0.0,0.0,0.0,0.0,0.0,0.0,0.0,0.0,0.0,0.0,0.0,0.0,0.0,0.0,0.0,0.0,2.5092,2.3409,2.2529,2.2125,0.0,2.0772,1.9866,2.1252,2.06,2.0033,2.018,0.0,0.0,0.0,0.0,0.0,0.0,0.0,0.0,0.0,0.0,0.0,0.0,0.0,0.0,0.0,0.0,0.0,0.0,0.0,0.0,0.0,0.0,0.0,0.0,0.0,0.0,0.0,0.0,0.0,0.0,0.0,0.0,0.0,0.0,0.0,0.0,0.0,0.0,0.0,0.0,0.0,0.0,0.0,0.0,0.0,0.0,0.0,0.0,0.0,0.0,0.0,0.0,0.0,2.6042,2.5733,2.7519,2.8239,2.7701,2.6854,2.6334,2.6186,2.3687,2.2084,0.0,0.0,0.0,0.0,0.0,0.0,0.0,0.0,0.0,0.0,0.0,0.0,0.0,0.0,0.0,0.0,0.0,0.0,0.0,0.0,0.0,0.0,0.0,0.0,0.0,0.0,0.0,0.0,2.2865,2.291,2.2847,0.0,0.0,0.0,0.0,0.0,0.0,0.0,0.0,0.0,0.0,2.5142,2.4192,2.3845,0.0,0.0,2.2936,2.2266,2.2766,2.2418,2.1946,2.1678,2.0919,0.0,0.0,0.0,0.0,0.0,0.0,0.0,0.0,0.0,0.0,0.0,0.0,0.0,0.0,0.0,0.0,0.0,0.0,0.0,0.0,0.0,0.0,0.0,0.0,0.0,0.0,0.0,0.0,0.0,0.0,0.0,0.0,0.0,0.0,0.0,0.0,0.0,0.0,0.0,0.0,0.0,0.0,0.0,0.0,0.0,0.0,0.0,0.0,0.0,0.0,0.0,0.0,2.707,2.7319,2.9022,3.0072,3.0377,2.9374,2.8793,2.8584,2.5992,2.4175,0.0,0.0,0.0,0.0,0.0,0.0,0.0,0.0,0.0,0.0,0.0,0.0,0.0,0.0,0.0,0.0,0.0,0.0,0.0,0.0,0.0,0.0,0.0,0.0,0.0,0.0,0.0,0.0,2.3276,2.3105,2.2916,0.0,0.0,0.0,0.0,0.0,0.0,0.0,0.0,0.0,0.0,2.5728,2.5623,2.5272,2.5071,2.5322,2.4269,2.3541,2.4027,2.3469,2.3005,2.3011,0.0,0.0,0.0,0.0,0.0,0.0,0.0,0.0,0.0,0.0,0.0,0.0,0.0,0.0,0.0,0.0,0.0,0.0,0.0,0.0,0.0,0.0,0.0,0.0,0.0,0.0,0.0,3.1288,0.0,0.0,3.3023,0.0,0.0,0.0,0.0,0.0,0.0,0.0,0.0,0.0,0.0,0.0,0.0,0.0,0.0,0.0,0.0,0.0,0.0,0.0,0.0,0.0,0.0,2.8355,2.9338,3.1074,3.2112,3.2196,3.2641,3.255,3.2033,2.9127,2.7184,2.6458,0.0,0.0,0.0,0.0,0.0,0.0,0.0,0.0,0.0,0.0,0.0,0.0,0.0,0.0,0.0,0.0,0.0,0.0,0.0,0.0,0.0,0.0,0.0,0.0,0.0,0.0,2.373,2.3389,2.2978,0.0,0.0,0.0,0.0,0.0,0.0,0.0,0.0,0.0,2.4914,2.6152,2.7231,2.8014,2.6961,2.6144,2.6437,2.4304,2.3218,2.4916,2.3738,2.2898,0.0,0.0,0.0,0.0,0.0,0.0,0.0,0.0,0.0,0.0,0.0,0.0,0.0,0.0,0.0,0.0,0.0,0.0,0.0,0.0,0.0,0.0,0.0,0.0,0.0,0.0,0.0,3.3345,3.3,0.0,0.0,0.0,0.0,0.0,0.0,0.0,0.0,0.0,0.0,0.0,3.5629,3.4891,0.0,0.0,0.0,0.0,0.0,0.0,0.0,0.0,0.0,0.0,0.0,0.0,2.9038,2.9464,3.0923,3.1906,3.228,3.2448,3.2448,3.2292,3.1029,2.9121,2.662,0.0,0.0,0.0,0.0,0.0,0.0,0.0,0.0,0.0,0.0,0.0,0.0,0.0,0.0,0.0,0.0,0.0,0.0,0.0,0.0,0.0,0.0,0.0,0.0,0.0,2.3252,0.0,0.0,0.0,0.0,0.0,0.0,0.0,0.0,0.0,0.0,2.4033,2.4541,2.54,2.6387,2.7217,2.7803,2.7482,2.7308,0.0,0.0,0.0,0.0,0.0,0.0,0.0,0.0,0.0,0.0,0.0,0.0,0.0,0.0,1.9623,1.7152,1.6547,1.644,1.654,0.0,0.0,0.0,0.0,0.0,0.0,0.0,0.0,0.0,0.0,0.0,0.0,0.0,0.0,3.6061,3.5726,3.5292,0.0,0.0,0.0,0.0,0.0,0.0,0.0,0.0,3.8002,3.8297,3.848,3.8155,3.736,3.6275,3.5696,3.4084,0.0,0.0,0.0,0.0,0.0,0.0,0.0,0.0,3.0191,3.043,3.1658,3.2602,3.3091,3.3163,3.3163,3.3103,3.2289,3.0426,2.7388,2.5428,2.376,0.0,0.0,0.0,0.0,0.0,0.0,0.0,0.0,0.0,0.0,0.0,0.0,0.0,0.0,0.0,0.0,0.0,0.0,0.0,0.0,0.0,0.0,0.0,2.3886,0.0,0.0,0.0,0.0,0.0,0.0,0.0,0.0,0.0,2.5249,2.5169,2.5678,2.6832,2.7247,2.7572,2.8013,0.0,0.0,0.0,0.0,0.0,0.0,0.0,2.6289,2.6006,2.6084,2.5904,2.5148,2.4546,2.3947,2.328,0.0,0.0,1.8549,1.7749,1.7436,1.7096,1.7139,1.7172,1.7027,1.6433,1.5685,0.0,0.0,0.0,0.0,3.7329,0.0,0.0,0.0,3.9269,3.9199,0.0,3.795,0.0,0.0,0.0,0.0,3.7354,3.8999,0.0,0.0,4.1006,4.1283,4.0598,3.9648,3.9143,3.9059,3.8505,3.759,3.62,3.2632,0.0,0.0,0.0,0.0,0.0,0.0,3.1703,3.2223,3.3283,3.4141,3.4635,3.466,3.4693,3.4635,3.3026,3.115,2.8981,2.7323,2.5815,2.4458,2.2898,0.0,0.0,0.0,0.0,0.0,0.0,0.0,0.0,0.0,0.0,0.0,0.0,0.0,0.0,0.0,0.0,0.0,0.0,0.0,0.0,2.6251,0.0,0.0,0.0,0.0,0.0,0.0,0.0,0.0,0.0,2.8616,2.7629,2.717,2.7551,2.9157,0.0,0.0,0.0,0.0,2.7816,2.6685,2.6055,2.5762,2.5791,2.6143,2.6387,2.6377,0.0,0.0,2.6455,2.6406,2.5831,2.4126,2.3872,2.3066,2.0872,1.9722,1.8862,1.79,1.7452,1.7326,1.7554,1.7469,1.7029,4.1833,0.0,0.0,0.0,0.0,3.9548,4.0187,4.1057,4.1057,4.0572,3.974,3.9393,0.0,0.0,0.0,0.0,0.0,0.0,4.1211,4.1655,4.2041,4.2273,4.2484,4.2228,4.1616,4.0855,4.0339,3.9205,3.7578,3.5666,3.3954,3.2526,0.0,0.0,0.0,0.0,3.2551,3.289,3.3533,3.4173,3.4713,3.468,3.468,3.468,3.3849,3.254,3.0723,2.9843,2.8502,2.6694,2.5727,0.0,0.0,0.0,0.0,0.0,0.0,0.0,0.0,0.0,0.0,0.0,0.0,0.0,0.0,0.0,0.0,0.0,0.0,0.0,2.6004,2.5501,2.5125,0.0,0.0,0.0,0.0,0.0,0.0,0.0,0.0,0.0,3.0777,2.9293,2.8554,0.0,0.0,2.9118,2.9193,2.8641,2.8181,2.8109,2.7292,0.0,2.707,2.6709,2.6387,2.6387,2.6494,2.6523,2.6416,2.6631,2.6686,2.6126,2.5817,2.5095,2.3433,2.1115,1.9494,1.9036,1.8227,1.7534,1.7562,1.7589,1.7457,4.4884,4.2912,4.1893,4.162,4.185,4.2108,4.274,4.3584,4.3584,4.3169,4.2482,4.1909,4.0818,3.9233,3.9079,0.0,0.0,0.0,4.2156,4.2746,4.2746,4.2955,4.3275,4.3305,4.2955,4.226,4.1686,4.0749,3.9407,3.8445,3.7114,3.5525,0.0,3.3706,3.3095,3.3571,3.3675,3.3396,3.3943,3.4188,3.406,3.4073,3.4268,3.4681,3.4392,3.3733,3.2722,3.1933,3.062,2.8804,2.7542,2.6733,0.0,0.0,0.0,0.0,0.0,0.0,0.0,0.0,0.0,0.0,0.0,2.769,2.7485,0.0,0.0,0.0,2.7581,2.7373,2.6782,2.6523,0.0,0.0,0.0,0.0,0.0,0.0,0.0,3.1182,3.1574,3.1838,3.2135,3.1227,3.057,3.0831,3.0451,3.0135,3.0124,0.0,2.9299,2.9058,2.8446,2.7885,2.7673,2.7332,2.7013,2.6652,2.6631,2.6641,2.6641,2.6728,2.6758,2.6719,2.6416,2.5866,2.5023,2.2873,2.0802,1.9782,1.8499,1.7635,1.7589,1.7589,1.7589,4.7309,4.71,4.4706,4.4007,4.4601,4.52,4.5813,4.6354,4.6354,4.6339,4.619,4.4979,4.4037,4.329,4.2102,0.0,4.2485,4.247,4.2761,4.3305,4.3305,4.3305,4.3305,4.3305,4.326,4.32,4.2641,4.2036,4.128,4.0696,3.9738,3.8446,3.6155,3.4906,3.4817,3.5256,3.5006,3.402,3.455,3.4358,3.3398,3.3356,3.3827,3.4787,3.4828,3.4828,3.4787,3.3701,3.2446,3.1101,2.9012,2.8051,2.8438,0.0,0.0,0.0,0.0,0.0,0.0,0.0,0.0,0.0,0.0,0.0,0.0,0.0,0.0,2.7888,2.8094,0.0,2.8239,2.8604,0.0,0.0,0.0,2.8674,2.9792,2.9917,3.0319,3.1336,0.0,0.0,3.2277,3.2742,3.3124,3.3124,3.2096,3.1356,3.1368,3.127,3.088,2.9828,2.953,2.9101,2.8211,2.8103,2.778,2.693,2.6914,2.6795,2.6816,2.6572,2.6357,2.6328,2.6006,2.5693,2.5684,2.447,2.2926,2.0487,1.8864,1.7786,1.7635,1.7589,1.7575,4.7309,4.7249,4.6636,4.6456,4.6606,4.6756,4.692,4.707,4.707,4.68,4.6292,4.595,4.5185,4.3992,4.32,4.2955,4.3105,4.3105,4.314,4.329,4.3305,4.3305,4.3305,4.3305,4.3075,4.2596,4.2485,4.1811,4.0666,4.0472,3.9993,3.9164,3.8544,3.7609,3.6353,3.6379,3.6202,3.5622,3.5772,3.5748,3.5494,3.5453,3.5574,3.5814,3.5854,3.5854,3.5814,3.5573,3.5211,3.4861,3.3501,3.2596,3.2286,3.0194,0.0,0.0,0.0,0.0,0.0,0.0,0.0,0.0,0.0,2.79,2.7931,0.0,2.8908,0.0,2.927,2.9233,2.937,2.8725,0.0,0.0,2.9561,2.9817,3.0884,3.1009,3.1273,3.1938,3.2127,3.2378,3.2817,3.2993,3.3124,3.3124,3.284,3.2655,3.2612,3.2095,3.1636,3.1317,3.0787,3.0278,2.9914,2.8919,2.7703,2.6261,2.6005,2.5996,2.6045,2.5908,2.5898,2.5889,2.5771,2.5693,2.5684,2.4609,2.3633,2.2717,2.0794,1.8812,1.7838,1.7635,1.7568,4.7309,4.7309,4.7309,4.7309,4.7309,4.7309,4.7309,4.7309,4.7309,4.71,4.6741,4.6399,4.5574,4.4302,4.3928,4.3574,4.3305,4.3305,4.3305,4.3305,4.3305,4.3305,4.3305,4.3305,4.2985,4.2396,4.2111,4.1437,4.0427,4.0098,3.9783,3.9388,3.9388,3.8911,3.8004,3.7952,3.7618,3.693,3.6448,3.6198,3.6198,3.6198,3.627,3.6469,3.6469,3.6342,3.6089,3.6075,3.5847,3.5358,3.4437,3.3813,3.3491,3.1806,3.0524,0.0,0.0,0.0,0.0,0.0,0.0,0.0,0.0,0.0,0.0,0.0,3.0213,3.0765,3.089,3.1092,3.1472,3.0759,3.065,3.1549,3.0988,3.0746,3.1336,3.1599,3.1876,3.2177,3.2441,3.2717,3.3074,3.3124,3.3124,3.3124,3.3124,3.3124,3.3093,3.2697,3.2414,3.2427,3.206,3.1541,3.1055,2.9248,2.7644,2.6729,2.6062,2.5684,2.5684,2.5684,2.5684,2.5684,2.5684,2.5684,2.5684,2.5177,2.4414,2.331,2.1761,1.9964,1.8604,1.774,1.7128,4.7309,4.7309,4.7309,4.7309,4.7309,4.7309,4.7309,4.7309,4.7309,4.7309,4.7264,4.6621,4.5577,4.4451,4.4347,4.3902,4.3319,4.3305,4.3305,4.3305,4.3305,4.3305,4.3305,4.3215,4.2865,4.2246,4.1564,4.092,4.0262,3.9709,3.9388,3.9388,3.9388,3.9388,3.9388,3.9388,3.8943,3.8017,3.7098,3.6604,3.6604,3.6604,3.6735,3.6989,3.6996,3.6722,3.6143,3.61,3.5675,3.4752,3.4144,3.3796,3.3768,3.2744,3.1909,0.0,3.0769,0.0,0.0,0.0,0.0,0.0,0.0,0.0,0.0,3.1464,3.1725,3.1956,3.2556,3.3092,3.3448,3.3144,3.297,3.2998,3.2093,3.1501,3.159,3.1896,3.2102,3.2102,3.2616,3.2968,3.2943,3.3018,3.3124,3.3124,3.3124,3.3124,3.3124,3.3093,3.3032,3.3124,3.3124,3.2518,3.1273,2.9314,2.7846,2.7542,2.6524,2.5732,2.5684,2.5625,2.5586,2.5625,2.5499,2.5479,2.5508,2.5489,2.4977,2.357,2.2219,2.0819,1.9295,1.7816,1.6757,4.7309,4.7309,4.7309,4.7309,4.7309,4.7309,4.7309,4.7309,4.7309,4.7309,4.7249,4.6606,4.5888,4.508,4.4556,4.3902,4.3305,4.3305,4.3305,4.3305,4.3305,4.3305,4.326,4.2791,4.2246,4.1587,4.0905,4.0247,3.9619,3.9448,3.9388,3.9388,3.9388,3.9388,3.9388,0.0,0.0,0.0,3.8892,3.8804,3.8782,3.8782,3.8567,3.8109,3.808,0.0,3.7159,3.7114,3.7045,3.6792,3.6232,0.0,0.0,0.0,0.0,0.0,0.0,0.0,0.0,0.0,0.0,0.0,3.2926,3.2481,3.156,3.2927,3.3588,3.2939,3.3397,3.3506,3.2866,3.2726,3.2869,3.3209,3.2463,3.2045,3.2463,3.1977,3.1549,3.1562,3.2039,3.2378,3.2416,3.278,3.3111,3.3124,3.3124,3.3124,3.3124,3.3124,3.3124,3.3124,3.3099,3.2643,3.14,2.9977,2.849,2.7757,2.6524,2.5752,2.5615,2.54,2.5195,2.5185,2.4902,2.4697,2.4641,2.4678,2.4584,2.4169,2.2898,2.1199,1.9071,1.7626,1.664,4.7309,4.7309,4.7309,4.7309,0.0,4.7309,4.7309,4.7309,4.7309,4.7309,4.7249,4.6621,4.5948,4.5259,4.4601,4.3917,4.3305,4.3305,4.3305,4.3305,4.3305,4.3305,4.3275,4.2656,4.2051,4.1369,4.0711,4.0068,3.9418,3.9388,3.9388,3.9388,3.9388,3.9388,3.9373,3.908,3.908,3.9388,3.9388,3.9388,3.9388,3.9388,3.8945,3.7958,3.7913,0.0,0.0,0.0,0.0,0.0,0.0,0.0,0.0,0.0,0.0,3.4502,3.4173,3.3829,3.3514,3.3484,3.3469,3.3499,3.3799,3.3694,3.3021,3.4203,3.482,3.4365,3.4861,3.5044,3.46,3.4341,3.4333,3.457,3.3751,3.2999,3.25,3.224,3.18,3.1203,3.1712,3.2202,3.2202,3.2717,3.3099,3.3124,3.3124,3.3124,3.3124,3.3124,3.3124,3.3111,3.2805,3.2459,3.1656,2.988,2.85,2.7688,2.6259,2.522,2.504,2.4902,2.4746,2.4727,2.456,2.4424,2.4424,2.4424,2.4365,2.4059,2.2961,2.1658,2.0105,1.8902,1.7838,4.7309,4.7309,4.7309,4.7309,4.7309,4.7309,4.7309,4.7309,4.7309,0.0,0.0,4.6578,4.5948,4.5274,4.4601,4.3917,4.3305,4.3305,4.3305,4.3305,4.3305,4.3245,4.3135,4.2491,4.1886,4.1227,4.0531,3.9948,3.9403,3.9388,3.9388,3.9388,3.9388,3.9328,3.9215,3.8676,3.8616,3.9,3.9014,3.908,3.9029,3.9029,3.8467,3.7285,3.724,3.6701,3.5549,3.5489,3.5489,3.5489,3.5489,3.5489,3.5489,3.5489,3.5489,3.5489,3.5489,3.525,3.4728,3.4683,3.4427,3.3888,3.4352,3.4698,3.4698,3.5175,3.5489,3.5489,3.5998,3.6297,3.6327,3.6035,3.5838,3.5803,3.4862,3.3669,3.235,3.2288,3.1889,3.0844,3.1399,3.2064,3.2064,3.2654,3.3124,3.3124,3.3124,3.3124,3.3124,3.3124,3.3124,3.3086,3.2654,3.2198,3.1833,3.0088,2.8266,2.7876,2.6135,2.468,2.445,2.4355,2.4307,2.4307,2.4268,2.417,2.418,2.4131,2.4027,2.375,2.2889,2.2089,2.1625,2.0854,1.9704,4.7309,4.7309,4.7309,4.7309,4.7309,4.7309,4.7309,4.7309,4.7309,4.7309,4.7264,4.6621,4.5948,4.5259,4.4616,4.3917,4.3305,4.3305,4.3305,4.3305,4.3305,4.303,4.2515,4.1856,4.1212,4.0516,3.9873,3.9478,3.9403,3.9388,3.9388,3.9388,3.9388,3.9125,3.8571,3.8437,3.8167,3.7704,3.7689,3.7689,3.7689,3.7704,3.7345,3.6656,3.6626,3.6282,3.5534,3.5489,3.5489,3.5489,3.5489,3.5489,3.5489,3.5522,3.5489,3.5489,3.5489,3.5459,3.5355,3.537,3.5325,3.525,3.531,3.537,3.537,3.5444,3.5489,3.5504,3.5609,3.5639,3.5639,3.5594,3.557,3.5507,3.4666,3.3641,3.2651,3.1947,3.1196,3.02,3.0846,3.1524,3.1637,3.2441,3.3124,3.3124,3.3124,3.3124,3.3124,3.3124,3.3124,3.3061,3.2591,3.2252,3.1859,3.0634,2.8959,2.8015,2.6699,2.5289,2.4398,2.4072,2.3887,2.3877,2.3588,2.3374,2.3335,2.3276,2.3315,2.3237,2.2973,2.2807,2.2731,2.2501,2.1765,4.7309,4.7309,4.7309,4.7309,4.7309,4.7309,4.7309,4.7309,4.7309,4.7309,4.7189,4.6217,4.5589,4.5214,4.4227,4.3574,4.3305,4.3305,4.3305,4.3305,4.3305,4.2985,4.2381,4.1722,4.104,4.0382,3.9723,3.9388,3.9388,3.9388,3.9388,3.9358,3.905,3.8691,3.8377,3.7704,3.721,3.6926,3.7225,3.7404,3.7404,3.7404,3.7105,3.6507,3.6492,3.6178,3.5534,3.5489,3.5668,3.6086,3.5701,3.5878,3.6692,3.6337,3.6117,3.6117,3.6102,3.5911,3.5522,3.5489,3.5489,3.5489,3.5489,3.5489,3.5489,3.5489,3.5489,3.5489,3.5489,3.5489,3.5489,3.5489,3.5489,3.5489,3.5052,3.4409,3.3463,3.2536,3.1596,3.0786,3.1053,3.1373,3.1386,3.2365,3.3111,3.3124,3.3124,3.3124,3.3124,3.3124,3.2955,3.2641,3.2139,3.1675,3.1358,2.9931,2.8433,2.7302,2.6163,2.5011,2.3979,2.3535,2.3467,2.3437,2.3262,2.312,2.3101,2.3101,2.3101,2.3101,2.3101,2.3101,2.3101,2.3101,2.2448,4.7309,4.7309,4.7309,4.7309,4.7309,4.7309,4.7309,4.7309,4.7309,4.7309,4.7115,4.5888,4.5289,4.5155,4.3928,4.3305,4.3329,4.3551,4.3527,4.3369,4.3756,4.3448,4.25,4.1919,4.1293,4.0465,3.9742,3.9388,3.9388,3.9388,3.9388,3.9328,3.8886,3.8482,3.8138,3.7195,3.6567,3.6312,3.6731,3.6985,3.6971,3.6985,3.6746,3.6312,3.6267,3.6097,3.5763,3.575,3.6006,3.6523,3.6212,3.6477,3.7442,3.7114,3.6873,3.6889,3.6889,3.6538,3.5846,3.5602,3.5489,3.5489,3.5489,3.5489,3.5489,3.5489,3.5489,3.5489,3.5489,3.5489,3.5489,3.5489,3.5489,3.5489,3.5489,3.5034,3.4109,3.3283,3.2404,3.1596,3.1483,3.1587,3.175,3.2441,3.3086,3.3124,3.3124,3.3124,3.3124,3.3124,3.2817,3.2164,3.165,3.126,3.0656,2.9512,2.8122,2.6771,2.5872,2.4807,2.3707,2.312,2.3101,2.313,2.312,2.3101,2.3101,2.3101,2.3101,2.3101,2.3101,2.3101,2.3101,2.3101,2.2677,4.7309,4.7309,4.7352,4.7309,4.7309,4.7309,4.7309,4.7352,4.7309,4.7309,4.7289,4.5888,4.5357,4.511,4.3968,4.3369,4.3488,4.4259,4.422,4.3654,4.5143,4.478,4.2824,4.2674,4.1983,4.0747,3.9859,3.9553,3.9538,3.9481,3.946,3.9388,3.9349,3.8747,3.7663,3.7394,3.6765,3.5624,3.5654,3.5684,3.5684,3.5684,3.5654,3.5609,3.5594,3.5874,3.6477,3.6492,3.6523,3.6646,3.7235,3.7308,3.6919,3.7338,3.769,3.7706,3.769,3.7338,3.6538,3.5863,3.5522,3.5489,3.5489,3.5489,3.5489,3.5489,3.5489,3.5489,3.5489,3.5489,3.5489,3.5489,3.5489,3.5519,3.5549,3.51,3.4278,3.3592,3.2981,3.2021,3.2142,3.2127,3.2152,3.2679,3.3099,3.3124,3.3124,3.3124,3.3124,3.3124,3.2717,3.1851,3.1411,3.1173,3.0618,3.0104,2.8718,2.6999,2.6442,2.5316,2.3897,2.3101,2.3101,2.3101,2.3101,2.3101,2.3101,2.3101,2.3101,2.3101,2.3101,2.3101,2.3101,2.3101,2.2633,4.8183,4.8183,4.8183,4.7834,4.7337,4.7309,4.7651,4.8183,4.8183,4.8527,4.8898,4.766,4.6701,4.606,4.4762,4.4457,4.5048,4.5436,4.54,4.5069,4.5854,4.5228,4.3674,4.3564,4.2837,4.1524,4.1095,4.0927,4.0927,4.0943,4.0927,4.0881,4.0538,3.9854,3.8933,3.8497,3.7826,3.6906,3.686,3.686,3.6814,3.6384,3.6149,3.6196,3.6585,3.6965,3.7279,3.7293,3.7499,3.7901,3.7876,3.8076,3.8635,3.8553,3.8442,3.8442,3.8035,3.7456,3.663,3.6306,3.5975,3.5522,3.5489,3.5489,3.5489,3.5489,3.5489,3.5489,3.5489,3.5489,3.5489,3.5489,3.5489,3.5549,3.5848,3.5926,3.5543,3.515,3.4545,3.3612,3.3238,3.2841,3.2458,3.2717,3.3043,3.3124,3.3124,3.3124,3.3124,3.3124,3.2729,3.2051,3.1625,3.1035,3.0382,3.0281,2.9107,2.7313,2.6483,2.5694,2.3767,2.3101,2.3101,2.3101,2.3101,2.3101,2.3101,2.3101,2.3101,2.3101,2.3101,2.3101,2.3101,2.3101,2.2818,4.8784,4.8825,4.911,4.8815,4.8157,4.8157,4.8584,4.9175,4.9231,4.9694,5.0215,4.8909,4.8025,4.7369,4.5896,4.5561,4.6173,4.647,4.6419,4.6314,4.6696,4.6069,4.4574,4.4461,4.3735,4.2509,4.2093,4.1949,4.1981,4.1981,4.1981,4.1901,4.1517,4.0813,3.9918,3.9402,3.8715,3.7873,3.7822,3.7822,3.7719,3.7424,3.7128,3.6994,3.7485,3.7892,3.8092,3.8076,3.833,3.8854,3.8613,3.8816,3.9679,3.942,3.9236,3.9166,3.8497,3.7777,3.6994,3.6737,3.6275,3.5604,3.5489,3.5489,3.5489,3.5489,3.5489,3.5489,3.5489,3.5489,3.5489,3.5489,3.5579,3.5759,3.6222,3.6522,3.6664,3.6254,3.5427,3.4744,3.3927,3.3349,3.2714,3.283,3.3124,3.3124,3.3124,3.3124,3.3124,3.3111,3.2867,3.2328,3.1976,3.1399,3.0319,3.0118,2.9168,2.7527,2.6483,2.5724,2.3681,2.3178,2.3101,2.3101,2.3101,2.3101,2.3101,2.3101,2.3101,2.3101,2.3101,2.3101,2.3101,2.3101,2.3101,4.8784,4.8988,4.9907,5.0242,5.0242,5.0181,5.0242,5.032,5.0336,5.0397,5.0374,4.9021,4.8812,4.9319,4.7219,4.6208,4.6349,4.7155,4.7138,4.6609,4.7998,4.7584,4.5417,4.5398,4.4673,4.3251,4.2552,4.2189,4.2109,4.2077,4.1981,4.2045,4.2077,4.1324,4.0262,4.0049,3.9209,3.8203,3.801,3.7908,3.795,3.8497,3.8425,3.7892,3.7835,3.8234,3.8772,3.8854,3.8881,3.8924,3.9532,3.9679,3.9166,3.9662,3.9995,3.9901,3.9262,3.8497,3.769,3.698,3.6275,3.5636,3.5489,3.5489,3.5489,3.5489,3.5489,3.5489,3.5549,3.5579,3.5564,3.5624,3.5818,3.6297,3.651,3.6821,3.733,3.6446,3.5464,3.5073,3.4065,3.3233,3.3036,3.3056,3.3124,3.3124,3.3124,3.3124,3.3124,3.3124,3.283,3.2554,3.2478,3.2403,3.0934,3.0457,2.9147,2.7394,2.6418,2.5735,2.4264,2.3101,2.3135,2.3178,2.3343,2.3343,2.3178,2.3101,2.3101,2.3101,2.3101,2.3101,2.3101,2.3101,2.3101,5.0188,5.0801,5.1192,5.1021,5.0413,5.0397,5.0757,5.134,5.134,5.174,5.2045,5.0804,5.0342,5.0559,4.8794,4.7982,4.8015,4.837,4.8289,4.808,4.8719,4.8037,4.6465,4.6331,4.5546,4.4248,4.3798,4.3663,4.3663,4.368,4.3663,4.368,4.3663,4.3132,4.2252,4.167,4.094,4.0032,3.9545,3.9279,3.9226,3.9532,3.9532,3.9305,3.9269,3.9385,3.9662,3.9662,3.9662,3.9662,3.9952,3.9952,3.9731,3.9927,3.985,3.9368,3.9043,3.837,3.7233,3.6798,3.6275,3.5619,3.5489,3.5489,3.5489,3.5489,3.5489,3.5564,3.5923,3.6103,3.6133,3.6133,3.6222,3.6522,3.721,3.7749,3.8023,3.7907,3.7445,3.5974,3.4323,3.3154,3.3124,3.3124,3.3124,3.3124,3.3124,3.3124,3.3124,3.3124,3.3011,3.278,3.2604,3.234,3.1876,3.1185,3.0105,2.8016,2.6565,2.5401,2.4026,2.3973,2.4049,2.4049,2.4049,2.4092,2.4049,2.3517,2.343,2.3101,2.3101,2.3101,2.3101,2.3101,2.3101,5.1467,5.2348,5.2435,5.201,5.1463,5.141,5.1793,5.24,5.2435,5.2835,5.3129,5.1894,5.1234,5.0948,4.9661,4.9018,4.9018,4.9001,4.9001,4.9018,4.9018,4.8223,4.6989,4.6786,4.6053,4.4801,4.4598,4.4598,4.4598,4.4598,4.4598,4.457,4.4598,4.4181,4.3392,4.2658,4.1948,4.1204,4.046,4.0087,4.0113,4.0113,4.0113,4.0096,4.0113,4.0113,4.0113,4.0113,4.0113,4.0113,4.0113,4.0113,4.0113,4.0113,3.974,3.9059,3.9166,3.8481,3.6948,3.6828,3.6538,3.5619,3.5489,3.5489,3.5519,3.5684,3.5804,3.5953,3.6387,3.6791,3.6836,3.6971,3.709,3.718,3.7883,3.8497,3.8671,3.8451,3.7286,3.5359,3.3969,3.3197,3.3124,3.3124,3.3124,3.3124,3.3124,3.3124,3.3124,3.3124,3.3124,3.3099,3.2767,3.2629,3.234,3.1913,3.0716,2.8757,2.7307,2.5828,2.4743,2.484,2.4935,2.4925,2.4999,2.5041,2.4755,2.4135,2.3637,2.3266,2.3101,2.3101,2.3101,2.3101,2.3101,5.2522,5.3348,5.3467,5.3348,5.323,5.3212,5.3399,5.3348,5.3399,5.3399,5.3315,5.1894,5.1234,5.0913,4.9678,4.9018,4.9018,4.9018,4.9018,4.9018,4.9018,4.8257,4.6955,4.6819,4.6024,4.4649,4.4598,4.4598,4.4598,4.4598,4.4598,4.4598,4.4598,4.4231,4.3453,4.2777,4.1999,4.1305,4.0578,4.018,4.0113,4.0113,4.0113,4.0113,4.0113,4.0113,4.0113,4.0113,4.0113,4.0113,4.0113,4.0113,4.0113,4.0113,3.974,3.9166,3.9584,3.8827,3.7038,3.7203,3.6874,3.5814,3.5489,3.5549,3.5699,3.6088,3.6417,3.6567,3.703,3.7419,3.7509,3.7958,3.8272,3.8362,3.8422,3.8751,3.8831,3.7506,3.5507,3.3898,3.3227,3.3124,3.3124,3.3124,3.3124,3.3124,3.3124,3.3124,3.3124,3.3124,3.3124,3.3124,3.3023,3.2923,3.281,3.2511,3.1028,2.951,2.831,2.7017,2.5902,2.5603,2.5895,2.5946,2.6243,2.6284,2.5378,2.4766,2.4178,2.3757,2.3517,2.3178,2.3101,2.3101,2.3101,5.3179,5.3467,5.3518,5.3518,5.3518,5.3518,5.3518,5.3518,5.3518,5.3518,5.323,5.1894,5.1234,5.0879,4.9678,4.9018,4.9018,4.9018,4.9018,4.9018,4.9018,4.8494,4.7614,4.7022,4.6024,4.4818,4.4598,4.4598,4.4598,4.4598,4.4598,4.4598,4.4598,4.4479,4.4181,4.3453,4.2692,4.1948,4.1238,4.0629,4.0163,4.0113,4.0113,4.0113,4.0113,4.0113,4.0113,4.0113,4.0113,4.0113,4.0113,4.0113,4.0113,4.0113,3.9731,3.9059,3.9113,3.8536,3.6948,3.6798,3.6615,3.5733,3.5504,3.5759,3.6103,3.6387,3.6716,3.709,3.7704,3.8093,3.8197,3.8706,3.8871,3.8452,3.8811,3.9089,3.8942,3.7482,3.5774,3.4428,3.3556,3.3167,3.3124,3.3124,3.3124,3.3124,3.3124,3.3124,3.3124,3.3124,3.3124,3.3124,3.3124,3.3124,3.2998,3.2872,3.2033,3.0753,2.9587,2.8368,2.7251,2.6652,2.6885,2.7138,2.7395,2.7116,2.6213,2.5546,2.5041,2.4296,2.3887,2.3551,2.3222,2.3091,2.3135,5.3518,5.3518,5.3518,5.3518,5.3518,5.3518,5.3518,5.3518,5.3518,5.3518,5.3196,5.1894,5.1234,5.0913,4.9661,4.9035,4.9018,4.9018,4.9018,4.9018,4.9018,4.8612,4.7804,4.6853,4.5805,4.4818,4.4598,4.4598,4.4598,4.4598,4.4598,4.4598,4.4598,4.4581,4.453,4.3826,4.3122,4.2625,4.1711,4.0984,4.0544,4.0248,4.0113,4.0113,4.0113,4.0113,4.0113,4.0113,4.0113,4.0113,4.0113,4.0113,4.0113,4.007,3.974,3.9139,3.9059,3.8591,3.6918,3.6919,3.6554,3.5795,3.5729,3.6028,3.6525,3.6791,3.7404,3.7764,3.8392,3.8781,3.8856,3.9125,3.9185,3.8841,3.9125,3.9002,3.8331,3.7046,3.5588,3.4345,3.3471,3.3197,3.3124,3.3124,3.3124,3.3124,3.3124,3.3124,3.3124,3.3124,3.3124,3.3124,3.3124,3.3124,3.3124,3.3048,3.2918,3.1974,3.0925,2.9699,2.8553,2.8219,2.8234,2.8447,2.874,2.8187,2.7371,2.6819,2.6273,2.5368,2.4542,2.4178,2.3887,2.3256,2.3135,5.3518,5.3518,5.3518,5.3518,5.3518,5.3518,5.3518,5.3518,5.3518,5.3518,5.3179,5.1877,5.1234,5.0896,4.9661,4.9018,4.9018,4.9018,4.9018,4.9018,4.8968,4.8578,4.7648,4.6549,4.5534,4.4716,4.4598,4.4598,4.4598,4.4598,4.4598,4.4598,4.4598,4.4598,4.4496,4.3842,4.346,4.3122,4.2083,4.1424,4.1136,4.0544,4.0163,4.013,4.0113,4.0113,4.0113,4.0113,4.0113,4.0113,4.0113,4.0113,4.0113,4.0087,3.9594,3.8935,3.9584,3.8591,3.7277,3.7241,3.7091,3.5879,3.6193,3.6567,3.6866,3.7629,3.8227,3.8437,3.899,3.9313,3.9313,3.9358,3.9343,3.9373,3.9343,3.8583,3.6643,3.6237,3.5359,3.3797,3.3124,3.3124,3.3124,3.3124,3.3124,3.3124,3.3124,3.3124,3.3124,3.3124,3.3124,3.3124,3.3124,3.3124,3.3124,3.3111,3.2993,3.2714,3.1901,3.1059,3.0007,2.9701,2.954,2.9727,2.9644,2.9098,2.8578,2.799,2.7406,2.6614,2.587,2.521,2.45,2.3833,2.3343,5.3518,5.3518,5.3518,5.3518,5.3518,5.3518,5.3518,5.3518,5.3518,5.3518,5.3179,5.1877,5.1234,5.1048,4.9678,4.9018,4.9018,4.9018,4.9018,4.9018,4.9018,4.8257,4.7293,4.6718,4.5821,4.4801,4.4632,4.4598,4.4598,4.4598,4.4598,4.4598,4.4598,4.4598,4.453,4.4333,4.3961,4.346,4.3088,4.2236,4.1339,4.1035,4.0629,4.0146,4.0113,4.0113,4.0113,4.0113,4.0113,4.0113,4.0113,4.0113,4.0045,3.9584,3.9199,3.9044,3.8574,3.7994,3.7089,3.7281,3.7186,3.6451,3.6806,3.7375,3.7853,3.8167,3.8646,3.899,3.9313,3.9388,3.9388,3.9388,3.9388,3.9388,3.9388,3.8568,3.6838,3.6119,3.5386,3.3543,3.3154,3.3124,3.3124,3.3124,3.3124,3.3124,3.3124,3.3124,3.3124,3.3124,3.3124,3.3124,3.3124,3.3124,3.3124,3.3124,3.3111,3.3056,3.2702,3.2379,3.1536,3.1071,3.0947,3.0941,3.0478,2.9933,2.9509,2.9,2.8374,2.7911,2.7003,2.6199,2.52,2.4457,2.3887,5.3518,5.3518,5.3518,5.3518,5.3518,5.3518,5.3518,5.3518,5.3518,5.3518,5.3162,5.1877,5.1234,5.1065,4.9678,4.9018,4.9018,4.9018,4.9018,4.9018,4.9018,4.8359,4.7445,4.7005,4.6177,4.5145,4.475,4.4615,4.4598,4.4598,4.4598,4.4598,4.4598,4.4598,4.4598,4.4581,4.4412,4.3927,4.3606,4.2902,4.2202,4.1491,4.1035,4.0527,4.0316,4.0113,4.0113,4.0113,4.0113,4.0113,4.0113,4.0113,4.002,3.9358,3.904,3.9232,3.8626,3.8011,3.7639,3.7791,3.7621,3.7158,3.7449,3.7943,3.8332,3.8616,3.9065,3.9298,3.9388,3.9388,3.9388,3.9388,3.9388,3.9388,3.9388,3.8679,3.7021,3.6487,3.5494,3.4207,3.3398,3.3124,3.3124,3.3124,3.3124,3.3124,3.3124,3.3124,3.3124,3.3124,3.3124,3.3124,3.3124,3.3124,3.3124,3.3124,3.3124,3.3081,3.3031,3.2855,3.2478,3.1964,3.1725,3.1474,3.1148,3.0816,3.0412,3.0103,2.9843,2.9197,2.8157,2.714,2.6201,2.5741,2.5051,5.3518,5.3518,5.3518,5.3518,5.3518,5.3518,5.3518,5.3518,5.3518,5.3518,5.3179,5.1877,5.1251,5.1083,4.9695,4.9018,4.9018,4.9018,4.9018,4.9018,4.8968,4.8612,4.802,4.7141,4.638,4.5585,4.4925,4.4666,4.4598,4.4598,4.4598,4.4598,4.4598,4.4598,4.4598,4.4598,4.4598,4.4401,4.3944,4.3494,4.3037,4.2219,4.1627,4.1288,4.0849,4.0603,4.0536,4.0468,4.0451,4.0367,4.0282,4.0367,4.0231,3.9624,3.9495,3.9795,3.9386,3.882,3.8634,3.8565,3.8374,3.7805,3.8123,3.8482,3.8661,3.9035,3.9313,3.9373,3.9388,3.9388,3.9388,3.9388,3.9388,3.9388,3.9388,3.8907,3.8069,3.693,3.5814,3.4815,3.3755,3.3197,3.3124,3.3124,3.3124,3.3124,3.3124,3.3124,3.3124,3.3124,3.3124,3.3124,3.3124,3.3124,3.3124,3.3124,3.3124,3.3124,3.3124,3.2986,3.2704,3.2315,3.2077,3.1838,3.1687,3.1562,3.1354,3.1163,3.0923,3.0562,2.9585,2.8427,2.7435,2.7334,2.6917,5.3518,5.3518,5.3518,5.3518,5.3518,5.3518,5.3518,5.3518,5.3518,5.3484,5.3145,5.186,5.1234,5.1099,4.9712,4.9018,4.9018,4.9018,4.9018,4.9018,4.9018,4.8951,4.846,4.7445,4.643,4.572,4.4987,4.4632,4.4598,4.4598,4.4598,4.4598,4.4598,4.4598,4.4598,4.4598,4.4598,4.4564,4.4367,4.3978,4.3538,4.3071,4.2523,4.2049,4.1813,4.1796,4.1839,4.1813,4.1813,4.1721,4.1339,4.1255,4.1454,4.0983,4.0694,4.0643,4.017,3.9451,3.898,3.922,3.91,3.8471,3.8847,3.92,3.92,3.929,3.9388,3.9388,3.9388,3.9403,3.9463,3.9403,3.9433,3.9448,3.9418,3.9301,3.8804,3.7315,3.5868,3.4856,3.3839,3.3124,3.3124,3.3124,3.3124,3.3124,3.3124,3.3124,3.3124,3.3124,3.3124,3.3124,3.3124,3.3124,3.3124,3.3124,3.3124,3.3124,3.3124,3.3111,3.283,3.2742,3.2528,3.2416,3.2328,3.2202,3.2051,3.1738,3.1446,3.1201,3.0941,2.9888,2.9041,2.8952,2.8337,5.3518,5.3518,5.3518,5.3518,5.3518,5.3518,5.3518,5.3518,5.3518,5.3281,5.2756,5.1691,5.1031,5.0608,4.956,4.9018,4.9018,4.9018,4.9018,4.9018,4.9018,4.9018,4.8697,4.7597,4.6532,4.6058,4.5106,4.4649,4.4598,4.4598,4.4598,4.4598,4.4598,4.4598,4.4598,4.4598,4.4598,4.4598,4.4598,4.435,4.4012,4.3572,4.3047,4.2439,4.2303,4.2303,4.2252,4.2269,4.2489,4.2625,4.2472,4.2219,4.2146,4.1644,4.1411,4.149,4.0899,4.0543,4.0356,4.0478,4.0433,3.9516,3.9843,3.9662,3.9553,3.9388,3.9388,3.9388,3.9418,3.9478,3.9798,3.9493,3.9508,3.9768,3.9604,3.9418,3.9068,3.7534,3.6053,3.5197,3.4108,3.3398,3.3124,3.3124,3.3124,3.3124,3.3124,3.3124,3.3124,3.3124,3.3124,3.3124,3.3124,3.3124,3.3124,3.3124,3.3124,3.3124,3.3124,3.3124,3.3023,3.3036,3.3061,3.2855,3.2679,3.2742,3.2579,3.224,3.1964,3.1797,3.1477,3.0937,3.054,3.015,2.9204,5.3518,5.3518,5.3518,5.3518,5.3518,5.3518,5.3518,5.3484,5.3365,5.2909,5.2232,5.1437,5.0642,5.005,4.9373,4.9035,4.9018,4.9018,4.9018,4.9018,4.9018,4.9018,4.8646,4.7597,4.6752,4.6616,4.5292,4.4649,4.4598,4.4598,4.4598,4.4598,4.4598,4.4598,4.4598,4.4598,4.4598,4.4598,4.4598,4.4581,4.4479,4.3944,4.3369,4.2997,4.2861,4.2861,4.2878,4.2895,4.2997,4.3538,4.3589,4.325,4.2692,4.2178,4.1922,4.2572,4.2084,4.1869,4.1851,4.1885,4.1513,4.0826,4.0466,4.015,3.9574,3.9388,3.9388,3.9448,3.9523,3.9843,4.0277,4.0172,4.0142,4.0337,4.0038,3.9783,3.9365,3.7921,3.7032,3.5894,3.4692,3.3713,3.3283,3.3124,3.3124,3.3136,3.3149,3.3162,3.3174,3.3162,3.3187,3.3136,3.3124,3.3124,3.3124,3.3124,3.3124,3.3248,3.3192,3.3124,3.3124,3.3124,3.3124,3.3124,3.3036,3.2993,3.298,3.2822,3.2554,3.2403,3.2189,3.1861,3.1529,3.122,3.0356,5.3518,5.3518,5.3518,5.3518,5.3518,5.3518,5.3518,5.3382,5.2841,5.2452,5.2114,5.0896,5.027,4.9881,4.9323,4.9018,4.9018,4.9018,4.9018,4.9018,4.9018,4.9018,4.8714,4.7513,4.6836,4.6397,4.5359,4.4615,4.4598,4.4598,4.4598,4.4598,4.4598,4.4598,4.4598,4.4598,4.4598,4.4598,4.4598,4.4598,4.453,4.4412,4.4215,4.3988,4.3955,4.3988,4.409,4.4158,4.4293,4.4395,4.4429,4.431,4.4079,4.3889,4.3889,4.3888,4.3676,4.3258,4.2937,4.2316,4.1626,4.0777,4.0185,3.9737,3.9445,3.9448,3.9553,3.9723,3.9993,4.0322,4.0382,4.0681,4.1025,4.1145,4.1055,4.092,4.068,3.9794,3.8274,3.6918,3.548,3.4237,3.3995,3.3629,3.337,3.3382,3.3388,3.3395,3.3445,3.3357,3.3312,3.3224,3.3124,3.3124,3.3124,3.3124,3.3136,3.3371,3.3371,3.3124,3.3124,3.3124,3.3124,3.3124,3.3081,3.3,3.3013,3.2982,3.2809,3.2388,3.2566,3.2757,3.2464,3.2117,3.2334,5.3518,5.3518,5.3518,5.3518,5.3518,5.3518,5.3518,5.3382,5.2655,5.208,5.1505,5.0591,4.9864,4.9526,4.9204,4.9018,4.9018,4.9018,4.9018,4.9018,4.9018,4.9018,4.8832,4.7479,4.6921,4.638,4.5376,4.4615,4.4598,4.4598,4.4598,4.4598,4.4598,4.4598,4.4598,4.4598,4.4598,4.4598,4.4598,4.4598,4.4598,4.4598,4.4598,4.4598,4.4598,4.4598,4.4598,4.4598,4.4581,4.4581,4.4581,4.4598,4.4598,4.4598,4.4598,4.4542,4.4196,4.3814,4.3229,4.2473,4.1642,4.0826,4.0255,3.9864,3.9643,3.9723,4.0023,4.0397,4.0621,4.1055,4.1429,4.1444,4.1572,4.1796,4.1677,4.1497,4.1323,4.0911,3.9736,3.8159,3.6728,3.5719,3.5072,3.4584,3.3921,3.3671,3.3621,3.3684,3.3784,3.3771,3.3696,3.3771,3.382,3.4104,3.4114,3.4016,3.39,3.4011,3.3819,3.3528,3.3199,3.3237,3.3174,3.3124,3.3025,3.2982,3.2612,3.2438,3.2382,3.2469,3.2692,3.2882,3.3031,3.3111,3.3124,5.3518,5.3518,5.3518,5.3518,5.3518,5.3518,5.3518,5.3315,5.2452,5.1758,5.115,5.027,4.9526,4.9137,4.9018,4.9018,4.9018,4.9018,4.9018,4.9018,4.9018,4.9018,4.8629,4.7817,4.6989,4.6583,4.5585,4.475,4.4598,4.4598,4.4598,4.4598,4.4598,4.4598,4.4598,4.4598,4.4598,4.4598,4.4598,4.4598,4.4598,4.4598,4.4598,4.4598,4.4598,4.4598,4.4598,4.4598,4.4598,4.4598,4.4598,4.4598,4.4598,4.4598,4.4598,4.444,4.3785,4.3396,4.3061,4.2189,4.1313,4.0724,4.0674,4.0223,4.0058,4.0262,4.0786,4.1317,4.1587,4.1752,4.2081,4.2028,4.2102,4.2336,4.2147,4.1818,4.1938,4.1775,4.1572,4.0023,3.8324,3.7088,3.629,3.5045,3.423,3.4198,3.4148,3.4186,3.4274,3.4399,3.4374,3.452,3.4736,3.5275,3.5366,3.5322,3.5303,3.5309,3.4878,3.4448,3.3855,3.3345,3.3282,3.3275,3.3124,3.2982,3.2426,3.2208,3.2525,3.2754,3.284,3.297,3.3081,3.3124,3.3124,5.3518,5.3518,5.3518,5.3518,5.3518,5.3518,5.3484,5.3281,5.1978,5.1319,5.1031,4.9813,4.9137,4.9035,4.9018,4.9018,4.9018,4.9018,4.9018,4.9018,4.9018,4.9018,4.89,4.8176,4.7394,4.6887,4.6024,4.5229,4.4902,4.475,4.4598,4.4598,4.4598,4.4598,4.4598,4.4598,4.4598,4.4598,4.4598,4.4598,4.4598,4.4598,4.4598,4.4598,4.4598,4.4598,4.4598,4.4598,4.4598,4.4598,4.4598,4.4598,4.4598,4.4598,4.4598,4.4355,4.3889,4.3276,4.2986,4.1835,4.095,4.0693,4.0624,4.0407,4.0554,4.0876,4.1339,4.1339,4.1916,4.2306,4.2575,4.2806,4.3045,4.3075,4.294,4.2856,4.2901,4.2527,4.2361,4.185,4.0137,3.8471,3.7263,3.581,3.4605,3.463,3.47,3.4726,3.5007,3.5307,3.5402,3.5596,3.5775,3.6245,3.6817,3.6737,3.6841,3.682,3.595,3.5306,3.4691,3.4083,3.3545,3.347,3.3345,3.3275,3.2972,3.2903,3.2989,3.2884,3.2785,3.2884,3.3081,3.3124,3.3124,5.3518,5.3518,5.3518,5.3518,5.3518,5.3518,5.323,5.2655,5.1691,5.0963,5.0456,4.9509,4.9018,4.9018,4.9018,4.9018,4.9018,4.9018,4.9018,4.9018,4.9018,4.9018,4.8832,4.8261,4.7648,4.7327,4.6752,4.6278,4.5715,4.5004,4.4598,4.4649,4.4615,4.4598,4.4666,4.4615,4.4598,4.4598,4.4598,4.4598,4.4598,4.4598,4.4598,4.4598,4.4598,4.4598,4.4598,4.4598,4.4598,4.4598,4.4598,4.4598,4.4598,4.4598,4.4598,4.4519,4.3687,4.2988,4.2445,4.1283,4.076,4.0669,4.0805,4.1123,4.1429,4.1767,4.2132,4.2491,4.2731,4.288,4.2895,4.3125,4.323,4.3305,4.3305,4.3305,4.3305,4.3305,4.2996,4.2534,4.1918,4.0181,3.8478,3.6862,3.5812,3.5658,3.5666,3.5616,3.6237,3.6968,3.6981,3.6897,3.7067,3.7259,3.7901,3.8208,3.8616,3.8366,3.6836,3.6204,3.5635,3.5061,3.435,3.4085,3.4148,3.396,3.3621,3.3276,3.3039,3.2835,3.2599,3.284,3.3124,3.3124,3.3124,5.3518,5.3518,5.3518,5.3518,5.3484,5.3298,5.2875,5.2249,5.1302,5.0608,5.0016,4.9357,4.9018,4.9018,4.9018,4.9018,4.9018,4.9018,4.9018,4.9018,4.9018,4.9018,4.8866,4.8426,4.8122,4.7906,4.7361,4.6904,4.6413,4.5867,4.5309,4.5122,4.5089,4.4942,4.484,4.4716,4.4598,4.4598,4.4598,4.4598,4.4598,4.4598,4.4598,4.4598,4.4598,4.4598,4.4598,4.4598,4.4598,4.4598,4.4598,4.4598,4.4598,4.4598,4.4784,4.4709,4.4064,4.3331,4.2582,4.1674,4.0835,4.0846,4.125,4.1916,4.2432,4.2611,4.2701,4.311,4.317,4.3245,4.329,4.3275,4.329,4.3305,4.3305,4.3305,4.3305,4.3305,4.325,4.286,4.2345,4.1726,3.997,3.814,3.7157,3.6785,3.6646,3.6526,3.7064,3.7782,3.7606,3.7339,3.8109,3.831,3.8863,3.9451,3.9995,3.988,3.8334,3.7144,3.6569,3.5723,3.4886,3.4756,3.4793,3.4537,3.411,3.3558,3.3046,3.2903,3.284,3.2982,3.3124,3.3162,3.3174,5.3518,5.3518,5.3518,5.3518,5.3433,5.2706,5.2367,5.2097,5.0777,5.0168,4.9915,4.9357,4.9018,4.9018,4.9018,4.9018,4.9018,4.9018,4.9018,4.9018,4.9018,4.9018,4.8934,4.8798,4.8545,4.8075,4.7851,4.7479,4.7022,4.6938,4.6633,4.6566,4.594,4.572,4.5483,4.5224,4.4886,4.4818,4.4739,4.4682,4.4632,4.4598,4.4598,4.4598,4.4598,4.4598,4.4598,4.4598,4.4598,4.4598,4.4733,4.4767,4.4801,4.4919,4.5207,4.5303,4.4729,4.4107,4.3538,4.2478,4.158,4.1542,4.1961,4.2521,4.3,4.3155,4.3275,4.3275,4.329,4.3305,4.3305,4.3305,4.3305,4.3305,4.3305,4.3305,4.3305,4.3305,4.321,4.3076,4.2684,4.2193,4.1629,3.9838,3.8144,3.7645,3.7111,3.6957,3.7075,3.7606,3.7402,3.7534,3.8729,3.9325,3.9832,4.0478,4.1155,4.0947,3.9802,3.8596,3.7603,3.6605,3.5378,3.5169,3.5165,3.4889,3.4605,3.4234,3.3821,3.3276,3.3144,3.3445,3.352,3.3545,3.3458,5.3518,5.3518,5.3518,5.3518,5.345,5.2638,5.2046,5.1522,5.0541,4.9796,4.9424,4.9154,4.9018,4.9018,4.9018,4.9018,4.9018,4.9018,4.9018,4.9018,4.9018,4.9018,4.9018,4.8968,4.8832,4.8595,4.8545,4.8511,4.824,4.7986,4.8122,4.7834,4.6955,4.6498,4.6194,4.5991,4.5686,4.5331,4.5213,4.5111,4.4632,4.4598,4.4598,4.4598,4.4598,4.4598,4.4598,4.4598,4.4598,4.4733,4.5026,4.5213,4.5331,4.5618,4.5974,4.617,4.5426,4.49,4.4569,4.3547,4.2848,4.2605,4.2836,4.306,4.3275,4.329,4.3305,4.3305,4.3305,4.3305,4.3305,4.3305,4.3305,4.3305,4.3305,4.3305,4.3305,4.3305,4.3305,4.317,4.3076,4.2845,4.229,4.1573,3.986,3.8411,3.7848,3.7415,3.7368,3.7494,3.7368,3.7322,3.8392,3.9227,3.9667,4.0916,4.2275,4.1643,4.0916,3.965,3.8207,3.7025,3.6003,3.5755,3.5579,3.5479,3.5303,3.5031,3.4593,3.4048,3.3972,3.4173,3.4148,3.3997,3.3909,5.3518,5.3518,5.3518,5.3348,5.3061,5.2317,5.1555,5.0828,5.0067,4.9509,4.9018,4.9018,4.9018,4.9018,4.9018,4.9018,4.9018,4.9018,4.9018,4.9018,4.9018,4.9018,4.9018,4.9001,4.8984,4.9018,4.9018,4.8934,4.8849,4.8984,4.8883,4.8545,4.8037,4.753,4.7073,4.6853,4.6532,4.616,4.5974,4.5838,4.5326,4.5326,4.5122,4.5072,4.4976,4.4801,4.4801,4.4835,4.4993,4.5229,4.5568,4.5974,4.6194,4.6481,4.687,4.6675,4.6221,4.5522,4.5161,4.432,4.3587,4.3169,4.3185,4.326,4.3305,4.3305,4.3305,4.3305,4.3305,4.3305,4.3305,4.3305,4.3305,4.3305,4.3305,4.3305,4.3305,4.3305,4.3305,4.325,4.321,4.3115,4.2426,4.1699,4.0015,3.8617,3.8107,3.7494,3.7103,3.7322,3.7619,3.7586,3.7848,3.8559,3.9214,4.059,4.167,4.1057,4.0361,3.9784,3.86,3.7335,3.6452,3.6179,3.6031,3.6094,3.5943,3.5692,3.5265,3.4751,3.4713,3.4663,3.4537,3.4387,3.4487,5.3484,5.3518,5.3467,5.301,5.2232,5.1555,5.0862,5.0185,4.9458,4.9086,4.9018,4.9018,4.9018,4.9018,4.9018,4.9018,4.9018,4.9018,4.9018,4.9018,4.9018,4.9018,4.9018,4.9018,4.9018,4.9018,4.9018,4.9018,4.9018,4.9018,4.9018,4.9018,4.868,4.8392,4.7838,4.7192,4.6836,4.6769,4.6786,4.6684,4.6481,4.6413,4.6092,4.5805,4.5669,4.5432,4.5275,4.5449,4.5652,4.5805,4.6397,4.6735,4.6836,4.6972,4.7284,4.7578,4.6841,4.6285,4.5959,4.4289,4.3491,4.3299,4.3305,4.3305,4.3305,4.3305,4.3305,4.3305,4.3305,4.3305,4.3305,4.3305,4.3305,4.3305,4.3305,4.3305,4.3305,4.3305,4.3305,4.3305,4.3305,4.317,4.2441,4.1491,3.9869,3.8778,3.8289,3.7723,3.7036,3.6977,3.7322,3.7322,3.7368,3.7939,3.8725,4.0247,4.0986,4.0361,3.9812,3.9227,3.8469,3.7243,3.6675,3.6452,3.6367,3.6292,3.6329,3.6342,3.5805,3.5341,3.5077,3.4964,3.4839,3.4843,3.5077,5.3179,5.2706,5.2723,5.1978,5.0963,5.1133,5.0777,5.0033,4.9373,4.9018,4.9018,4.9018,4.9018,4.9018,4.9018,4.9018,4.9018,4.9018,4.9018,4.9018,4.9018,4.9018,4.9018,4.9018,4.9018,4.9018,4.9018,4.9018,4.9018,4.9018,4.9018,4.9018,4.9001,4.8883,4.8646,4.8274,4.8088,4.7631,4.7496,4.7327,4.687,4.6836,4.6735,4.6447,4.643,4.6244,4.5957,4.6278,4.6413,4.6515,4.7141,4.7513,4.7648,4.78,4.7995,4.7744,4.6846,4.5583,4.4734,4.3497,4.3369,4.3305,4.3305,4.3305,4.3305,4.3305,4.3305,4.3319,4.3364,4.3349,4.3305,4.3319,4.3319,4.3305,4.3305,4.3305,4.3305,4.3305,4.3305,4.3305,4.3305,4.3424,4.3038,4.1851,4.0253,3.9077,3.8543,3.7549,3.6729,3.6619,3.6722,3.6722,3.6803,3.7368,3.8185,3.9363,3.9988,3.9579,3.905,3.8514,3.7723,3.6977,3.6662,3.6417,3.6417,3.6417,3.6417,3.6392,3.6279,3.5977,3.5655,3.5567,3.5617,3.5717,3.5918,5.2638,5.1944,5.1928,5.1234,5.027,5.0625,5.0405,4.9712,4.9221,4.9018,4.9018,4.9018,4.9018,4.9018,4.9018,4.9018,4.9018,4.9018,4.9018,4.9018,4.9018,4.9018,4.9018,4.9018,4.9018,4.9018,4.9018,4.9018,4.9018,4.9018,4.9018,4.9018,4.9018,4.8984,4.8934,4.8832,4.8714,4.8342,4.824,4.8122,4.78,4.7614,4.7479,4.7276,4.7141,4.7022,4.6938,4.7005,4.7192,4.7394,4.7784,4.8257,4.846,4.8571,4.8688,4.7982,4.6781,4.5348,4.3935,4.3409,4.3305,4.3305,4.3305,4.3305,4.3305,4.3305,4.3305,4.3334,4.3499,4.3618,4.3663,4.3648,4.3858,4.3888,4.3902,4.3917,4.3947,4.3992,4.3977,4.3902,4.3873,4.3873,4.3656,4.2152,4.0763,3.9755,3.8819,3.7741,3.6792,3.6707,3.6619,3.6568,3.6493,3.69,3.7394,3.8075,3.8559,3.8662,3.8347,3.7939,3.7381,3.6675,3.6499,3.6417,3.6452,3.6452,3.6417,3.6367,3.6492,3.6445,3.6254,3.6254,3.6417,3.6417,3.6417,5.1877,5.1202,5.1134,5.0744,5.0118,5.005,4.9661,4.9052,4.9018,4.9018,4.9018,4.9018,4.9018,4.9018,4.9018,4.9018,4.9018,4.9018,4.9018,4.9018,4.9018,4.9018,4.9018,4.9018,4.9018,4.9018,4.9018,4.9018,4.9018,4.9018,4.9018,4.9018,4.9018,4.9018,4.9018,4.8984,4.8934,4.8815,4.8765,4.868,4.8528,4.868,4.8359,4.8105,4.7919,4.7665,4.7564,4.7631,4.7868,4.8156,4.8545,4.8832,4.8984,4.9001,4.9001,4.8433,4.707,4.54,4.4151,4.3834,4.3687,4.3756,4.3519,4.3404,4.3454,4.3618,4.3798,4.3888,4.4107,4.4242,4.4306,4.4676,4.5005,4.5005,4.502,4.5035,4.505,4.505,4.505,4.5005,4.4975,4.4848,4.4552,4.3286,4.1795,4.127,4.0301,3.8947,3.8056,3.7285,3.7159,3.6845,3.6744,3.6543,3.6951,3.7511,3.7415,3.7645,3.7782,3.7461,3.6896,3.6572,3.6452,3.6405,3.6487,3.6628,3.6896,3.6943,3.6883,3.6849,3.6896,3.6546,3.6581,3.6452,3.6417,5.1555,5.0456,5.0422,4.9982,4.9373,4.9323,4.9171,4.9018,4.9018,4.9018,4.9018,4.9018,4.9018,4.9018,4.9018,4.9018,4.9018,4.9018,4.9018,4.9018,4.9018,4.9018,4.9018,4.9018,4.9018,4.9018,4.9018,4.9018,4.9018,4.9018,4.9018,4.9018,4.9018,4.9018,4.9018,4.9018,4.9018,4.9018,4.9018,4.9018,4.9018,4.9018,4.8781,4.8663,4.8595,4.8359,4.8392,4.8426,4.8612,4.8748,4.8866,4.9018,4.9018,4.897,4.8829,4.795,4.6884,4.5869,4.5379,4.4759,4.4427,4.4552,4.4403,4.4058,4.4137,4.4362,4.4586,4.4601,4.4766,4.496,4.508,4.5349,4.5603,4.5648,4.5648,4.5648,4.5663,4.5663,4.5663,4.5663,4.5648,4.5607,4.5295,4.4311,4.3012,4.2726,4.195,4.055,3.9249,3.8492,3.7662,3.7348,3.7159,3.696,3.6832,3.7222,3.6839,3.6615,3.7036,3.7334,3.71,3.683,3.6562,3.6644,3.7002,3.7333,3.7678,3.7769,3.7997,3.7723,3.7665,3.715,3.6709,3.6581,3.6417,5.0744,4.9729,4.9644,4.939,4.9052,4.9018,4.9018,4.9018,4.9018,4.9018,4.9018,4.9018,4.9018,4.9018,4.9018,4.9018,4.9018,4.9018,4.9018,4.9018,4.9018,4.9018,4.9018,4.9018,4.9018,4.9018,4.9018,4.9018,4.9018,4.9018,4.9018,4.9018,4.9018,4.9018,4.9018,4.9018,4.9018,4.9018,4.9018,4.9018,4.9018,4.9018,4.9018,4.9018,4.9018,4.9018,4.9018,4.9018,4.9018,4.9018,4.9018,4.9018,4.9018,4.897,4.8576,4.777,4.7239,4.6295,4.5608,4.5835,4.5537,4.5433,4.5513,4.5541,4.5173,4.517,4.517,4.517,4.5469,4.5723,4.5813,4.5918,4.6022,4.6142,4.6142,4.6142,4.6142,4.6142,4.6157,4.6172,4.6187,4.6202,4.5702,4.4836,4.4234,4.401,4.3417,4.2344,4.0848,3.9511,3.8512,3.7776,3.7626,3.75,3.7457,3.7559,3.747,3.7371,3.7344,3.7536,3.7356,3.733,3.724,3.741,3.7663,3.8004,3.8234,3.9015,3.9329,3.8939,3.8376,3.7848,3.7214,3.6709,3.6581,4.9678,4.9035,4.9018,4.9052,4.9018,4.9018,4.9018,4.9018,4.9018,4.9018,4.9018,4.9018,4.9018,4.9018,4.9018,4.9018,4.9018,4.9018,4.9018,4.9018,4.9018,4.9018,4.9018,4.9018,4.9018,4.9018,4.9018,4.9018,4.9018,4.9018,4.9018,4.9018,4.9018,4.9018,4.9018,4.9018,4.9018,4.9018,4.9018,4.9018,4.9018,4.9018,4.9018,4.9018,4.9018,4.9018,4.9018,4.9018,4.9018,4.9018,4.9018,4.9018,4.9018,4.897,4.8433,4.8144,4.7803,4.7172,4.6628,4.6804,4.6471,4.6384,4.6527,4.6839,4.6629,4.6032,4.5933,4.5963,4.6232,4.6367,4.6456,4.6591,4.6726,4.6756,4.6756,4.6756,4.6756,4.6756,4.6756,4.677,4.677,4.6785,4.6657,4.5873,4.5596,4.5306,4.4635,4.3709,4.2767,4.117,4.022,3.9167,3.9194,3.9319,3.9119,3.9159,3.8762,3.8498,3.839,3.8746,3.9301,3.8791,3.8009,3.8297,3.859,3.8529,3.8799,3.9878,4.0424,3.9654,3.9112,3.8535,3.7873,3.7198,3.6821,4.9661,4.9018,4.9018,4.9018,4.9018,4.9018,4.9018,4.9018,4.9018,4.9018,4.9018,4.9018,4.9018,4.9018,4.9018,4.9018,4.9018,4.9018,4.9018,4.9018,4.9018,4.9018,4.9018,4.9018,4.9018,4.9018,4.9018,4.9018,4.9018,4.9018,4.9018,4.9018,4.9018,4.9018,4.9018,4.9018,4.9018,4.9018,4.9018,4.9018,4.9018,4.9018,4.9018,4.9018,4.9018,4.9018,4.9018,4.9018,4.9018,4.9018,4.9018,4.9018,4.9018,4.9018,4.8909,4.8736,4.8562,4.8097,4.7985,4.8057,4.7984,4.7978,4.8141,4.8053,4.7814,4.7181,4.6843,4.683,4.6875,4.6965,4.707,4.7204,4.7309,4.7309,4.7309,4.7309,4.7309,4.7309,4.7309,4.7309,4.7309,4.7266,4.7207,4.7121,4.6931,4.6388,4.557,4.4889,4.4553,4.3504,4.2991,4.2141,4.1727,4.1639,4.1227,4.0863,4.0476,4.0222,4.0108,4.0616,4.1153,4.0481,3.9721,3.9446,3.9504,3.934,3.9807,4.1432,4.1597,4.0581,3.9903,3.9309,3.8519,3.7752,3.7394,4.9373,4.9018,4.9018,4.9018,4.9018,4.9018,4.9018,4.9018,4.9018,4.9018,4.9018,4.9018,4.9018,4.9018,4.9018,4.9018,4.9018,4.9018,4.9018,4.9018,4.9018,4.9018,4.9018,4.9018,4.9018,4.9018,4.9018,4.9018,4.9018,4.9018,4.9018,4.9018,4.9018,4.9018,4.9018,4.9018,4.9018,4.9018,4.9018,4.9018,4.9018,4.9018,4.9018,4.9018,4.9018,4.9018,4.9018,4.9018,4.9018,4.9018,4.9018,4.9018,4.9018,4.9018,4.9018,4.897,4.8942,4.895,4.9067,4.9343,4.945,4.9095,4.9427,4.9213,4.7748,4.7128,4.7085,4.7115,4.7115,4.7189,4.7189,4.7294,4.7309,4.7309,4.7309,4.7309,4.7309,4.7309,4.7309,4.7309,4.7309,4.7309,4.7266,4.7266,4.7121,4.7077,4.6299,4.6151,4.5824,4.5448,4.5115,4.4663,4.4005,4.3306,4.2588,4.2432,4.2322,4.2131,4.1959,4.168,4.1788,4.1721,4.1463,4.0438,3.9856,3.9925,4.075,4.1856,4.2071,4.1101,4.0586,4.0168,3.9258,3.84,3.8101,4.9018,4.9018,4.9018,4.9018,4.9018,4.9018,4.9018,4.9018,4.9018,4.9018,4.9018,4.9018,4.9018,4.9018,4.9018,4.9018,4.9018,4.9018,4.9018,4.9018,4.9018,4.9018,4.9018,4.9018,4.9018,4.9018,4.9018,4.9018,4.9018,4.9018,4.9018,4.9018,4.9018,4.9018,4.9018,4.9018,4.9018,4.9018,4.9018,4.9018,4.9018,4.9018,4.9018,4.9018,4.9018,4.9018,4.9018,4.9018,4.9018,4.9018,4.9018,4.9018,4.9018,4.9018,4.9018,4.9035,4.9255,4.9177,4.934,5.0389,4.9798,4.939,5.0013,4.956,4.803,4.7381,4.7337,4.7309,4.7309,4.7309,4.7309,4.7309,4.7309,4.7309,4.7309,4.7309,4.7309,4.7309,4.7309,4.7309,4.7309,4.7309,4.7309,4.7309,4.7309,4.7309,4.7309,4.7309,4.7121,4.6682,4.6299,4.5928,4.5425,4.473,4.4232,4.4074,4.4167,4.4075,4.3842,4.3012,4.2442,4.2446,4.1874,4.0346,3.9967,3.9985,4.0316,4.1126,4.1167,4.1138,4.1133,4.068,3.9757,3.8994,3.8793,4.9018,4.9018,4.9018,4.9018,4.9018,4.9018,4.9018,4.9018,4.9018,4.9018,4.9018,4.9018,4.9018,4.9018,4.9018,4.9018,4.9018,4.9018,4.9018,4.9018,4.9018,4.9018,4.9018,4.9018,4.9018,4.9018,4.9018,4.9018,4.9018,4.9018,4.9018,4.9018,4.9018,4.9018,4.9018,4.9018,4.9018,4.9018,4.9018,4.9018,4.9018,4.9018,4.9018,4.9018,4.9018,4.9018,4.9018,4.9018,4.9018,4.9018,4.9018,4.9018,4.9018,4.9018,4.9052,4.9289,4.9509,4.9854,5.0316,5.1207,5.0709,5.027,5.0537,4.9836,4.8543,4.7566,4.7452,4.7309,4.7309,4.7309,4.7309,4.7309,4.7309,4.7309,4.7309,4.7309,4.7309,4.7309,4.7309,4.7309,4.7309,4.7309,4.7309,4.7309,4.7309,4.7309,4.7309,4.7309,4.7309,4.7309,4.7309,4.6931,4.655,4.6785,4.658,4.6137,4.6079,4.6033,4.5494,4.4163,4.3361,4.3313,4.2396,4.0571,3.9855,3.9779,4.0217,4.0576,4.0509,4.0631,4.1271,4.1107,4.0182,3.955,3.9259]}]]